[[{"header":{"parameterUnit":"m.s-1","parameterCategory":1,"la1":30.6,"la2":29.2853,"lo1":-89.7004,"lo2":-87.6739,"dy":0.0162,"dx":0.0183,"nx":112,"ny":82,"refTime":"2025-04-17T12:00:00:Z","depth":0,"parameterNumber":2,"parameterNumberName":"U-component_of_WINDS"},"data":[0.0,0.0,0.0,0.0,0.0,0.0,0.0,0.0,0.0,0.0,0.0,0.0,0.0,0.0,0.0,0.0,0.0,0.0,0.0,0.0,0.0,0.0,0.0,0.0,0.0,0.0,0.0,0.0,0.0,0.0,0.0,0.0,0.0,0.0,0.0,0.0,0.0,0.0,0.0,0.0,0.0,0.0,0.0,0.0,0.0,0.0,0.0,0.0,0.0,0.0,0.0,0.0,0.0,0.0,0.0,0.0,0.0,0.0,0.0,0.0,0.0,0.0,0.0,0.0,0.0,0.0,0.0,0.0,0.0,0.0,0.0,0.0,0.0,0.0,0.0,0.0,0.0,0.0,0.0,0.0,0.0,0.0,0.0,0.0,0.0,0.0,0.0,0.0,0.0,0.0,-0.7872,-0.7982,-0.8965,-0.9702,-1.0005,-0.9307,-0.8454,-0.7566,0.0,0.0,0.0,0.0,0.0,0.0,0.0,0.0,0.0,0.0,0.0,0.0,0.0,0.0,0.0,0.0,0.0,0.0,0.0,0.0,0.0,0.0,0.0,0.0,0.0,0.0,0.0,0.0,0.0,0.0,0.0,0.0,0.0,0.0,0.0,0.0,0.0,0.0,0.0,0.0,0.0,0.0,0.0,0.0,0.0,0.0,0.0,0.0,0.0,0.0,0.0,0.0,0.0,0.0,0.0,0.0,0.0,0.0,0.0,0.0,0.0,0.0,0.0,0.0,0.0,0.0,0.0,0.0,0.0,0.0,0.0,0.0,0.0,0.0,0.0,0.0,0.0,0.0,0.0,0.0,0.0,0.0,0.0,0.0,0.0,0.0,0.0,0.0,0.0,0.0,0.0,0.0,0.0,0.0,0.0,0.0,0.0,0.0,0.0,0.0,0.0,0.0,0.0,0.0,-0.824,-1.0021,-1.0386,-1.0527,-1.0568,-0.9641,-0.8609,-0.7566,0.0,0.0,0.0,0.0,0.0,0.0,0.0,0.0,0.0,0.0,0.0,0.0,0.0,0.0,0.0,0.0,0.0,0.0,0.0,0.0,0.0,0.0,0.0,0.0,0.0,0.0,0.0,0.0,0.0,0.0,0.0,0.0,0.0,0.0,0.0,0.0,0.0,0.0,0.0,0.0,0.0,0.0,0.0,0.0,0.0,0.0,0.0,0.0,0.0,0.0,0.0,0.0,0.0,0.0,0.0,0.0,0.0,0.0,0.0,0.0,0.0,0.0,0.0,0.0,0.0,0.0,0.0,0.0,0.0,0.0,0.0,0.0,0.0,0.0,0.0,0.0,0.0,0.0,0.0,0.0,0.0,0.0,0.0,0.0,0.0,0.0,0.0,0.0,0.0,0.0,0.0,0.0,0.0,0.0,0.0,0.0,0.0,0.0,0.0,0.0,0.0,0.0,0.0,-0.783,-0.8689,-1.0514,-1.0694,-1.0694,-1.0694,-0.9981,-0.8948,-0.7588,-0.7349,0.0,0.0,0.0,0.0,0.0,0.0,0.0,0.0,0.0,0.0,0.0,0.0,0.0,0.0,0.0,0.0,0.0,0.0,0.0,0.0,0.0,0.0,0.0,0.0,0.0,0.0,0.0,0.0,0.0,0.0,0.0,0.0,0.0,0.0,0.0,0.0,0.0,0.0,0.0,0.0,0.0,0.0,0.0,0.0,0.0,0.0,0.0,0.0,0.0,0.0,0.0,0.0,0.0,0.0,0.0,0.0,0.0,0.0,0.0,0.0,0.0,0.0,0.0,0.0,0.0,0.0,0.0,0.0,0.0,0.0,0.0,0.0,0.0,0.0,0.0,0.0,0.0,0.0,0.0,0.0,0.0,0.0,0.0,0.0,0.0,0.0,0.0,0.0,0.0,0.0,0.0,0.0,0.0,0.0,0.0,0.0,0.0,0.0,0.0,0.0,0.0,0.0,-0.8929,-0.9659,-1.0965,-1.1109,-1.1059,-1.0921,-1.0281,-0.9206,-0.76,-0.7383,0.0,0.0,0.0,0.0,0.0,0.0,0.0,0.0,0.0,0.0,0.0,0.0,0.0,0.0,0.0,0.0,0.0,0.0,0.0,0.0,0.0,0.0,0.0,0.0,0.0,0.0,0.0,0.0,0.0,0.0,0.0,0.0,0.0,0.0,0.0,0.0,0.0,0.0,0.0,0.0,0.0,0.0,0.0,0.0,0.0,0.0,0.0,0.0,0.0,0.0,0.0,0.0,0.0,0.0,0.0,0.0,0.0,0.0,0.0,0.0,0.0,0.0,0.0,0.0,0.0,0.0,0.0,0.0,0.0,0.0,0.0,0.0,0.0,0.0,0.0,0.0,0.0,0.0,0.0,0.0,0.0,0.0,0.0,0.0,0.0,0.0,0.0,0.0,0.0,0.0,0.0,0.0,0.0,0.0,0.0,0.0,0.0,0.0,0.0,0.0,0.0,0.0,-1.0144,-1.1608,-1.2212,-1.2275,-1.209,-1.159,-1.0521,-0.9206,-0.76,-0.7031,0.0,0.0,0.0,0.0,0.0,0.0,0.0,0.0,0.0,0.0,0.0,0.0,0.0,0.0,0.0,0.0,0.0,0.0,0.0,0.0,0.0,0.0,0.0,0.0,0.0,0.0,0.0,0.0,0.0,0.0,0.0,0.0,0.0,0.0,0.0,0.0,0.0,0.0,0.0,0.0,0.0,0.0,0.0,0.0,0.0,0.0,0.0,0.0,0.0,0.0,0.0,0.0,0.0,0.0,0.0,0.0,0.0,0.0,0.0,0.0,0.0,0.0,0.0,0.0,0.0,0.0,0.0,0.0,0.0,0.0,0.0,0.0,0.0,0.0,0.0,0.0,0.0,0.0,0.0,0.0,0.0,0.0,0.0,0.0,0.0,0.0,0.0,0.0,0.0,0.0,0.0,0.0,0.0,0.0,0.0,0.0,0.0,0.0,0.0,0.0,0.0,0.0,-0.9921,-1.1248,0.0,-1.24,-1.219,-1.1653,-1.086,-0.9562,-0.7623,0.0,0.0,0.0,0.0,0.0,0.0,0.0,0.0,0.0,0.0,0.0,0.0,0.0,0.0,0.0,0.0,0.0,0.0,0.0,0.0,0.0,0.0,0.0,0.0,0.0,0.0,0.0,0.0,0.0,0.0,0.0,0.0,0.0,0.0,0.0,0.0,0.0,0.0,0.0,0.0,0.0,0.0,0.0,0.0,0.0,0.0,0.0,0.0,0.0,0.0,0.0,0.0,0.0,0.0,0.0,0.0,0.0,0.0,0.0,0.0,0.0,0.0,0.0,0.0,0.0,0.0,0.0,0.0,0.0,0.0,0.0,0.0,0.0,0.0,0.0,0.0,0.0,0.0,0.0,0.0,0.0,0.0,0.0,0.0,0.0,0.0,0.0,0.0,0.0,0.0,0.0,0.0,0.0,0.0,0.0,0.0,0.0,0.0,0.0,0.0,0.0,0.0,-0.8814,-1.0035,-1.1258,0.0,-1.2651,-1.2363,-1.1666,-1.1046,-0.9822,-0.776,0.0,0.0,0.0,0.0,0.0,0.0,0.0,0.0,0.0,0.0,0.0,0.0,0.0,0.0,0.0,0.0,0.0,0.0,0.0,0.0,0.0,0.0,0.0,0.0,0.0,0.0,0.0,0.0,0.0,0.0,0.0,0.0,0.0,0.0,0.0,0.0,0.0,0.0,0.0,0.0,0.0,0.0,0.0,0.0,0.0,0.0,0.0,0.0,0.0,0.0,0.0,0.0,0.0,0.0,0.0,0.0,0.0,0.0,0.0,0.0,0.0,0.0,0.0,0.0,0.0,0.0,0.0,0.0,0.0,0.0,0.0,0.0,0.0,0.0,0.0,0.0,0.0,0.0,0.0,0.0,0.0,0.0,0.0,0.0,0.0,0.0,0.0,0.0,0.0,0.0,0.0,0.0,0.0,0.0,0.0,0.0,0.0,0.0,0.0,0.0,0.0,0.0,-0.9458,-1.0769,-1.2015,-1.3085,-1.3198,-1.2776,-1.1691,-1.1046,-0.9901,0.0,0.0,0.0,0.0,0.0,0.0,0.0,0.0,0.0,0.0,0.0,0.0,0.0,0.0,0.0,0.0,0.0,0.0,0.0,0.0,0.0,0.0,0.0,0.0,0.0,0.0,0.0,0.0,0.0,0.0,0.0,0.0,0.0,0.0,0.0,0.0,0.0,0.0,0.0,0.0,0.0,0.0,0.0,0.0,0.0,0.0,0.0,0.0,0.0,0.0,0.0,0.0,0.0,0.0,0.0,0.0,0.0,0.0,0.0,0.0,0.0,0.0,0.0,0.0,0.0,0.0,0.0,0.0,0.0,0.0,0.0,0.0,0.0,0.0,0.0,0.0,0.0,0.0,0.0,0.0,0.0,0.0,0.0,0.0,0.0,0.0,0.0,0.0,0.0,0.0,0.0,0.0,0.0,0.0,0.0,0.0,0.0,0.0,0.0,0.0,0.0,0.0,0.0,-0.9665,-1.0869,-1.2015,-1.3085,-1.3198,-1.2776,-1.1691,-1.1437,-1.035,-0.8043,0.0,0.0,0.0,0.0,0.0,0.0,0.0,0.0,0.0,0.0,0.0,0.0,0.0,0.0,0.0,0.0,0.0,0.0,0.0,0.0,0.0,0.0,0.0,0.0,0.0,0.0,0.0,0.0,0.0,0.0,0.0,0.0,0.0,0.0,0.0,0.0,0.0,0.0,0.0,0.0,0.0,0.0,0.0,0.0,0.0,0.0,0.0,0.0,0.0,0.0,0.0,0.0,0.0,0.0,0.0,0.0,0.0,0.0,0.0,0.0,0.0,0.0,0.0,0.0,0.0,0.0,0.0,0.0,0.0,0.0,0.0,0.0,0.0,0.0,0.0,0.0,0.0,0.0,0.0,0.0,0.0,0.0,0.0,0.0,0.0,0.0,0.0,0.0,0.0,0.0,0.0,0.0,0.0,0.0,0.0,0.0,0.0,0.0,0.0,0.0,0.0,0.0,-0.9767,-1.0899,-1.2015,-1.3085,-1.3198,-1.2847,-1.1989,-1.1728,-1.068,-0.8518,0.0,0.0,0.0,0.0,0.0,0.0,0.0,0.0,0.0,0.0,0.0,0.0,0.0,0.0,0.0,0.0,0.0,0.0,0.0,0.0,0.0,0.0,0.0,0.0,0.0,0.0,0.0,0.0,0.0,0.0,0.0,0.0,0.0,0.0,0.0,0.0,0.0,0.0,0.0,0.0,0.0,0.0,0.0,0.0,0.0,0.0,0.0,0.0,0.0,0.0,0.0,0.0,0.0,0.0,0.0,0.0,0.0,0.0,0.0,0.0,0.0,0.0,0.0,0.0,0.0,0.0,0.0,0.0,0.0,0.0,0.0,0.0,0.0,0.0,0.0,0.0,0.0,0.0,0.0,0.0,0.0,0.0,0.0,0.0,0.0,0.0,0.0,0.0,0.0,0.0,0.0,0.0,0.0,0.0,0.0,0.0,0.0,0.0,0.0,0.0,0.0,0.0,-0.9767,-1.0949,-1.2065,-1.3085,-1.3198,-1.2973,-1.245,-1.1914,-1.0911,-0.9277,0.0,0.0,0.0,0.0,0.0,0.0,0.0,0.0,0.0,0.0,0.0,0.0,0.0,0.0,0.0,0.0,0.0,0.0,0.0,0.0,0.0,0.0,0.0,0.0,0.0,0.0,0.0,0.0,0.0,0.0,0.0,0.0,0.0,0.0,0.0,0.0,0.0,0.0,0.0,0.0,0.0,0.0,0.0,0.0,0.0,0.0,0.0,0.0,0.0,0.0,0.0,0.0,0.0,0.0,0.0,0.0,0.0,0.0,0.0,0.0,-0.8592,0.0,0.0,0.0,0.0,0.0,0.0,0.0,0.0,0.0,0.0,0.0,0.0,0.0,0.0,0.0,0.0,0.0,0.0,0.0,0.0,0.0,0.0,0.0,0.0,0.0,0.0,0.0,0.0,0.0,0.0,0.0,0.0,0.0,0.0,0.0,0.0,0.0,0.0,0.0,0.0,0.0,-0.9818,-1.1261,-1.2475,-1.3123,-1.3198,-1.2973,-1.245,-1.1914,-1.106,-0.9805,-0.878,0.0,0.0,0.0,0.0,0.0,0.0,0.0,0.0,0.0,0.0,0.0,0.0,0.0,0.0,0.0,0.0,0.0,0.0,0.0,0.0,0.0,0.0,0.0,0.0,0.0,0.0,0.0,0.0,0.0,0.0,0.0,0.0,0.0,0.0,0.0,0.0,0.0,0.0,0.0,0.0,0.0,0.0,0.0,0.0,0.0,0.0,0.0,0.0,0.0,0.0,0.0,0.0,0.0,0.0,0.0,0.0,0.0,0.0,0.0,0.0,-0.9332,0.0,0.0,0.0,0.0,0.0,0.0,0.0,0.0,0.0,0.0,0.0,0.0,0.0,0.0,0.0,0.0,0.0,0.0,0.0,0.0,0.0,0.0,0.0,0.0,0.0,0.0,0.0,0.0,0.0,0.0,0.0,0.0,0.0,0.0,0.0,0.0,0.0,0.0,0.0,0.0,-1.0181,-1.1691,-1.282,-1.317,-1.3408,-1.3331,-1.2831,-1.2287,-1.15,-1.0356,-0.9516,0.0,0.0,0.0,0.0,0.0,0.0,0.0,0.0,0.0,0.0,0.0,0.0,0.0,0.0,0.0,0.0,0.0,0.0,0.0,0.0,0.0,0.0,0.0,0.0,0.0,0.0,0.0,0.0,0.0,0.0,0.0,0.0,0.0,0.0,0.0,0.0,0.0,0.0,0.0,0.0,0.0,0.0,0.0,0.0,0.0,0.0,0.0,0.0,0.0,0.0,0.0,0.0,0.0,-1.2475,-1.2842,-1.3779,-1.3784,-1.4071,-1.446,-1.2367,-1.1538,-1.16,-1.0495,0.0,0.0,0.0,0.0,0.0,0.0,0.0,0.0,0.0,0.0,0.0,0.0,0.0,0.0,0.0,0.0,0.0,0.0,0.0,0.0,0.0,0.0,0.0,0.0,-1.2481,-1.2265,0.0,0.0,0.0,0.0,0.0,0.0,0.0,0.0,0.0,0.0,0.0,0.0,-1.0733,-1.2133,-1.3087,-1.3199,-1.3547,-1.3615,-1.3232,-1.2714,-1.1961,-1.0921,-1.0244,-0.898,0.0,0.0,0.0,0.0,0.0,0.0,0.0,0.0,0.0,0.0,0.0,0.0,0.0,0.0,0.0,0.0,0.0,0.0,0.0,0.0,0.0,0.0,0.0,0.0,0.0,0.0,0.0,0.0,0.0,0.0,0.0,0.0,-0.673,-0.7235,0.0,0.0,0.0,0.0,0.0,0.0,0.0,0.0,0.0,0.0,0.0,0.0,0.0,-1.3422,-1.356,-1.403,-1.4326,-1.4497,-1.4941,-1.547,-1.6062,-1.6066,-1.6357,-1.6817,-1.6048,0.0,-1.3617,-1.3443,0.0,0.0,0.0,0.0,0.0,0.0,0.0,0.0,0.0,0.0,0.0,0.0,0.0,0.0,0.0,0.0,0.0,0.0,0.0,0.0,0.0,0.0,-1.4928,-1.4488,-1.4775,-1.5082,0.0,-1.2429,-1.0107,-0.9082,-0.9168,0.0,0.0,0.0,0.0,0.0,0.0,0.0,-1.1402,-1.2461,-1.3179,-1.3203,-1.3267,-1.3267,-1.3215,-1.2714,-1.214,-1.1512,-1.0483,-0.9554,-0.8776,-0.7878,0.0,0.0,0.0,0.0,0.0,0.0,0.0,0.0,0.0,0.0,0.0,0.0,0.0,0.0,0.0,0.0,0.0,0.0,0.0,0.0,0.0,0.0,0.0,0.0,0.0,0.0,0.0,0.0,0.0,-0.7085,-0.7681,-0.7921,-0.821,-0.8186,0.0,0.0,0.0,0.0,0.0,0.0,0.0,0.0,0.0,-1.4168,-1.4646,-1.5215,-1.5849,-1.6086,-1.6368,-1.6658,-1.6916,-1.7172,-1.7399,-1.7711,-1.7982,-1.82,-1.8271,-1.7709,-1.6637,-1.5126,-1.4063,-1.334,0.0,0.0,0.0,0.0,-1.2679,-1.2329,-1.3878,-1.3827,0.0,-1.3319,0.0,0.0,0.0,0.0,0.0,0.0,0.0,0.0,0.0,0.0,-1.6163,-1.6195,-1.6564,-1.6828,-1.6603,-1.5338,-1.367,0.0,-1.1651,-1.1353,-0.9423,0.0,0.0,0.0,0.0,-1.2663,-1.3254,-1.4536,-1.5165,-1.4553,-1.4698,-1.4596,-1.3977,-1.3513,-1.2994,-1.2426,-1.142,-1.0471,-0.9591,-0.8776,-0.7949,0.0,0.0,0.0,0.0,0.0,0.0,0.0,0.0,0.0,0.0,0.0,0.0,0.0,0.0,0.0,0.0,0.0,0.0,0.0,0.0,0.0,0.0,0.0,0.0,0.0,0.0,0.0,0.0,-0.8362,-0.8965,-0.9127,-0.973,-0.9932,0.0,0.0,0.0,0.0,0.0,0.0,-1.3207,-1.4389,-1.5408,-1.6216,-1.6519,-1.7064,-1.795,-1.7796,-1.8086,-1.8817,-1.8629,-1.8722,-1.9035,-1.9421,-1.9628,-1.9628,-1.9889,-1.9776,-1.9209,-1.674,-1.5612,-1.538,-1.4853,-1.4627,-1.4731,-1.5535,-1.5165,-1.455,-1.6592,-1.6526,-1.5516,-1.5459,0.0,-1.4072,-1.2822,0.0,0.0,0.0,0.0,-1.443,-1.5237,-1.6275,-1.7205,-1.76,-1.8041,-1.8292,-1.7986,-1.7845,-1.6955,0.0,-1.4052,-1.367,-1.1399,0.0,0.0,0.0,0.0,-1.4481,-1.5081,-1.6215,-1.6647,-1.5828,-1.5863,-1.5613,-1.4812,-1.4311,-1.3797,-1.3226,-1.2513,-1.1579,-1.034,-0.9765,-0.8964,-0.7851,0.0,0.0,0.0,0.0,0.0,0.0,0.0,0.0,0.0,0.0,0.0,0.0,0.0,0.0,0.0,0.0,0.0,0.0,0.0,0.0,0.0,0.0,0.0,0.0,0.0,0.0,0.0,0.0,0.0,-1.1377,-1.235,0.0,0.0,0.0,0.0,-1.3756,-1.4794,-1.5431,-1.5443,-1.7007,-1.7922,-1.7963,-1.8966,-1.9579,-1.9771,-1.9147,-1.9469,-2.0763,-2.0117,-2.042,-2.153,-2.155,-2.157,-2.153,-2.1044,-2.0825,-2.0639,-1.8714,-1.7651,-1.713,-1.6591,-1.6358,-1.6372,-1.6435,-1.6727,-1.7107,-1.726,-1.7255,-1.7193,-1.719,-1.6118,-1.4833,-1.4765,-1.4694,0.0,0.0,-1.5847,-1.7103,-1.7153,-1.7969,-1.8787,-1.8816,-1.9218,-1.9594,-1.9576,-1.9564,-1.8762,0.0,-1.5762,-1.5676,-1.4701,0.0,-1.5149,-1.531,-1.5429,-1.5739,-1.6323,-1.6467,-1.6508,-1.6449,-1.5898,-1.5502,-1.5458,-1.4849,-1.4239,-1.369,-1.362,-1.291,-1.1389,-1.0815,-1.0045,-0.9025,-0.7926,0.0,0.0,0.0,0.0,0.0,0.0,0.0,0.0,0.0,0.0,0.0,0.0,0.0,0.0,0.0,0.0,0.0,0.0,0.0,0.0,0.0,0.0,0.0,0.0,0.0,0.0,0.0,0.0,-1.351,-1.4013,0.0,-1.3965,-1.4882,-1.5354,-1.5049,-1.6624,-1.7483,-1.7228,-1.8848,-1.9771,-1.9771,-2.0557,-2.1019,-2.1065,-2.0828,-2.0932,-2.1405,-2.1168,-2.1277,-2.1695,-2.1695,-2.1695,-2.1695,-2.15,-2.1405,-2.136,-2.069,-2.0109,-1.9592,-1.9403,-1.9318,-1.9376,-1.9734,-1.952,-1.9202,-1.9879,-1.9394,-1.8387,-1.7962,-1.7423,-1.6968,-1.6968,-1.6942,-1.6913,-1.6913,-1.7594,-1.8323,-1.8323,-1.8865,-1.9406,-1.9406,-1.9566,-1.9708,-1.9708,-1.9708,-1.9412,-1.8435,-1.7981,-1.7346,-1.6006,-1.637,-1.6654,-1.6131,-1.6943,-1.7673,-1.7893,-1.8288,-1.839,-1.7949,-1.77,-1.7198,-1.6349,-1.5821,-1.5263,-1.4638,-1.3626,-1.2816,-1.2266,-1.1092,-1.0133,-0.944,-0.8813,-0.8037,0.0,0.0,0.0,0.0,0.0,0.0,0.0,0.0,0.0,0.0,0.0,0.0,0.0,0.0,0.0,0.0,0.0,0.0,0.0,0.0,0.0,0.0,0.0,0.0,0.0,0.0,-1.3993,-1.5231,-1.5688,-1.5917,-1.5915,-1.668,-1.7106,-1.6987,-1.8472,-1.9269,-1.8987,-2.0306,-2.1051,-2.1051,-2.147,-2.1799,-2.2044,-2.1799,-2.1919,-2.2338,-2.2128,-2.2128,-2.2338,-2.2338,-2.2338,-2.2338,-2.2338,-2.2338,-2.2338,-2.2338,-2.2138,-2.1773,-2.1342,-2.1167,-2.1208,-2.156,-2.1263,-2.0739,-2.146,-2.0834,-1.9626,-1.9178,-1.893,-1.8754,-1.8754,-1.891,-1.9051,-1.9051,-1.9266,-1.9505,-1.9505,-1.9601,-1.9708,-1.9708,-1.9708,-1.9708,-1.9708,-1.9708,-1.9708,-1.9708,-1.9348,-1.8696,-1.7633,-1.7972,-1.8157,-1.7528,-1.8344,-1.9031,-1.9031,-1.9438,-1.9528,-1.9076,-1.8837,-1.8252,-1.713,-1.6582,-1.6031,-1.5388,-1.4112,-1.326,-1.2912,-1.1622,-1.0632,-1.0043,-0.9621,-0.8798,-0.7563,0.0,0.0,0.0,0.0,0.0,0.0,0.0,0.0,0.0,0.0,0.0,0.0,0.0,0.0,0.0,0.0,0.0,0.0,0.0,0.0,0.0,0.0,0.0,-1.3337,-1.473,-1.5959,-1.6529,-1.7501,-1.8137,-1.818,-1.8654,-1.918,-1.9717,-2.0363,-2.0718,-2.0718,-2.1365,-2.1724,-2.1724,-2.1739,-2.2054,-2.2718,-2.2069,-2.2383,-2.3595,-2.3017,-2.3032,-2.3595,-2.3595,-2.361,-2.3625,-2.3625,-2.364,-2.3655,-2.364,-2.3625,-2.3505,-2.2248,-2.1754,-2.1754,-2.1754,-2.1754,-2.1754,-2.1739,-2.1394,-2.0955,-2.0941,-2.0557,-2.0151,-2.0151,-2.0514,-2.0926,-2.0926,-2.0828,-2.0718,-2.0718,-2.0243,-1.9768,-1.9738,-1.9738,-1.9738,-1.9708,-1.9708,-1.9708,-1.9708,-1.9708,-1.9708,-1.9708,-1.9708,-1.9708,-1.9708,-1.9708,0.0,-1.9708,-1.9708,-1.9708,-1.9708,-1.9121,-1.8446,-1.7788,-1.7115,-1.6458,-1.5873,-1.5155,-1.4333,-1.3381,-1.2412,-1.1593,-1.0938,-1.0323,-0.9336,-0.7958,0.0,0.0,0.0,0.0,0.0,0.0,0.0,0.0,0.0,0.0,0.0,0.0,0.0,0.0,0.0,0.0,0.0,0.0,0.0,0.0,0.0,-1.4344,-1.5733,-1.611,-1.6575,-1.7352,-1.8657,-1.8747,-1.9008,-1.9886,-2.0116,-2.0466,-2.1096,-2.1321,-2.1425,-2.1425,-2.2074,-2.2433,-2.2433,-2.2847,-2.3161,-2.334,-2.3161,-2.3251,-2.3595,-2.343,-2.343,-2.3595,-2.3595,-2.3879,-2.4321,-2.4321,-2.459,-2.5016,-2.4515,-2.4321,-2.4231,-2.34,-2.3071,-2.3071,-2.3071,-2.3071,-2.3011,-2.2583,-2.2336,-2.2123,-2.1628,-2.1385,-2.1263,-2.1263,-2.1364,-2.148,-2.148,-2.1461,-2.1425,-2.1425,-2.1291,-2.1021,-2.0543,-2.0438,-2.0288,-1.9813,-1.9708,-1.9708,-1.9708,-1.9708,-1.9708,-1.9708,-1.9708,-1.9708,-1.9708,-1.9708,0.0,-1.9708,-1.9708,-1.9708,-1.9708,-1.9543,-1.9151,-1.8476,-1.7818,-1.7145,-1.6488,-1.4948,-1.416,-1.4376,-1.2976,-1.2012,-1.1635,-1.0553,-0.9813,0.0,0.0,0.0,0.0,0.0,0.0,0.0,0.0,0.0,0.0,0.0,0.0,0.0,0.0,0.0,0.0,0.0,0.0,0.0,0.0,0.0,0.0,-1.6183,-1.7526,-1.8582,-1.8529,-1.8817,-1.999,-2.0089,-2.0356,-2.1042,-2.1126,-2.1276,-2.1665,-2.1949,-2.2134,-2.2134,-2.2733,-2.3092,-2.3092,-2.3415,-2.3729,-2.4029,-2.4007,-2.4163,-2.4448,-2.4448,-2.4448,-2.4448,-2.4448,-2.4657,0.0,-2.5023,-2.5232,-2.5561,-2.5173,-2.5023,0.0,0.0,0.0,0.0,0.0,-2.3595,-2.355,-2.3212,-2.3092,-2.3017,-2.2622,-2.2503,-2.2503,-2.2503,-2.2503,-2.2503,-2.2503,-2.2308,-2.2134,-2.2134,-2.1904,-2.1605,-2.1216,-2.0897,-2.0583,-2.0198,-1.9884,-1.9708,-1.9708,-1.9708,0.0,-1.9708,-1.9708,-1.9708,-1.9708,-1.9708,-1.9708,-1.9708,-1.9708,-1.9708,-1.9708,-1.9708,-1.9438,-1.8762,-1.8087,0.0,0.0,0.0,-1.4206,-1.4175,-1.3374,0.0,0.0,0.0,0.0,0.0,0.0,0.0,0.0,-0.9117,-0.913,0.0,0.0,0.0,0.0,0.0,0.0,0.0,0.0,0.0,0.0,0.0,0.0,0.0,0.0,0.0,0.0,-1.7996,-1.8969,-2.059,-2.047,-2.0352,-2.0769,-2.1335,-2.1724,-2.1819,-2.1799,-2.1844,-2.1904,-2.2478,-2.2838,-2.2912,0.0,0.0,0.0,0.0,-2.4118,-2.4709,-2.4709,-2.5008,-2.5615,-2.5615,-2.5615,-2.5615,-2.5615,-2.5644,-2.5719,-2.5719,-2.5764,-2.5824,-2.5749,-2.5674,-2.5495,-2.4298,-2.3774,-2.3714,-2.3714,-2.367,-2.3595,-2.3595,0.0,0.0,-2.3595,-2.3595,-2.3595,-2.3595,-2.3595,-2.3595,-2.3595,-2.3206,-2.2808,-2.2808,-2.2373,-2.1904,-2.1814,-2.1365,-2.0882,-2.0733,-2.0228,-1.9798,-1.9708,-1.9708,-1.9708,-1.9708,-1.9708,-1.9708,-1.9708,-1.9708,-1.9708,-1.9708,-1.9708,-1.9708,-1.9708,0.0,0.0,-1.8867,-1.8192,-1.7548,-1.6965,-1.5725,-1.4584,-1.361,-1.3788,-1.364,-1.3036,-1.3541,-1.3653,-1.3364,-1.3364,-1.3407,-1.3422,-1.1462,-1.1119,0.0,0.0,0.0,0.0,0.0,0.0,0.0,0.0,0.0,0.0,0.0,0.0,0.0,0.0,0.0,-1.8506,-1.9557,-2.0493,-2.1376,-2.1868,-2.1997,-2.1575,-2.162,-2.1904,-2.2448,-2.2508,-2.2718,-2.3191,-2.3355,-2.367,-2.4201,-2.4335,-2.4649,-2.5211,-2.5211,-2.5285,-2.542,-2.5397,-2.5457,-2.5615,0.0,0.0,-2.5615,-2.5615,-2.5899,-2.6408,-2.6408,-2.6692,-2.718,-2.6641,-2.6093,-2.5561,-2.5315,-2.4874,-2.441,-2.441,-2.4051,-2.3595,-2.3595,-2.3595,-2.3595,-2.3595,-2.3595,-2.3595,-2.3595,-2.3595,0.0,-2.3595,-2.352,-2.343,-2.343,-2.3325,-2.3101,-2.2628,-2.2418,-2.2029,-2.0927,-2.0598,-2.0348,-1.9813,-1.9708,-1.9708,-1.9708,-1.9708,-1.9708,-1.9708,-1.9708,-1.9708,-1.9708,-1.9708,-1.9708,-1.9708,-1.9708,-1.9648,-1.9528,-1.8897,-1.8446,-1.8311,-1.7071,-1.6025,-1.5339,-1.4858,-1.4548,-1.4411,-1.3999,-1.3772,-1.3706,-1.3706,-1.3987,-1.4478,-1.3271,-1.2825,0.0,0.0,0.0,0.0,0.0,0.0,0.0,0.0,0.0,0.0,0.0,-1.5003,-1.7,0.0,-1.8688,-2.016,-2.0841,-2.144,-2.2119,-2.2493,-2.2583,-2.2239,-2.2458,-2.2772,-2.3122,-2.3445,-2.3789,-2.4066,-2.4418,-2.4762,-2.5068,-2.5098,-2.5247,-2.56,-2.5615,-2.5764,-2.6093,-2.6093,-2.6273,-2.6587,-2.6587,-2.6587,-2.6587,-2.6587,-2.6767,-2.7106,-2.7106,-2.7285,-2.757,-2.724,-2.6911,-2.6587,-2.6587,-2.5989,-2.5098,-2.5098,-2.4874,-2.4597,-2.4597,-2.4597,-2.4552,-2.4201,-2.4096,-2.4044,-2.3699,-2.3595,-2.3595,-2.3595,-2.3595,-2.3595,-2.3595,-2.3595,-2.352,-2.3227,-2.2927,-2.2523,-2.1844,-2.1171,-2.0598,-2.0273,-1.9929,-1.9708,-1.9708,-1.9708,-1.9708,-1.9708,-1.9708,-1.9708,-1.9708,-1.9708,-1.9708,-1.9708,-1.9708,-1.9708,-1.9708,-1.9091,-1.8568,-1.8222,-1.7563,-1.7071,-1.6757,-1.6428,-1.6263,-1.6263,-1.5591,-1.5426,-1.5755,-1.5412,-1.5606,-1.6234,-1.5743,-1.5315,0.0,0.0,0.0,0.0,0.0,0.0,0.0,-1.3984,-1.4236,-1.6201,-1.6516,-1.7082,-1.9216,-1.9612,-2.0122,-2.164,-2.1889,-2.2134,-2.2778,-2.2882,-2.2882,-2.2882,-2.3295,-2.3655,-2.3789,-2.4276,-2.4649,-2.4784,-2.5292,-2.5674,-2.5794,-2.5794,-2.5854,-2.5989,-2.5989,-2.6243,-2.6806,-2.6782,-2.7076,-2.76,-2.76,-2.76,-2.76,-2.76,-2.76,-2.76,-2.76,-2.76,-2.76,-2.76,-2.76,-2.76,-2.76,-2.6941,-2.5974,-2.5839,-2.5719,-2.5615,-2.5615,-2.5615,-2.5501,-2.4963,-2.4799,-2.4694,-2.4163,-2.3909,-2.3789,-2.3789,-2.3699,-2.3595,-2.3595,-2.3595,-2.3595,-2.3595,-2.3242,-2.2838,-2.2718,-2.1844,-2.1002,-2.0748,-2.0258,-1.9839,-1.9723,-1.9708,-1.9708,-1.9708,-1.9708,-1.9708,-1.9708,-1.9708,-1.9708,-1.9708,-1.9708,-1.9708,-1.9708,-1.9196,-1.8672,-1.8117,-1.7968,-1.7893,-1.7893,-1.7773,-1.7713,-1.7713,-1.7174,-1.716,-1.7713,-1.716,-1.7174,-1.7713,-1.7713,-1.7413,-1.3884,-1.3714,-1.4027,-1.4848,-1.4759,-1.5298,0.0,-1.7482,-1.6863,-1.9583,-1.9758,-1.9836,-2.1149,-2.1411,-2.167,-2.2463,-2.2583,-2.2808,-2.3415,-2.349,-2.349,-2.349,-2.355,-2.3834,-2.4425,-2.456,-2.4844,-2.545,-2.557,-2.5869,-2.6452,-2.6482,-2.6752,-2.736,-2.7375,-2.7405,-2.748,-2.748,-2.7525,-2.76,-2.76,-2.76,-2.76,-2.76,-2.76,-2.76,-2.76,-2.76,-2.76,-2.76,-2.76,-2.76,-2.76,-2.751,-2.73,-2.6692,-2.6108,-2.5615,-2.5615,-2.5615,-2.56,-2.5501,-2.5495,-2.5457,-2.5405,-2.4948,-2.4485,-2.4485,-2.4073,-2.3595,-2.3595,-2.3595,-2.3595,-2.3595,-2.355,-2.334,-2.2823,-2.2583,-2.2134,-2.0932,-2.0643,-2.0408,-1.9813,-1.9708,-1.9708,-1.9708,-1.9708,-1.9708,-1.9708,-1.9708,-1.9708,-1.9708,-1.9708,-1.9708,-1.9708,-1.9633,-1.9558,-1.9483,-1.8912,-1.8597,-1.8597,-1.8012,-1.7713,-1.7713,-1.7639,-1.7639,-1.7713,-1.7608,-1.7639,-1.7713,-1.7713,-1.7652,-1.684,-1.6338,-1.6048,-1.7073,-1.7484,-1.8008,-1.94,-1.9306,-1.9394,-2.0959,-2.1104,-2.1232,-2.2123,-2.2283,-2.2493,0.0,-2.355,-2.3887,-2.4141,-2.4171,-2.4171,-2.4171,-2.3849,-2.3864,-2.453,-2.4948,-2.5457,-2.6138,-2.6527,-2.6896,-2.7165,-2.718,-2.7315,-2.7585,-2.76,-2.76,-2.76,-2.76,-2.76,-2.76,-2.76,-2.76,-2.76,-2.76,-2.76,-2.76,-2.76,-2.76,-2.76,-2.76,-2.76,-2.76,-2.76,-2.76,-2.757,-2.7285,-2.7001,-2.6752,-2.6752,-2.6752,-2.6692,-2.6303,-2.6183,-2.6108,-2.5719,-2.5397,-2.5098,-2.4709,-2.4395,-2.4081,-2.3699,-2.3595,-2.3595,-2.3595,-2.3595,-2.3535,-2.3287,-2.2957,-2.2418,-2.147,-2.0976,-2.0498,-1.9828,-1.9708,-1.9708,-1.9708,-1.9708,-1.9708,-1.9708,-1.9708,-1.9708,-1.9708,-1.9708,-1.9708,-1.9708,-1.9708,-1.9708,-1.9708,-1.9453,-1.9271,-1.9271,-1.9016,-1.8867,-1.8867,-1.8493,-1.8461,-1.8867,-1.8461,-1.8476,-1.8867,-1.8867,-1.8867,-1.8528,-1.8349,-1.8253,-1.8827,-1.9615,-2.0262,-2.0262,-2.0632,-2.1171,-2.1829,-2.1984,-2.2179,-2.2838,-2.2957,-2.3152,-2.3774,-2.4276,-2.4664,-2.4844,-2.4724,-2.4605,-2.4605,-2.4007,-2.3939,-2.4784,-2.5307,-2.5959,-2.6821,-2.733,-2.76,-2.76,-2.76,-2.76,-2.76,-2.76,-2.76,-2.76,-2.76,-2.769,-2.7884,-2.7884,-2.7884,-2.7869,-2.769,-2.76,-2.76,-2.76,-2.76,-2.76,-2.76,-2.76,-2.76,-2.76,-2.76,-2.76,-2.76,-2.76,-2.76,-2.76,-2.76,-2.7525,-2.7046,-2.6881,-2.6806,-2.6303,-2.6019,-2.5779,-2.5277,-2.4889,-2.4485,-2.4014,-2.3744,-2.3595,-2.3595,-2.3595,-2.3595,-2.3595,-2.3272,-2.2763,-2.2104,-2.144,-2.0767,-2.0094,-1.9828,-1.9708,-1.9708,-1.9708,-1.9708,-1.9708,-1.9708,-1.9708,-1.9708,-1.9708,-1.9708,-1.9708,-1.9708,-1.9708,-1.9708,-1.9708,-1.9708,-1.9708,-1.9708,-1.9708,-1.9708,-1.9211,-1.9211,-1.9708,-1.9211,-1.9226,-1.9708,-1.9708,-1.9708,-1.8085,-1.9131,-2.0449,-1.9809,-2.0647,-2.1635,-2.1635,-2.165,-2.1859,-2.2538,-2.2673,-2.2853,-2.346,-2.3565,-2.3789,-2.4455,-2.459,-2.4829,-2.5495,-2.5008,-2.4605,-2.4605,-2.4007,-2.4118,0.0,-2.56,-2.6153,-2.7465,-2.7585,-2.76,-2.76,-2.76,-2.76,-2.76,-2.76,-2.76,-2.76,-2.76,-2.7929,-2.8562,-2.8562,-2.8562,-2.8547,-2.7899,-2.76,-2.76,-2.76,-2.76,-2.76,-2.76,-2.76,-2.76,-2.76,-2.76,-2.76,-2.76,-2.76,-2.76,-2.76,-2.76,-2.76,-2.757,-2.757,-2.757,-2.754,-2.7091,-2.6581,-2.6542,-2.5615,-2.4605,-2.4575,-2.4081,-2.3595,-2.3595,-2.3595,-2.3595,-2.3595,-2.3595,-2.3385,-2.2793,-2.2134,-2.1455,-2.0778,-2.0124,-1.9708,-1.9708,-1.9708,-1.9708,-1.9708,-1.9708,-1.9708,-1.9708,-1.9708,-1.9708,-1.9708,-1.9708,-1.9708,-1.9708,-1.9708,-1.9708,-1.9708,-1.9708,-1.9708,-1.9708,-1.9678,-1.9678,-1.9708,-1.9678,-1.9678,-1.9708,-1.9708,-1.9708,-1.9447,-1.9869,-2.0198,-2.0857,-2.1699,-2.2358,-2.2358,-2.2667,-2.3011,-2.3236,-2.2987,-2.2763,-2.2972,-2.3002,-2.3212,-2.3834,-2.4679,-2.551,-2.6168,-2.6078,-2.5764,-2.5307,-2.5076,0.0,0.0,0.0,0.0,-2.7495,-2.76,-2.76,-2.76,-2.76,-2.7809,-2.8233,-2.8248,-2.8498,-2.8918,-2.8933,-2.9052,-2.925,-2.925,-2.9026,-2.8592,-2.8368,-2.8034,-2.76,-2.76,-2.76,-2.76,-2.76,-2.76,-2.76,-2.76,-2.76,-2.76,-2.76,-2.76,-2.76,-2.76,-2.76,-2.76,-2.76,-2.76,-2.76,-2.76,-2.7435,-2.718,-2.6746,-2.6273,-2.5734,-2.4829,-2.4425,-2.4141,-2.3714,-2.3595,-2.3595,-2.3595,-2.3595,-2.3415,-2.2823,-2.2523,-2.2164,-2.1485,-2.1171,-2.0872,-2.0438,-1.9974,-1.9708,-1.9708,-1.9708,-1.9708,-1.9708,-1.9708,-1.9708,-1.9708,-1.9708,-1.9708,-1.9708,-1.9708,-1.9708,-1.9708,-1.9708,-1.9708,-1.9708,-1.9708,-1.9708,-1.9708,-1.9708,-1.9708,-1.9708,-1.9708,-1.9708,-2.0344,-2.0737,-2.0981,-2.1849,-2.2553,-2.3032,-2.3032,-2.331,-2.3535,-2.331,-2.2972,-2.2628,-2.2388,-2.2343,-2.2703,-2.3789,-2.4679,-2.5636,-2.6806,-2.6761,-2.6437,-2.6019,-2.5749,-2.5704,0.0,0.0,0.0,-2.751,-2.76,-2.7705,-2.7944,-2.7959,-2.8248,-2.8936,-2.8951,-2.9146,-2.9606,-2.9606,-2.9726,-2.9909,-2.9909,-2.9699,-2.928,-2.9056,-2.8738,-2.8304,-2.8064,-2.7959,-2.7944,-2.7705,-2.76,-2.76,-2.76,-2.76,-2.76,-2.76,-2.76,-2.76,-2.76,-2.76,-2.76,-2.76,-2.76,-2.76,-2.76,-2.76,-2.751,-2.7091,-2.6767,-2.6393,-2.5555,-2.4963,-2.4485,-2.4073,-2.3774,-2.3595,-2.3595,-2.3595,-2.349,-2.3107,-2.2853,-2.2568,-2.2113,-2.1859,-2.1545,-2.1126,-2.0483,-1.9959,-1.9738,-1.9708,-1.9708,-1.9708,-1.9708,-1.9708,-1.9708,-1.9708,-1.9708,-1.9708,-1.9708,-1.9708,-1.9708,-1.9708,-1.9708,-1.9708,-1.9708,-1.9708,-1.9708,-1.9708,-1.9708,-1.9708,-1.9708,-1.9708,-2.0763,-2.1724,-2.2703,-2.2733,-2.3182,-2.3595,-2.3595,-2.358,-2.3385,-2.2823,-2.2643,-2.2403,0.0,0.0,-2.2338,-2.4246,-2.4605,-2.5337,-2.733,-2.7061,-2.6632,0.0,0.0,0.0,0.0,0.0,0.0,-2.7645,0.0,-2.7944,-2.8562,-2.8637,-2.8951,-2.9636,-2.9651,-2.9666,-2.9711,-2.9711,-2.9968,-3.0552,-3.0552,-3.0537,-3.0477,-2.9894,-2.9636,-2.9577,-2.8921,-2.8652,-2.8607,-2.7959,-2.7705,-2.7705,-2.7705,-2.7675,-2.766,-2.769,-2.766,-2.76,-2.7645,-2.763,-2.76,-2.76,-2.76,-2.76,-2.76,-2.76,-2.76,-2.76,-2.7151,-2.6632,-2.6602,-2.5659,-2.4694,-2.4619,-2.4096,-2.364,-2.361,-2.3595,-2.3595,-2.3595,-2.3152,-2.2748,-2.2748,-2.2173,-2.1739,-2.1739,-2.1186,-2.0513,-1.9842,-1.9723,-1.9708,-1.9708,-1.9708,-1.9708,-1.9708,-1.9708,-1.9708,-1.9708,-1.9708,-1.9708,-1.9708,-1.9708,-1.9708,-1.9708,-1.9708,-1.9708,-1.9708,-1.9708,-1.9708,-1.9708,-1.9708,-1.9708,-2.1789,-2.2448,-2.2808,-2.3251,-2.349,-2.3595,-2.3595,-2.3236,-2.2897,-2.2733,-2.1924,-2.1171,-2.0991,-2.1365,-2.2173,-2.3625,-2.4702,0.0,-2.739,-2.745,0.0,-2.6647,0.0,-2.7165,-2.733,-2.7809,0.0,0.0,-2.8622,-2.8412,-2.8592,-2.9071,-2.9624,-3.0253,-3.0268,-3.0507,-3.1002,-3.1017,-3.1092,-3.1241,-3.1241,-3.0972,-3.0492,-3.0342,-3.0028,-2.9592,-2.94,-2.9367,-2.9337,-2.9172,-2.9097,-2.9097,-2.9097,-2.8798,-2.8397,-2.8918,-2.8468,-2.766,-2.8184,-2.8034,-2.76,-2.76,-2.76,-2.76,-2.76,-2.76,-2.76,-2.76,-2.748,-2.7225,-2.6746,-2.6348,-2.5839,-2.4844,-2.447,-2.4201,-2.3714,-2.3595,-2.3595,-2.3595,-2.3475,-2.337,-2.337,-2.2868,-2.2448,-2.2448,-2.1859,-2.1201,-2.0543,-2.0004,-1.9708,-1.9708,-1.9708,-1.9708,-1.9708,-1.9708,-1.9708,-1.9708,-1.9708,-1.9708,-1.9708,-1.9708,-1.9708,-1.9708,-1.9708,-1.9708,-1.9708,-1.9708,-1.9708,-1.9708,-1.9708,-1.9708,-2.2718,-2.3295,-2.3625,-2.3947,-2.4044,-2.3894,-2.3325,-2.2942,-2.2538,-2.1934,-2.1231,-2.0598,-2.0318,-2.0812,-2.1695,-2.2981,0.0,0.0,-2.6986,-2.7405,-2.757,0.0,-2.7799,0.0,-2.8453,-2.8828,-2.919,0.0,-2.9235,-2.9146,-2.9415,-2.9789,-3.0283,-3.0913,-3.0956,-3.1122,-3.1511,-3.1511,-3.1511,-3.1511,-3.1511,-3.1301,-3.0956,-3.0956,-3.0761,-3.0417,0.0,-2.9983,-2.9968,-2.9726,-2.9606,-2.9606,-2.9606,-2.9355,-2.9041,-2.9116,-2.8667,-2.8064,-2.8113,-2.7914,-2.76,-2.76,-2.76,-2.76,-2.76,-2.76,-2.76,-2.76,-2.76,-2.751,-2.7151,-2.6811,-2.6333,-2.5277,-2.4814,-2.441,-2.3744,-2.3595,-2.3595,-2.3595,-2.3595,-2.3595,-2.3595,-2.331,-2.3092,-2.3092,-2.2553,-2.1994,-2.162,-2.0737,-2.0139,-2.0139,-1.9887,-1.9708,-1.9708,-1.9708,-1.9708,-1.9708,-1.9708,-1.9708,-1.9708,-1.9708,-1.9708,-1.9708,-1.9708,-1.9708,-1.9708,-1.9708,-1.9708,-1.9708,-1.9708,-1.9708,-2.3565,-2.4216,-2.4709,-2.4634,-2.4605,-2.4261,-2.3002,-2.2628,-2.2224,-2.0957,-2.0628,-2.0393,-1.9813,-2.0243,-2.1141,-2.2478,0.0,-2.4963,-2.6393,-2.7106,-2.775,-2.8502,-2.8607,-2.8891,-2.9666,-2.9726,-2.9771,-2.9834,-2.9849,-3.0028,-3.0477,-3.0597,-3.0883,-3.1481,-3.1511,-3.1511,-3.1511,-3.1511,-3.1511,-3.1511,-3.1511,-3.1511,-3.1511,-3.1511,-3.1511,-3.1466,-3.0883,0.0,-3.0597,-3.0058,-2.9849,-2.9849,-2.9849,-2.9789,-2.9666,-2.916,-2.8876,-2.8652,-2.8079,-2.7809,-2.772,-2.763,-2.76,-2.76,-2.76,-2.76,-2.76,-2.76,-2.76,-2.76,-2.76,-2.7165,-2.6557,-2.5899,-2.5277,-2.4679,-2.4014,-2.3804,-2.3714,-2.3625,-2.3595,-2.3595,-2.3595,-2.3595,-2.3595,-2.3595,-2.3152,-2.2823,-2.2823,-2.1665,-2.0823,-2.0823,-2.0228,-1.9842,-1.9842,-1.9753,-1.9708,-1.9708,-1.9708,-1.9708,-1.9708,-1.9708,-1.9708,-1.9708,-1.9708,-1.9708,-1.9708,-1.9708,-1.9708,-1.9708,-1.9708,-1.9708,-2.4246,-2.4918,-2.5277,-2.4739,-2.4605,-2.4261,-2.3002,-2.2283,-2.165,-2.0853,-2.0258,-1.9842,-1.9723,-2.0243,-2.1141,-2.2478,-2.3295,-2.4433,-2.6318,-2.6692,-2.7215,0.0,-2.8607,-2.9056,-3.0238,-3.0342,0.0,0.0,0.0,-3.0957,-3.0522,-3.1017,-3.1376,-3.1511,-3.1511,-3.1511,-3.1511,-3.1511,-3.1511,-3.1511,-3.1511,-3.1511,-3.1511,-3.1511,-3.1511,-3.1496,-3.1376,0.0,-3.1316,-3.1212,-3.1167,-3.1167,-3.1167,-3.0823,-3.0402,-3.0838,-3.0342,-2.9427,-2.9292,-2.8903,-2.8323,-2.7779,-2.76,-2.76,-2.76,-2.76,-2.76,-2.76,-2.76,-2.76,-2.76,-2.751,-2.727,-2.6572,-2.6333,-2.6063,-2.5405,-2.4814,-2.4261,-2.3714,-2.3595,-2.3595,-2.3595,-2.3595,-2.3595,-2.3595,-2.3505,-2.343,-2.343,-2.2323,-2.153,-2.153,-2.0932,-2.0543,-2.0543,-2.0019,-1.9708,-1.9708,-1.9708,-1.9708,-1.9708,-1.9708,-1.9708,-1.9708,-1.9708,-1.9708,-1.9708,-1.9708,-1.9708,-1.9708,-1.9708,-1.9708,-2.4933,-2.5615,-2.5959,-2.5277,-2.4859,-2.4171,-2.2547,-2.1665,-2.0991,-2.0318,-1.9914,-1.9708,-1.9708,-2.0243,-2.0897,-2.1545,-2.2493,-2.3684,-2.533,-2.5869,-2.6841,-2.8861,-2.9116,-2.9624,-3.0883,-3.1017,-3.1152,0.0,0.0,-3.1361,-3.1032,-3.1331,-3.1511,-3.1511,-3.1511,-3.1511,-3.1511,-3.1511,-3.1511,-3.1511,-3.1511,-3.1511,-3.1511,-3.1511,-3.1511,-3.1511,-3.1511,0.0,-3.1511,-3.1511,-3.1511,-3.1511,-3.1511,-3.1301,-3.1017,-3.0972,-3.0597,-2.9968,-2.931,-2.8861,-2.8487,-2.7824,-2.76,-2.76,-2.76,-2.76,-2.76,-2.76,-2.76,-2.76,-2.76,-2.76,-2.742,-2.6752,-2.6333,-2.5989,-2.5674,-2.5068,-2.45,-2.4171,-2.3849,-2.3595,-2.3595,-2.3595,-2.3595,-2.3595,-2.3595,-2.3595,-2.3595,-2.3071,-2.2562,-2.2233,-2.162,-2.1231,-2.1231,-2.0617,-2.0228,-2.0228,-1.9902,-1.9708,-1.9708,-1.9708,-1.9708,-1.9708,-1.9708,-1.9708,-1.9708,-1.9708,-1.9708,-1.9708,-1.9708,-1.9708,-2.5367,-2.6093,-2.6437,-2.5779,-2.5098,-2.4096,-2.2143,-2.1186,-2.0494,-1.9842,-1.9708,-1.9708,-1.9708,-2.0124,-2.0524,-2.0673,-2.1695,-2.2966,-2.4395,-2.5173,-2.6602,-2.9292,-2.9606,0.0,-3.1376,-3.1511,0.0,0.0,0.0,0.0,-3.1511,-3.1511,-3.1511,-3.1511,-3.1511,-3.1511,-3.1511,-3.1511,-3.1511,-3.1511,-3.1511,-3.1511,-3.1511,-3.1511,-3.1511,-3.1511,-3.1511,0.0,0.0,-3.1511,-3.1511,-3.1511,-3.1511,-3.1511,-3.1436,-3.0898,-3.0627,-3.0342,-2.9205,-2.8727,-2.8487,-2.7824,-2.76,-2.76,-2.76,-2.76,-2.76,-2.76,-2.76,-2.76,-2.76,-2.76,-2.7465,-2.6941,-2.6408,-2.5989,-2.5854,-2.5397,-2.4993,-2.4844,-2.4261,-2.3819,-2.3819,-2.3699,-2.3595,-2.3595,-2.3595,-2.3595,-2.3595,-2.3595,-2.3415,-2.2942,-2.2313,-2.1904,-2.1904,-2.1306,-2.0897,-2.0897,-2.0423,-2.0067,-1.9914,-1.9899,-1.9857,-1.9708,-1.9708,-1.9708,-1.9708,-1.9708,-1.9708,-1.9708,-1.9708,-1.9708,-2.5255,-2.6093,-2.6437,-2.5779,-2.5098,-2.4096,-2.2143,-2.1186,-2.0494,-1.9842,-1.9708,-1.9708,-1.9708,-1.9753,-1.9989,-2.0598,-2.1321,-2.2458,-2.4335,-2.5173,-2.6602,-2.9292,0.0,0.0,-3.1376,-3.1511,0.0,0.0,0.0,0.0,-3.1511,-3.1511,-3.1511,-3.1511,-3.1511,-3.1511,-3.1511,-3.1511,-3.1511,-3.1511,-3.1511,-3.1511,-3.1511,-3.1511,-3.1511,-3.1511,-3.1511,0.0,0.0,-3.1511,-3.1511,-3.1511,-3.1511,-3.1511,-3.1496,-3.1436,-3.1017,-3.0402,-2.9729,-2.9101,-2.8487,-2.7824,-2.76,-2.76,-2.76,-2.76,-2.76,-2.76,-2.76,-2.76,-2.76,-2.76,-2.7585,-2.7525,-2.7465,-2.7255,-2.6632,-2.6452,-2.6243,-2.563,-2.4963,-2.4515,-2.4515,-2.4014,-2.3595,-2.3595,-2.3595,-2.3595,-2.3595,-2.3595,-2.358,-2.352,-2.2972,-2.2613,-2.2613,-2.1999,-2.1605,-2.1605,-2.1545,-2.1246,-2.0628,-2.0598,-2.0318,-1.9708,-1.9708,-1.9708,-1.9708,-1.9708,-1.9708,-1.9708,-1.9708,-1.9708,-2.4739,-2.5495,-2.5839,-2.5158,-2.4223,-2.3146,-2.1964,-2.0857,-2.0019,-1.9768,-1.9708,-1.9708,-1.9708,-1.9708,-1.9798,-2.0049,-2.0318,-2.1036,-2.2637,-2.343,-2.4971,-2.8034,-2.8742,0.0,0.0,0.0,0.0,0.0,0.0,0.0,-3.1511,-3.1511,-3.1511,-3.1511,-3.1511,-3.1511,-3.1511,-3.1511,-3.1511,-3.1511,-3.1511,-3.1511,-3.1511,-3.1511,-3.1511,-3.1511,-3.1511,0.0,0.0,-3.1511,-3.1511,-3.1511,-3.1511,-3.1511,-3.1511,-3.1511,-3.1077,-3.0417,-2.9804,-2.9146,-2.8487,-2.7824,-2.76,-2.76,-2.76,-2.76,-2.76,-2.76,-2.76,-2.76,-2.76,-2.76,-2.76,-2.76,-2.76,-2.7525,-2.727,-2.6896,-2.6512,-2.6243,-2.5674,-2.5187,-2.5187,-2.4634,-2.4201,-2.4201,-2.3864,-2.3595,-2.3595,-2.3595,-2.3595,-2.3595,-2.3385,-2.3236,-2.3236,-2.2673,-2.2298,-2.2298,-2.1919,-2.1575,-2.1321,-2.1306,-2.0991,-2.0318,-2.0303,-2.0094,-1.9708,-1.9708,-1.9708,-1.9708,-1.9708,-1.9708,-2.4066,-2.4784,-2.5187,-2.4724,-2.364,-2.2523,-2.1844,-2.0647,-1.9708,-1.9708,-1.9708,-1.9708,-1.9708,-1.9708,-1.9708,-1.9708,-1.9872,-2.0453,-2.1819,-2.2568,-2.4051,-2.6956,0.0,-2.8786,0.0,0.0,0.0,0.0,0.0,0.0,-3.1511,-3.1511,-3.1511,-3.1511,-3.1511,-3.1511,-3.1511,-3.1511,-3.1511,-3.1511,-3.1511,-3.1511,-3.1511,-3.1511,-3.1511,-3.1511,-3.1511,0.0,0.0,-3.1511,-3.1511,-3.1511,-3.1511,-3.1511,-3.1511,-3.1511,-3.1077,-3.0417,-2.9804,-2.9146,-2.8487,-2.7824,-2.76,-2.76,-2.76,-2.76,-2.76,-2.76,-2.76,-2.76,-2.76,-2.76,-2.76,-2.76,-2.76,-2.76,-2.76,-2.7225,-2.6911,-2.6911,-2.6348,-2.5899,-2.5899,-2.5337,-2.4903,-2.4903,-2.4321,-2.3909,-2.3909,-2.3729,-2.3595,-2.3595,-2.3595,-2.3595,-2.3595,-2.3212,-2.2972,-2.2972,-2.2517,-2.2173,-2.1994,-2.1994,-2.168,-2.1002,-2.1006,-2.0767,-2.0292,-2.0292,-2.0292,-2.0292,-2.0292,-2.0292,-2.3266,-2.4096,-2.4619,-2.4605,-2.364,-2.2523,-2.1844,-2.0647,-1.9708,-1.9708,-1.9708,-1.9708,-1.9708,-1.9708,-1.9708,-1.9708,-2.0258,-2.1171,-2.2508,-2.3212,-2.4343,0.0,0.0,-2.7395,-2.94,0.0,0.0,0.0,0.0,0.0,-3.1511,-3.1511,-3.1511,-3.1511,-3.1511,-3.1511,-3.1511,-3.1511,-3.1511,-3.1511,-3.1511,-3.1511,-3.1511,-3.1511,-3.1511,0.0,0.0,0.0,0.0,-3.1511,-3.1511,-3.1511,-3.1511,-3.1511,-3.1511,-3.1511,-3.1077,-3.0417,-2.9804,-2.9146,-2.8487,-2.7824,-2.76,-2.76,-2.76,-2.76,-2.76,-2.76,-2.76,-2.76,-2.76,-2.76,-2.76,-2.76,-2.76,-2.76,-2.76,-2.7585,-2.7585,-2.7585,-2.7061,-2.6572,-2.6572,-2.6033,-2.56,-2.56,-2.5008,-2.459,-2.459,-2.4007,-2.3595,-2.3595,-2.3595,-2.3595,-2.3595,-2.3595,-2.3595,-2.3595,-2.358,-2.331,-2.2703,-2.2688,-2.2373,-2.1695,-2.168,-2.168,-2.168,-2.168,-2.168,-2.168,-2.168,-2.168,-2.2069,-2.2458,-2.2622,-2.2622,-2.1979,-2.1276,-2.1066,-2.0333,-1.9708,-1.9708,-1.9708,-1.9708,-1.9708,-1.9708,-1.9839,-2.0318,-2.0554,-2.1002,0.0,0.0,0.0,-2.6348,-2.8592,-3.0195,0.0,0.0,0.0,0.0,0.0,0.0,-3.1511,-3.1511,-3.1511,-3.1511,-3.1511,-3.1511,-3.1511,-3.1511,-3.1511,-3.1511,-3.1511,-3.1511,-3.1511,-3.1511,-3.1511,0.0,0.0,0.0,0.0,-3.1511,-3.1511,-3.1511,-3.1511,-3.1511,-3.1511,-3.1511,-3.0793,-2.9849,-2.9681,-2.8873,-2.7884,-2.766,-2.76,-2.76,-2.76,-2.76,-2.76,-2.76,-2.76,-2.76,-2.76,-2.76,-2.76,-2.76,-2.76,-2.76,-2.76,-2.76,-2.76,-2.76,-2.742,-2.7285,-2.7285,-2.6746,-2.6273,-2.6273,-2.5719,-2.5277,-2.5277,-2.4694,-2.4276,-2.4276,-2.3879,-2.3595,-2.3595,-2.3595,-2.3595,-2.3595,-2.3595,-2.3505,-2.331,-2.331,-2.3032,-2.2403,-2.2388,-2.2164,-2.1695,-2.1695,-2.1695,-2.1695,-2.1695,-2.1695,-2.1006,-2.1515,-2.1695,-2.1695,-2.1201,-2.0703,-2.0703,-2.0183,-1.9708,-1.9708,-1.9708,-1.9708,-1.9708,-1.9708,-1.9842,-2.0258,-2.0318,-2.0647,0.0,0.0,0.0,-2.6318,0.0,0.0,0.0,0.0,0.0,0.0,0.0,0.0,-3.1511,-3.1511,-3.1511,-3.1511,-3.1511,-3.1511,-3.1511,-3.1511,-3.1511,-3.1511,-3.1511,-3.1511,-3.1511,-3.1511,-3.1511,0.0,0.0,0.0,0.0,-3.1511,-3.1511,-3.1511,-3.1511,-3.1346,-3.1122,-3.1122,-3.0477,-2.9577,-2.9295,-2.8693,-2.7944,-2.7675,-2.76,-2.76,-2.76,-2.76,-2.76,-2.76,-2.76,-2.76,-2.76,-2.76,-2.76,-2.76,-2.76,-2.76,-2.76,-2.76,-2.76,-2.76,-2.76,-2.76,-2.76,-2.7255,-2.6986,-2.6986,-2.6408,-2.5974,-2.5974,-2.5382,-2.4978,-2.4978,-2.459,-2.4253,-2.4014,-2.3744,-2.3595,-2.3595,-2.3595,-2.3595,-2.3595,-2.3595,-2.3415,-2.3062,-2.3047,-2.2817,-2.2413,-2.2413,-2.2413,-2.2413,-2.2413,-2.2413,0.0,-2.0927,-2.141,-2.1371,-2.0972,-2.0554,-2.0554,-2.0109,0.0,-1.9708,-1.9708,-1.9708,-1.9708,-1.9708,-1.9723,-1.9768,-1.9813,-2.0292,0.0,-2.2508,0.0,0.0,-2.8558,0.0,0.0,0.0,0.0,0.0,0.0,0.0,-3.1511,-3.1511,-3.1511,-3.1511,-3.1511,-3.1511,-3.1511,-3.1511,-3.1511,-3.1511,-3.1511,-3.1511,-3.1511,-3.1511,-3.1511,0.0,0.0,0.0,0.0,-3.1511,-3.1511,-3.1511,-3.1451,-3.1032,-3.0492,-3.0447,-3.0043,-2.9457,-2.8816,-2.8562,-2.8427,-2.7809,-2.76,-2.76,-2.76,-2.76,-2.76,-2.76,-2.76,-2.76,-2.76,-2.76,-2.76,-2.76,-2.76,-2.76,-2.76,-2.76,-2.76,-2.76,-2.76,-2.76,-2.76,-2.76,-2.76,-2.76,-2.7076,-2.6662,-2.6662,-2.6093,-2.5674,-2.5674,-2.563,-2.5337,-2.4724,-2.4073,-2.3655,-2.3595,-2.3595,-2.3595,-2.3595,-2.3595,-2.3595,-2.3595,-2.3595,-2.3595,-2.3595,-2.3595,-2.3595,-2.3595,-2.3595,-2.3595,-1.7594,0.0,-1.8572,-1.8265,-1.867,-1.9181,0.0,-1.9435,-1.9708,-1.9708,-1.9708,-1.9708,-1.9708,-1.9708,-1.9872,-2.0378,-2.0902,-2.1515,-2.2358,0.0,0.0,-2.8708,-3.0178,0.0,0.0,0.0,0.0,0.0,0.0,-3.1511,-3.1511,-3.1511,-3.1511,-3.1511,-3.1511,-3.1511,-3.1511,-3.1511,-3.1511,-3.1511,-3.1511,-3.1511,-3.1511,-3.1511,-3.1511,0.0,0.0,0.0,-3.1511,-3.1511,-3.1511,-3.1451,-3.0956,-3.0642,-3.0447,-2.9968,-2.9385,-2.8801,-2.8652,-2.8248,-2.7809,-2.7645,-2.76,-2.76,-2.76,-2.76,-2.76,-2.76,-2.76,-2.76,-2.76,-2.76,-2.76,-2.76,-2.76,-2.76,-2.76,-2.76,-2.76,-2.76,-2.76,-2.76,-2.76,-2.76,-2.76,-2.76,-2.7465,-2.736,-2.736,-2.6791,-2.6363,-2.6363,-2.5914,-2.5555,-2.5367,-2.4754,-2.4141,-2.3625,-2.3595,-2.3595,-2.3595,-2.3595,-2.3595,-2.3595,-2.3595,-2.3595,-2.3595,-2.3595,-2.3595,-2.3595,-2.3595,-2.3595,-1.575,-1.6874,-1.7829,-1.7609,-1.8128,-1.8777,-1.9091,-1.9196,-1.9333,-1.9648,-1.9708,-1.9708,-1.9708,-1.9708,-1.9914,-2.0583,-2.1006,0.0,0.0,0.0,-2.8453,-2.9487,0.0,0.0,0.0,0.0,0.0,0.0,0.0,-3.1511,-3.1511,-3.1511,-3.1511,-3.1511,-3.1511,-3.1511,-3.1511,-3.1511,-3.1511,-3.1511,-3.1511,-3.1511,-3.1511,-3.1511,-3.1511,0.0,0.0,0.0,-3.1511,-3.1511,-3.1511,-3.1436,-3.0748,-3.0328,-2.9998,-2.937,-2.8738,-2.8128,-2.8128,-2.7899,-2.76,-2.76,-2.76,-2.76,-2.76,-2.76,-2.76,-2.76,-2.76,-2.76,-2.76,-2.76,-2.76,-2.76,-2.76,-2.76,-2.76,-2.76,-2.76,-2.76,-2.76,-2.76,-2.76,-2.76,-2.76,-2.76,-2.76,-2.76,-2.76,-2.7285,-2.7061,-2.7061,-2.6722,-2.6378,-2.6078,-2.5734,-2.5106,-2.4133,-2.4073,-2.3924,-2.361,-2.3595,-2.3595,-2.3595,-2.3595,-2.3595,-2.3595,-2.3595,-2.3595,-2.3595,-2.3595,-2.3595,-1.458,-1.6219,-1.7852,-1.7803,-1.8263,-1.8852,-1.9423,-1.9181,-1.9016,-1.9588,-1.9708,-1.9708,-1.9708,-1.9765,-2.0064,-2.0733,0.0,0.0,-2.4694,-2.7111,-2.8876,-2.9666,0.0,0.0,0.0,0.0,0.0,0.0,0.0,-3.1511,-3.1511,-3.1511,-3.1511,-3.1511,-3.1511,-3.1511,-3.1511,-3.1511,-3.1511,-3.1511,-3.1511,-3.1511,-3.1511,-3.1511,-3.1511,-3.1511,0.0,0.0,-3.1511,-3.1511,-3.1511,-3.1421,-3.0672,-3.0043,-2.9517,-2.8727,-2.8094,-2.76,-2.76,-2.76,-2.76,-2.76,-2.76,-2.76,-2.76,-2.76,-2.76,-2.76,-2.76,-2.76,-2.76,-2.76,-2.76,-2.76,-2.76,-2.76,-2.76,-2.76,-2.76,-2.76,-2.76,-2.76,-2.76,-2.76,-2.76,-2.76,-2.76,-2.76,-2.76,-2.76,-2.76,-2.76,-2.76,-2.7375,-2.6806,-2.6761,-2.6213,-2.4978,-2.4814,-2.4455,-2.3789,-2.3759,-2.3699,-2.3595,-2.3595,-2.3595,-2.3595,-2.3595,-2.3595,-2.3595,-2.3595,-2.3595,-1.499,-1.603,-1.6694,-1.6455,-1.7552,-1.8732,-1.8837,-1.9211,-1.9588,-1.9678,-1.9708,-1.9708,-1.9708,-2.0168,-2.0782,0.0,0.0,-2.4739,0.0,0.0,-2.9041,0.0,0.0,0.0,0.0,0.0,0.0,0.0,0.0,-3.1511,-3.1511,-3.1511,-3.1511,-3.1511,-3.1511,-3.1511,-3.1511,-3.1511,-3.1511,-3.1511,-3.1511,-3.1511,-3.1511,-3.1511,-3.1511,-3.1511,0.0,-3.1511,-3.1511,-3.1511,-3.1511,-3.1376,-3.0193,-2.9696,-2.9457,-2.8214,-2.769,-2.76,-2.76,-2.76,-2.76,-2.76,-2.76,-2.76,-2.76,-2.76,-2.76,-2.76,-2.76,-2.76,-2.76,-2.76,-2.76,-2.76,-2.76,-2.76,-2.76,-2.76,-2.76,-2.76,-2.76,-2.76,-2.76,-2.76,-2.76,-2.76,-2.76,-2.76,-2.76,-2.76,-2.76,-2.76,-2.76,-2.7555,-2.745,-2.745,-2.7121,-2.6333,-2.5764,-2.5143,-2.447,-2.4455,-2.4171,-2.361,-2.3595,-2.3595,-2.3595,-2.3595,-2.3595,-2.3595,-2.3595,-2.3595,-1.4369,-1.5541,-1.6508,-1.6613,-1.767,-1.8792,-1.9151,-1.9196,-1.9256,-1.9633,-1.9708,-1.9813,-2.0168,0.0,-2.1137,-2.2503,0.0,-2.6004,-2.6941,0.0,0.0,0.0,0.0,0.0,0.0,0.0,0.0,0.0,0.0,0.0,-3.1511,-3.1511,-3.1511,-3.1511,-3.1511,-3.1511,-3.1511,-3.1511,-3.1511,-3.1511,-3.1511,-3.1511,-3.1511,-3.1511,-3.1511,-3.1511,0.0,-3.1511,-3.1511,-3.1511,-3.1511,-3.1376,-3.0103,-2.9606,-2.9442,-2.8094,-2.76,-2.76,-2.76,-2.76,-2.76,-2.76,-2.76,-2.76,-2.76,-2.76,-2.7675,-2.8049,-2.7884,-2.76,-2.76,-2.76,-2.76,-2.76,-2.76,-2.76,-2.76,-2.76,-2.76,-2.76,-2.76,-2.76,-2.76,-2.76,-2.76,-2.76,-2.76,-2.76,-2.76,-2.76,-2.76,-2.76,-2.76,-2.76,-2.76,-2.76,-2.7315,-2.6632,-2.5974,-2.5457,-2.5143,-2.5128,-2.4829,-2.4141,-2.4141,-2.3947,-2.3595,-2.3595,-2.3595,-2.3595,-2.3595,-2.3595,-1.4153,-1.5387,-1.6638,-1.7193,-1.8128,-1.9106,-1.9765,-1.954,-1.9361,-2.0019,-2.0172,-2.0337,-2.0842,-2.1301,0.0,-2.3804,-2.5615,-2.6871,0.0,0.0,0.0,0.0,0.0,0.0,0.0,0.0,0.0,0.0,0.0,0.0,-3.1496,-3.1346,-3.1331,-3.1511,-3.1346,-3.1346,-3.1511,-3.1346,-3.1346,-3.1511,-3.1511,-3.1511,-3.1511,-3.1511,-3.1511,-3.1511,-3.1511,-3.1511,-3.1511,-3.1511,-3.1511,-3.1391,-3.0253,-2.9726,-2.9487,-2.8453,-2.8064,-2.8064,-2.8064,-2.7974,-2.7869,-2.8019,-2.7854,-2.763,-2.7794,-2.7839,-2.7944,-2.8457,-2.8323,-2.8034,-2.7869,-2.7839,-2.7794,-2.763,-2.76,-2.76,-2.76,-2.76,-2.76,-2.76,-2.76,-2.76,-2.76,-2.76,-2.76,-2.76,-2.76,-2.76,-2.76,-2.76,-2.76,-2.76,-2.76,-2.76,-2.76,-2.76,-2.7375,-2.6881,-2.6348,-2.6004,-2.5839,-2.5839,-2.5516,-2.4844,-2.4829,-2.4575,-2.4073,-2.4073,-2.3984,-2.3834,-2.3834,-2.3759,-1.5283,-1.6027,-1.6754,-1.7776,-1.8827,-1.9794,-2.0483,-2.0583,-2.0752,-2.1425,-2.156,-2.156,-2.162,-2.3095,-2.4575,-2.5322,-2.6626,0.0,0.0,0.0,0.0,0.0,0.0,0.0,0.0,0.0,0.0,0.0,0.0,0.0,-3.1466,-3.0898,-3.0866,-3.1481,-3.0883,-3.0881,-3.1496,-3.0896,-3.0868,-3.1511,-3.1511,-3.1511,-3.1511,-3.1511,-3.1511,-3.1511,-3.1511,-3.1511,-3.1511,-3.1511,-3.1511,-3.1436,-3.0717,-3.0088,-2.9592,-2.9502,-2.9472,-2.9472,-2.9472,-2.9041,-2.8622,-2.9235,-2.8618,-2.772,-2.8338,-2.8532,-2.8532,-2.8592,-2.9011,-2.9322,-2.8682,-2.8532,-2.8368,-2.775,-2.76,-2.76,-2.76,-2.76,-2.76,-2.76,-2.76,-2.76,-2.76,-2.76,-2.76,-2.76,-2.76,-2.76,-2.76,-2.76,-2.76,-2.76,-2.76,-2.76,-2.76,-2.76,-2.757,-2.7525,-2.748,-2.718,-2.6542,-2.6512,-2.6213,-2.5555,-2.554,-2.551,-2.5465,-2.5465,-2.5128,-2.453,-2.453,-2.4186,-1.4479,-1.5578,-1.6512,-1.6587,-1.818,-1.9887,-2.0557,-2.1017,-2.1515,-2.2194,-2.2328,-2.2328,-2.2328,0.0,-2.5292,-2.557,-2.6746,0.0,0.0,0.0,0.0,0.0,0.0,0.0,0.0,0.0,0.0,0.0,0.0,0.0,-3.0298,-3.0073,-3.0058,-3.0313,-3.0058,-3.0058,-3.0313,-3.0447,-3.0447,-3.0328,-3.1122,-3.1511,-3.1511,-3.1511,-3.1511,-3.1511,-3.1511,-3.1511,-3.1511,-3.1511,-3.1511,-3.1436,-3.0748,-3.0118,-2.9606,-2.9606,-2.9606,-2.9606,-2.9606,-2.9415,-2.925,-2.9532,-2.9262,-2.8903,-2.9131,-2.9205,-2.9295,-2.9684,-2.9953,-2.9998,-2.9385,-2.9205,-2.9172,-2.8903,-2.8843,-2.8738,-2.8293,-2.8203,-2.8109,-2.7675,-2.76,-2.76,-2.76,-2.76,-2.76,-2.76,-2.76,-2.76,-2.76,-2.76,-2.76,-2.76,-2.76,-2.76,-2.76,-2.76,-2.76,-2.76,-2.76,-2.748,-2.724,-2.7225,-2.6926,-2.6228,-2.6213,-2.6019,-2.5615,-2.5615,-2.5457,-2.5217,-2.5217,-2.5083,-1.4498,-1.5667,-1.6713,-1.6514,-1.8131,-1.9983,-2.0833,-2.153,-2.2248,-2.3116,-2.3295,-2.3295,-2.3295,0.0,0.0,0.0,0.0,0.0,0.0,0.0,0.0,0.0,0.0,0.0,0.0,0.0,0.0,0.0,0.0,0.0,0.0,-2.9412,-2.937,-2.9592,-2.9385,-2.9397,-2.9606,-2.9804,-2.9804,-2.9621,-3.0492,-3.0883,-3.0883,-3.0883,-3.1002,-3.1182,-3.1182,-3.1301,-3.1481,-3.1271,-3.1062,-3.0853,-3.0612,-3.0253,-2.9909,-3.0118,-3.0193,-3.0193,-3.0193,-3.0058,-2.9909,-3.0118,-2.9924,-2.9651,-2.9846,-2.9864,-2.9968,-3.0387,-3.0657,-3.0731,-3.0313,-3.0043,-2.9846,-2.9651,-2.9606,-2.9427,-2.8742,-2.8607,-2.8457,-2.8004,-2.775,-2.766,-2.7884,-2.775,-2.76,-2.76,-2.76,-2.76,-2.76,-2.76,-2.76,-2.76,-2.76,-2.76,-2.76,-2.76,-2.76,-2.76,-2.76,-2.76,-2.76,-2.76,-2.739,-2.6926,-2.6926,-2.6701,-2.6228,-2.6228,-2.6123,-2.5914,-2.5914,-2.5809,-1.5681,-1.6481,-1.7418,-1.7942,-1.8997,-2.0219,-2.1426,-2.2239,-2.3092,-2.435,-2.4634,-2.4619,-2.4619,-2.5158,0.0,-2.5615,0.0,0.0,0.0,0.0,0.0,0.0,0.0,0.0,0.0,0.0,0.0,0.0,0.0,0.0,0.0,-2.8951,-2.8891,-2.9577,-2.8936,-2.8906,-2.9577,-2.8921,-2.8921,-2.9592,-2.9592,-2.9606,-2.9606,-2.9606,-2.9924,-3.0492,-3.0492,-3.0881,-3.1436,-3.0776,-3.0133,-2.9666,-3.0253,-3.0492,-3.0582,-3.1241,-3.1496,-3.1496,-3.1511,-3.1062,-3.0627,-3.1286,-3.0657,-2.9714,-3.0328,-3.0507,-3.0507,-3.0507,-3.0972,-3.1511,-3.1511,-3.1002,-3.0357,-2.9771,-2.9636,-2.9415,-2.8757,-2.8622,-2.8622,-2.8607,-2.8053,-2.7839,-2.8487,-2.8064,-2.76,-2.76,-2.76,-2.76,-2.76,-2.76,-2.76,-2.76,-2.76,-2.76,-2.76,-2.76,-2.76,-2.76,-2.76,-2.76,-2.76,-2.76,-2.76,-2.76,-2.76,-2.76,-2.76,-2.76,-2.727,-2.6602,-2.6602,-2.6243,-1.4569,-1.5635,-1.6796,-1.705,-1.8803,-2.0705,-2.1633,-2.2964,-2.4395,-2.5734,-2.6019,-2.5869,-2.5382,-2.5854,0.0,0.0,0.0,0.0,0.0,0.0,0.0,0.0,0.0,0.0,0.0,0.0,0.0,0.0,0.0,0.0,0.0,-2.8004,-2.7989,-2.8184,-2.8004,-2.7989,-2.8184,-2.8457,-2.8457,-2.8199,-2.8678,-2.9131,-2.9606,-2.9606,-2.9711,-2.9864,-2.9864,-2.9968,-3.0148,-2.9939,-2.9771,-2.9636,-2.9789,-2.9864,-2.9924,-3.0567,-3.0806,-3.0853,-3.1331,-3.1376,-3.1241,-3.1436,-3.1241,-3.0957,-3.1137,-3.1197,-3.1197,-3.1197,-3.1346,-3.1511,-3.1511,-3.1346,-3.1152,-3.0972,-3.0928,-3.0733,-3.0088,-2.9939,-2.9804,-2.9385,-2.9157,-2.9082,-2.9277,-2.8742,-2.8293,-2.8293,-2.7899,-2.76,-2.76,-2.76,-2.76,-2.76,-2.76,-2.76,-2.76,-2.76,-2.76,-2.76,-2.76,-2.76,-2.76,-2.76,-2.76,-2.76,-2.76,-2.76,-2.76,-2.76,-2.7495,-2.73,-2.73,-2.721,-1.5184,-1.6231,-1.7316,-1.8105,-1.9551,-2.1167,-2.265,-2.4015,-2.5367,-2.6707,-2.6806,-2.6467,-2.6078,-2.6318,0.0,0.0,0.0,0.0,0.0,0.0,0.0,0.0,0.0,0.0,0.0,0.0,0.0,0.0,0.0,0.0,0.0,-2.76,-2.76,-2.76,-2.76,-2.76,-2.76,-2.8004,-2.8004,-2.76,-2.8019,-2.8423,-2.8813,-2.8813,-2.8963,-2.9232,-2.946,-2.9457,-2.919,-2.919,-2.9052,-2.8843,-2.9112,-2.919,-2.9295,-3.0178,-3.0507,-3.0612,-3.1271,-3.1511,-3.1511,-3.1511,-3.1511,-3.1511,-3.1511,-3.1511,-3.1511,-3.1511,-3.1511,-3.1511,-3.1511,-3.1511,-3.1511,-3.1511,-3.1511,-3.1316,-3.0657,-3.0507,-3.0387,-3.0028,-2.9744,-2.9696,-2.9909,-2.9415,-2.8906,-2.8637,-2.8034,-2.76,-2.76,-2.76,-2.76,-2.76,-2.76,-2.76,-2.76,-2.76,-2.76,-2.76,-2.76,-2.76,-2.76,-2.76,-2.76,-2.76,-2.76,-2.76,-2.76,-2.76,-2.76,-2.76,-2.76,-2.76,-1.6647,-1.7531,-1.8445,-2.0194,-2.0886,-2.1747,-2.406,-2.5068,-2.5899,-2.724,0.0,-2.6701,-2.6701,-2.6701,-2.6701,0.0,0.0,0.0,0.0,0.0,0.0,0.0,0.0,0.0,0.0,0.0,0.0,0.0,0.0,0.0,0.0,-2.76,-2.76,-2.76,-2.76,-2.76,-2.76,-2.76,-2.76,-2.76,-2.76,-2.76,-2.76,-2.76,-2.7944,-2.8547,-2.9157,-2.9056,-2.8502,-2.8502,-2.8154,-2.766,-2.8263,-2.8502,-2.8667,-2.9953,-3.0417,-3.0522,-3.1241,-3.1511,-3.1511,-3.1511,-3.1511,-3.1511,-3.1511,-3.1511,-3.1511,-3.1511,-3.1511,-3.1511,-3.1511,-3.1511,-3.1511,-3.1511,-3.1511,-3.1331,-3.0731,-3.0597,-3.0597,-3.0597,-3.0148,-2.9939,-3.0507,-3.0028,-2.9367,-2.8622,-2.8004,-2.76,-2.76,-2.76,-2.76,-2.76,-2.76,-2.76,-2.76,-2.76,-2.76,-2.76,-2.76,-2.76,-2.76,-2.76,-2.76,-2.76,-2.76,-2.76,-2.76,-2.76,-2.76,-2.76,-2.76,-2.76,-1.5136,-1.6373,-1.7913,-1.9774,-2.163,-2.3301,-2.4358,-2.4709,-2.5187,-2.6527,-2.7121,-2.739,-2.739,-2.739,0.0,0.0,0.0,0.0,0.0,0.0,0.0,0.0,0.0,0.0,0.0,0.0,0.0,0.0,0.0,0.0,-2.76,-2.76,-2.76,-2.76,-2.76,-2.76,-2.76,-2.76,-2.76,0.0,-2.76,-2.76,-2.76,-2.76,-2.7675,-2.7824,-2.7974,-2.7944,-2.7824,-2.7824,-2.7735,-2.76,-2.7764,-2.7824,-2.7989,-2.928,-2.9774,-2.9953,-3.1092,-3.1511,-3.1511,-3.1511,-3.1511,-3.1511,-3.1511,-3.1511,-3.1511,-3.1511,-3.1511,-3.1511,-3.1511,-3.1511,-3.1511,-3.1511,-3.1511,-3.1466,-3.1316,-3.1286,-3.1286,-3.1286,-3.1182,-3.1122,-3.1256,-3.0357,-2.9202,-2.8004,-2.769,-2.76,-2.76,-2.76,-2.76,-2.76,-2.76,-2.76,-2.76,-2.76,-2.76,-2.76,-2.76,-2.76,-2.76,-2.76,-2.76,-2.76,-2.76,-2.76,-2.76,-2.76,-2.76,-2.76,-2.76,-2.76,-1.4875,-1.6061,-1.749,-1.989,-2.1827,-2.3334,-2.3992,-2.4365,-2.4799,-2.551,-2.6183,-2.6746,-2.7061,0.0,0.0,0.0,0.0,0.0,0.0,0.0,0.0,0.0,0.0,0.0,0.0,0.0,0.0,0.0,0.0,-2.76,-2.76,-2.76,-2.76,-2.76,-2.76,-2.76,-2.76,-2.76,-2.76,-2.76,-2.76,-2.76,-2.76,-2.76,-2.76,-2.76,-2.76,-2.76,-2.76,-2.76,-2.76,-2.76,-2.76,-2.76,-2.7764,-2.9112,-2.9606,-2.9786,-3.1047,-3.1511,-3.1511,-3.1511,-3.1511,-3.1511,-3.1511,-3.1511,-3.1511,-3.1511,-3.1511,-3.1511,-3.1511,-3.1511,-3.1511,-3.1511,-3.1511,-3.1511,-3.1511,-3.1511,-3.1511,-3.1511,-3.1511,-3.1511,-3.1511,-3.0687,-2.9789,-2.9086,-2.8753,-2.8558,-2.8558,-2.8558,-2.8558,-2.8558,-2.8274,-2.8094,-2.8094,-2.7779,-2.76,-2.76,-2.76,-2.76,-2.76,-2.76,-2.76,-2.76,-2.76,-2.76,-2.76,-2.76,-2.76,-2.76,-2.76,-2.76,-1.4752,-1.595,-1.7339,-2.019,-2.173,-2.2722,-2.3304,-2.394,-2.4403,-2.429,-2.4969,-2.5809,0.0,0.0,0.0,0.0,0.0,0.0,0.0,0.0,0.0,0.0,0.0,0.0,0.0,0.0,0.0,0.0,0.0,-2.76,-2.76,-2.76,-2.76,-2.76,-2.76,-2.76,-2.76,-2.76,-2.76,-2.76,-2.76,-2.76,-2.76,-2.76,-2.76,-2.76,-2.76,-2.76,-2.76,-2.76,-2.76,-2.76,-2.76,-2.76,-2.7764,-2.9112,-2.9606,-2.9786,-3.1047,-3.1511,-3.1511,-3.1511,-3.1511,-3.1511,-3.1511,-3.1511,-3.1511,-3.1511,-3.1511,-3.1511,-3.1511,-3.1511,-3.1511,-3.1511,-3.1511,-3.1511,-3.1511,-3.1511,-3.1511,-3.1511,-3.1511,-3.1466,-3.1346,-3.0881,-3.0462,-3.0357,-2.9909,-2.9606,-2.9606,-2.9606,-2.9606,-2.9606,-2.9086,-2.8771,-2.8771,-2.8274,-2.7899,-2.7779,-2.7779,-2.772,-2.76,-2.76,-2.76,-2.76,-2.76,-2.76,-2.76,-2.76,-2.76,-2.76,-2.76,-2.76,-1.3335,-1.5411,-1.7927,-2.0306,-2.1476,-2.2142,0.0,0.0,-2.3599,0.0,-2.4366,-2.5809,0.0,0.0,0.0,0.0,0.0,0.0,0.0,0.0,0.0,0.0,0.0,0.0,0.0,0.0,0.0,0.0,-2.76,-2.76,-2.76,-2.76,-2.76,-2.76,-2.76,-2.76,-2.76,-2.76,-2.76,-2.76,-2.76,-2.76,-2.76,-2.76,-2.76,-2.76,-2.76,-2.76,-2.76,-2.76,-2.76,-2.76,-2.76,-2.76,-2.7764,-2.9112,-2.9606,-2.9786,-3.1047,-3.1511,-3.1511,-3.1511,-3.1511,-3.1511,-3.1511,-3.1511,-3.1511,-3.1511,-3.1511,-3.1511,-3.1511,-3.1511,-3.1511,-3.1511,-3.1511,-3.1511,-3.1511,-3.1511,-3.1511,-3.1511,-3.1511,-3.1316,-3.0746,-3.0567,-3.0313,-2.9789,-2.9666,-2.9606,-2.9606,-2.9606,-2.9606,-2.9606,-2.9532,-2.9472,-2.9472,-2.9397,-2.9097,-2.8502,-2.8472,-2.8203,-2.7615,-2.76,-2.76,-2.76,-2.76,-2.76,-2.76,-2.76,-2.76,-2.76,-2.76,-2.76,-1.3286,-1.5291,-1.7349,-1.9023,-2.0136,-2.0991,-2.1552,-2.2136,-2.256,-2.2672,-2.3385,0.0,0.0,0.0,0.0,0.0,0.0,0.0,0.0,0.0,0.0,0.0,0.0,0.0,0.0,0.0,0.0,0.0,-2.7255,-2.7046,-2.7046,-2.7046,-2.7046,-2.7046,-2.7405,-2.76,-2.76,-2.76,-2.76,-2.76,-2.76,-2.76,-2.76,-2.76,-2.76,-2.76,-2.76,-2.76,-2.76,-2.76,-2.76,-2.76,-2.76,-2.7839,-2.8289,-2.9247,-2.9804,-3.0238,-3.1182,-3.1511,-3.1511,-3.1511,-3.1511,-3.1511,-3.1511,-3.1511,-3.1511,-3.1511,-3.1511,-3.1511,-3.1511,-3.1511,-3.1511,-3.1511,-3.1511,-3.1511,-3.1511,-3.1511,-3.1511,-3.1511,-3.1511,-3.1406,-3.1107,-3.1047,-3.0957,-3.0688,-3.0672,-3.0672,-3.0672,-3.0672,-3.0672,-3.0672,-3.0328,-3.0103,-3.0103,-2.9774,-2.9487,-2.916,-2.9146,-2.8846,-2.8173,-2.8169,-2.7989,-2.76,-2.76,-2.76,-2.76,-2.76,-2.76,-2.76,-2.76,-2.76,-1.3262,-1.4751,-1.6051,-1.7687,-1.8848,-1.9724,0.0,0.0,-2.163,0.0,0.0,0.0,0.0,0.0,0.0,0.0,0.0,0.0,0.0,0.0,0.0,0.0,0.0,0.0,0.0,0.0,0.0,0.0,-2.6806,-2.6512,-2.6348,-2.6348,-2.6348,-2.6348,-2.7001,-2.7345,-2.7345,-2.751,-2.76,-2.76,-2.76,-2.76,-2.76,-2.76,-2.76,-2.76,-2.76,-2.76,-2.76,-2.76,-2.76,-2.76,-2.76,-2.7914,-2.8442,-2.9307,-2.9864,-3.0387,-3.1212,-3.1511,-3.1511,-3.1511,-3.1511,-3.1511,-3.1511,-3.1511,-3.1511,-3.1511,-3.1511,-3.1511,-3.1511,-3.1511,-3.1511,-3.1511,-3.1511,-3.1511,-3.1511,-3.1511,-3.1511,-3.1511,-3.1511,-3.1511,-3.1511,-3.1511,-3.1511,-3.1511,-3.1511,-3.1511,-3.1511,-3.1511,-3.1511,-3.1511,-3.1047,-3.0761,-3.0761,-3.0342,-2.9998,-2.9846,-2.9846,-2.952,-2.8876,-2.8846,-2.8607,-2.8124,-2.8109,-2.7944,-2.76,-2.76,-2.76,-2.76,-2.76,-2.76,-1.2634,-1.3298,-1.4036,-1.6837,-1.7975,-1.8525,0.0,0.0,0.0,0.0,0.0,0.0,0.0,0.0,0.0,0.0,0.0,0.0,0.0,0.0,0.0,0.0,0.0,0.0,0.0,0.0,0.0,0.0,-2.6258,-2.6318,-2.5689,-2.5659,-2.5659,-2.5659,-2.6303,-2.6632,-2.6632,-2.7285,-2.76,-2.76,-2.76,-2.76,-2.76,-2.76,-2.76,-2.76,-2.76,-2.76,-2.76,-2.76,-2.76,-2.76,-2.76,-2.7615,-2.7809,-2.9127,-2.9636,-2.9804,-3.1062,-3.1511,-3.1511,-3.1511,-3.1511,-3.1511,-3.1511,-3.1511,-3.1511,-3.1511,-3.1511,-3.1511,-3.1511,-3.1511,-3.1511,-3.1511,-3.1511,-3.1511,-3.1511,-3.1511,-3.1511,-3.1511,-3.1511,-3.1511,-3.1511,-3.1511,-3.1511,-3.1511,-3.1511,-3.1511,-3.1511,-3.1511,-3.1511,-3.1511,-3.1466,-3.1451,-3.1451,-3.1421,-3.1122,-3.0492,-3.0447,-3.0178,-2.9577,-2.9562,-2.9532,-2.9502,-2.9502,-2.8873,-2.76,-2.76,-2.76,-2.76,-2.76,-2.76,-1.1964,-1.2956,-1.4038,-1.5049,-1.6237,-1.7205,-1.7388,-1.8338,-1.9386,-2.0164,0.0,0.0,0.0,0.0,0.0,0.0,0.0,0.0,0.0,0.0,0.0,0.0,0.0,0.0,0.0,0.0,0.0,0.0,0.0,-2.5202,-2.4963,-2.4963,-2.4963,-2.4963,-2.5615,-2.6153,-2.6587,-2.727,-2.76,-2.76,-2.76,-2.76,-2.76,-2.76,-2.76,-2.76,-2.76,-2.76,-2.76,-2.76,-2.76,-2.76,-2.76,-2.7869,-2.8338,-2.9277,-2.9834,-3.0298,-3.1182,-3.1511,-3.1511,-3.1511,-3.1511,-3.1511,-3.1511,-3.1511,-3.1511,-3.1511,-3.1511,-3.1511,-3.1511,-3.1511,-3.1511,-3.1511,-3.1511,-3.1511,-3.1511,-3.1511,-3.1511,-3.1511,-3.1511,-3.1511,-3.1511,-3.1511,-3.1511,-3.1511,-3.1511,-3.1511,-3.1511,-3.1511,-3.1511,-3.1511,-3.1511,-3.1511,-3.1511,-3.1511,-3.1406,-3.1152,-3.1137,-3.0838,-3.0193,-3.0178,-2.9983,-2.9621,-2.9606,-2.9157,-2.8233,-2.8233,-2.8034,-2.76,-2.76,-2.76,-1.1299,-1.2395,-1.3619,0.0,-1.4896,-1.5831,-1.6375,0.0,-1.7961,0.0,0.0,0.0,0.0,0.0,0.0,0.0,0.0,0.0,0.0,0.0,0.0,0.0,0.0,0.0,0.0,0.0,0.0,0.0,0.0,0.0,-2.4276,-2.4261,-2.4365,-2.459,-2.5023,-2.5704,-2.6572,-2.7046,-2.7375,-2.76,-2.76,-2.76,-2.76,-2.76,-2.76,-2.76,-2.76,-2.76,-2.76,-2.76,-2.76,-2.76,-2.76,-2.7869,-2.8338,-2.9011,-2.9654,-3.0283,-3.0928,-3.1316,-3.1511,-3.1511,-3.1511,-3.1511,-3.1511,-3.1511,-3.1511,-3.1511,-3.1511,-3.1511,-3.1511,-3.1511,-3.1511,-3.1511,-3.1511,-3.1511,-3.1511,-3.1511,-3.1511,-3.1511,-3.1511,-3.1511,-3.1511,-3.1511,-3.1511,-3.1511,-3.1511,-3.1511,-3.1511,-3.1511,-3.1511,-3.1511,-3.1511,-3.1511,-3.1511,-3.1511,-3.1511,-3.1511,-3.1511,-3.1301,-3.0838,-3.0851,-3.0657,-3.0253,-3.0238,-2.9909,-2.9235,-2.9026,-2.8723,-2.8274,-2.8274,-2.8274,0.0,0.0,0.0,0.0,0.0,0.0,-1.6095,0.0,-1.6794,0.0,0.0,0.0,0.0,0.0,0.0,0.0,0.0,0.0,0.0,0.0,0.0,0.0,0.0,0.0,0.0,0.0,0.0,0.0,-2.4201,-2.4291,-2.3625,-2.3595,-2.3909,-2.4545,-2.459,-2.5217,-2.6512,-2.6572,-2.6941,-2.757,-2.7585,-2.76,-2.76,-2.76,-2.76,-2.76,-2.76,-2.76,-2.76,-2.76,-2.76,-2.76,-2.76,-2.76,-2.769,-2.8368,-2.9026,-2.9696,-3.0313,-3.0943,-3.1511,-3.1511,-3.1511,-3.1511,-3.1511,-3.1511,-3.1511,-3.1511,-3.1511,-3.1511,-3.1511,-3.1511,-3.1511,-3.1511,-3.1511,-3.1511,-3.1511,-3.1511,-3.1511,-3.1511,-3.1511,-3.1511,-3.1511,-3.1511,-3.1511,-3.1511,-3.1511,-3.1511,-3.1511,-3.1511,-3.1511,-3.1511,-3.1511,-3.1511,-3.1511,-3.1511,-3.1511,-3.1511,-3.1511,-3.1511,-3.1511,-3.1511,-3.1511,-3.1511,-3.1511,-3.1182,-3.0537,-2.9909,-2.9636,-2.9606,-2.9606,-2.9606,-1.1462,0.0,0.0,0.0,0.0,0.0,0.0,0.0,0.0,0.0,0.0,0.0,0.0,0.0,0.0,0.0,0.0,0.0,0.0,0.0,0.0,0.0,0.0,0.0,0.0,0.0,0.0,0.0,-2.3774,-2.3804,-2.361,-2.3595,-2.3684,-2.3879,-2.435,-2.4784,-2.5143,-2.6123,-2.6701,-2.6896,-2.736,-2.76,-2.76,-2.76,-2.76,-2.76,-2.76,-2.76,-2.76,-2.76,-2.76,-2.76,-2.76,-2.76,-2.7735,-2.8903,-2.9457,-2.9771,-3.0866,-3.1346,-3.1511,-3.1511,-3.1511,-3.1511,-3.1511,-3.1511,-3.1511,-3.1511,-3.1511,-3.1511,-3.1511,-3.1511,-3.1511,-3.1511,-3.1511,-3.1511,-3.1511,-3.1511,-3.1511,-3.1511,-3.1511,-3.1511,-3.1511,-3.1511,-3.1511,-3.1511,-3.1511,-3.1511,-3.1511,-3.1511,-3.1511,-3.1511,-3.1511,-3.1511,-3.1511,-3.1511,-3.1511,-3.1511,-3.1511,-3.1511,-3.1511,-3.1511,-3.1511,-3.1511,-3.1511,-3.1406,-3.1212,-3.0567,-3.0028,-2.9606,-2.9606,-2.9606,-1.214,-1.2743,-1.3496,0.0,0.0,0.0,-1.4997,-1.506,0.0,0.0,0.0,0.0,0.0,0.0,0.0,0.0,0.0,0.0,0.0,0.0,0.0,0.0,0.0,0.0,0.0,-2.3061,-2.3209,-2.3209,-2.3465,-2.3595,-2.3595,-2.3595,-2.3595,-2.3595,-2.3984,-2.4321,-2.4605,-2.5367,-2.6048,-2.6587,-2.7001,-2.733,-2.76,-2.76,-2.76,-2.76,-2.76,-2.76,-2.76,-2.76,-2.76,-2.76,-2.76,-2.76,-2.772,-2.8798,-2.934,-2.9729,-3.0746,-3.1271,-3.1511,-3.1511,-3.1511,-3.1511,-3.1511,-3.1511,-3.1511,-3.1511,-3.1511,-3.1511,-3.1511,-3.1511,-3.1511,-3.1511,-3.1511,-3.1511,-3.1511,-3.1511,-3.1511,-3.1511,-3.1511,-3.1511,-3.1511,-3.1511,-3.1511,-3.1511,-3.1511,-3.1511,-3.1511,-3.1511,-3.1511,-3.1511,-3.1511,-3.1511,-3.1511,-3.1511,-3.1511,-3.1511,-3.1511,-3.1511,-3.1511,-3.1511,-3.1511,-3.1511,-3.1511,-3.1511,-3.1511,-3.1107,-3.0746,-3.0387,-3.0387,-3.0387,-1.2944,-1.3413,-1.4191,0.0,0.0,0.0,-1.5266,-1.5198,-1.5097,0.0,0.0,0.0,0.0,0.0,0.0,0.0,0.0,0.0,0.0,0.0,0.0,0.0,0.0,0.0,-2.1697,-2.2253,-2.2626,-2.2694,-2.3268,-2.3595,-2.3595,-2.3595,-2.3595,-2.3595,-2.3595,-2.3894,-2.4485,-2.4575,-2.5187,-2.6378,-2.6512,-2.6926,-2.748,-2.757,-2.76,-2.76,-2.76,-2.76,-2.76,-2.76,-2.76,-2.76,-2.76,-2.76,-2.769,-2.8427,-2.9086,-2.9711,-3.0372,-3.0987,-3.1511,-3.1511,-3.1511,-3.1511,-3.1511,-3.1511,-3.1511,-3.1511,-3.1511,-3.1511,-3.1511,-3.1511,-3.1511,-3.1511,-3.1511,-3.1511,-3.1511,-3.1511,-3.1511,-3.1511,-3.1511,-3.1511,-3.1511,-3.1511,-3.1511,-3.1511,-3.1511,-3.1511,-3.1511,-3.1511,-3.1511,-3.1511,-3.1511,-3.1511,-3.1511,-3.1511,-3.1511,-3.1511,-3.1511,-3.1511,-3.1511,-3.1511,-3.1511,-3.1511,-3.1511,-3.1511,-3.1511,-3.1511,-3.1511,-3.1511,-3.1511,-3.1511,0.0,0.0,0.0,0.0,0.0,0.0,-1.4984,-1.4639,-1.4437,0.0,0.0,0.0,0.0,0.0,0.0,0.0,0.0,0.0,0.0,0.0,0.0,0.0,0.0,0.0,-2.1649,-2.1828,-2.2123,-2.2649,-2.3268,-2.3595,-2.3595,-2.3595,-2.3595,-2.3595,-2.3595,-2.367,-2.3789,-2.4335,-2.4739,-2.4993,-2.6078,-2.6686,-2.6821,-2.7345,-2.76,-2.76,-2.76,-2.76,-2.76,-2.76,-2.76,-2.76,-2.76,-2.76,-2.775,-2.8963,-2.9502,-2.9744,-3.0898,-3.1391,-3.1511,-3.1511,-3.1511,-3.1511,-3.1511,-3.1511,-3.1511,-3.1511,-3.1511,-3.1511,-3.1511,-3.1511,-3.1511,-3.1511,-3.1511,-3.1511,-3.1511,-3.1511,-3.1511,-3.1511,-3.1511,-3.1511,-3.1511,-3.1511,-3.1511,-3.1511,-3.1511,-3.1511,-3.1511,-3.1511,-3.1511,-3.1511,-3.1511,-3.1511,-3.1511,-3.1511,-3.1511,-3.1511,-3.1511,-3.1511,-3.1511,-3.1511,-3.1511,-3.1511,-3.1511,-3.1511,-3.1511,-3.1511,-3.1511,-3.1511,-3.1511,-3.1511,0.0,0.0,0.0,-1.5374,0.0,0.0,0.0,-1.4871,-1.4727,-1.5517,-1.506,0.0,0.0,0.0,0.0,0.0,0.0,0.0,0.0,0.0,0.0,0.0,0.0,0.0,-1.9925,-2.0496,-2.1242,-2.2132,-2.2492,-2.2801,-2.312,-2.3143,-2.329,-2.3595,-2.3595,-2.3595,-2.3595,-2.3939,-2.4261,-2.4619,-2.563,-2.6273,-2.6617,-2.73,-2.76,-2.76,-2.76,-2.76,-2.76,-2.76,-2.76,-2.76,-2.76,-2.76,-2.7764,-2.9112,-2.9606,-2.9786,-3.1047,-3.1511,-3.1511,-3.1511,-3.1511,-3.1511,-3.1511,-3.1511,-3.1511,-3.1511,-3.1511,-3.1511,-3.1511,-3.1511,-3.1511,-3.1511,-3.1511,-3.1511,-3.1511,-3.1511,-3.1511,-3.1511,-3.1511,-3.1511,-3.1511,-3.1511,-3.1511,-3.1511,-3.1511,-3.1511,-3.1511,-3.1511,-3.1511,-3.1511,-3.1511,-3.1511,-3.1511,-3.1511,-3.1511,-3.1511,-3.1511,-3.1511,-3.1511,-3.1511,-3.1511,-3.1511,-3.1511,-3.1511,-3.1511,-3.1511,-3.1511,-3.1511,-3.1511,-3.1511,0.0,0.0,0.0,0.0,0.0,-1.5969,0.0,0.0,0.0,-1.6032,0.0,0.0,0.0,0.0,0.0,0.0,0.0,0.0,0.0,0.0,0.0,0.0,0.0,0.0,0.0,-1.9084,-2.0147,-2.1263,-2.1388,-2.1782,-2.2642,-2.2704,-2.2965,-2.3573,-2.3595,-2.3595,-2.3595,-2.3595,-2.3879,-2.441,-2.5217,-2.5884,-2.6422,-2.7076,-2.7473,-2.76,-2.7458,-2.7458,-2.76,-2.76,-2.76,-2.76,-2.76,-2.76,-2.7764,-2.9112,-2.9606,-2.9786,-3.1047,-3.1511,-3.1511,-3.1511,-3.1511,-3.1511,-3.1511,-3.1511,-3.1511,-3.1511,-3.1511,-3.1511,-3.1511,-3.1511,-3.1511,-3.1511,-3.1511,-3.1511,-3.1511,-3.1511,-3.1511,-3.1511,-3.1511,-3.1511,-3.1511,-3.1511,-3.1511,-3.1511,-3.1511,-3.1511,-3.1511,-3.1511,-3.1511,-3.1511,-3.1511,-3.1511,-3.1511,-3.1511,-3.1511,-3.1511,-3.1511,-3.1511,-3.1511,-3.1511,-3.1511,-3.1511,-3.1511,-3.1511,-3.1511,-3.1511,-3.1511,-3.1511,-3.1511,-3.1511,0.0,0.0,0.0,0.0,-1.681,0.0,0.0,0.0,-1.5512,-1.5148,0.0,0.0,0.0,0.0,0.0,0.0,0.0,0.0,0.0,0.0,0.0,0.0,0.0,0.0,0.0,-1.8367,-1.8957,-2.0023,-2.0224,-2.099,-2.2617,-2.2695,-2.2965,-2.3573,-2.3595,-2.3595,-2.3595,-2.3595,-2.364,-2.3729,-2.5001,-2.5644,-2.5741,-2.6363,-2.6982,-2.756,-2.6904,-2.6982,-2.76,-2.76,-2.76,-2.76,-2.76,-2.76,-2.7764,-2.9112,-2.9606,-2.9786,-3.1047,-3.1511,-3.1511,-3.1511,-3.1511,-3.1511,-3.1511,-3.1511,-3.1511,-3.1511,-3.1511,-3.1511,-3.1511,-3.1511,-3.1511,-3.1511,-3.1511,-3.1511,-3.1511,-3.1511,-3.1511,-3.1511,-3.1511,-3.1511,-3.1511,-3.1511,-3.1511,-3.1511,-3.1511,-3.1511,-3.1511,-3.1511,-3.1511,-3.1511,-3.1511,-3.1511,-3.1511,-3.1511,-3.1511,-3.1511,-3.1511,-3.1511,-3.1511,-3.1511,-3.1511,-3.1511,-3.1511,-3.1511,-3.1511,-3.1511,-3.1511,-3.1511,-3.1511,-3.1511,0.0,0.0,0.0,0.0,0.0,0.0,-1.6358,0.0,-1.5718,0.0,0.0,0.0,0.0,0.0,0.0,0.0,0.0,0.0,0.0,0.0,0.0,0.0,0.0,0.0,0.0,0.0,0.0,0.0,-1.8674,-1.9452,-2.1548,-2.167,-2.2081,-2.3054,-2.3421,-2.3421,-2.3076,-2.3421,-2.3595,-2.361,-2.4971,-2.5615,-2.5621,-2.6663,-2.7306,-2.7575,-2.728,-2.7306,-2.76,-2.76,-2.76,-2.76,-2.76,-2.76,-2.7764,-2.9112,-2.9606,-2.9786,-3.1047,-3.1511,-3.1511,-3.1511,-3.1511,-3.1511,-3.1511,-3.1511,-3.1511,-3.1511,-3.1511,-3.1511,-3.1511,-3.1511,-3.1511,-3.1511,-3.1511,-3.1511,-3.1511,-3.1511,-3.1511,-3.1511,-3.1511,-3.1511,-3.1511,-3.1511,-3.1511,-3.1511,-3.1511,-3.1511,-3.1511,-3.1511,-3.1511,-3.1511,-3.1511,-3.1511,-3.1511,-3.1511,-3.1511,-3.1511,-3.1511,-3.1511,-3.1511,-3.1511,-3.1511,-3.1511,-3.1511,-3.1511,-3.1511,-3.1029,-3.0807,-3.0807,-3.1278,-3.1511,-1.843,0.0,0.0,0.0,0.0,0.0,0.0,0.0,0.0,0.0,0.0,0.0,0.0,0.0,0.0,0.0,0.0,-1.4783,0.0,0.0,0.0,0.0,0.0,0.0,0.0,0.0,0.0,0.0,0.0,-1.7943,-2.0274,-2.0706,-2.1298,-2.2173,-2.312,-2.3312,-2.2694,-2.3312,-2.3684,-2.3894,-2.5061,-2.5704,-2.5914,-2.6877,-2.7408,-2.76,-2.7382,-2.7408,-2.76,-2.76,-2.76,-2.76,-2.76,-2.7705,-2.8019,-2.9172,-2.9711,-2.9998,-3.1122,-3.1511,-3.1511,-3.1511,-3.1511,-3.1511,-3.1511,-3.1511,-3.1511,-3.1511,-3.1511,-3.1511,-3.1511,-3.1511,-3.1511,-3.1511,-3.1511,-3.1511,-3.1511,-3.1511,-3.1511,-3.1511,-3.1645,-3.1765,-3.1765,-3.163,-3.1511,-3.1511,-3.1511,-3.1511,-3.1511,-3.1511,-3.1511,-3.1511,-3.1511,-3.1511,-3.1511,-3.1511,-3.1511,-3.1511,-3.1511,-3.1511,-3.1511,-3.1511,-3.1511,-3.1511,-3.1511,-3.138,-3.1161,-3.0584,-3.0178,-2.995,-3.0554,-3.094,0.0,0.0,0.0,-1.7652,0.0,0.0,0.0,0.0,-1.7174,0.0,0.0,0.0,0.0,0.0,0.0,-1.4984,0.0,0.0,0.0,0.0,0.0,0.0,0.0,0.0,0.0,0.0,0.0,0.0,0.0,0.0,-1.9031,-2.0271,-2.0922,-2.0973,-2.2673,-2.3312,-2.2694,-2.3312,-2.3939,-2.459,-2.5262,-2.5944,-2.6563,-2.6546,-2.693,-2.756,-2.6852,-2.693,-2.76,-2.76,-2.76,-2.76,-2.76,-2.8004,-2.8652,-2.9325,-2.9968,-3.0567,-3.1256,-3.1511,-3.1511,-3.1511,-3.1511,-3.1511,-3.1511,-3.1511,-3.1511,-3.1511,-3.1511,-3.1511,-3.1511,-3.1511,-3.1511,-3.1511,-3.1511,-3.1511,-3.1511,-3.1511,-3.1511,-3.1511,-3.2019,-3.2482,-3.2482,-3.1929,-3.1511,-3.1511,-3.1511,-3.1511,-3.1511,-3.1511,-3.1511,-3.1511,-3.1511,-3.1511,-3.1511,-3.1511,-3.1511,-3.1511,-3.1511,-3.1511,-3.1511,-3.1511,-3.1511,-3.1511,-3.1511,-3.1117,-3.0329,-3.0299,-2.9858,-2.9034,-2.9066,-2.9535,0.0,0.0,-2.0388,-1.9258,0.0,0.0,0.0,0.0,0.0,0.0,0.0,0.0,0.0,0.0,-1.563,-1.5462,-1.4821,0.0,0.0,0.0,0.0,0.0,0.0,0.0,0.0,0.0,0.0,0.0,-1.5916,0.0,0.0,-1.9297,-1.9884,-2.0288,-2.2056,-2.2703,-2.2053,-2.3037,-2.3883,-2.4597,-2.5237,-2.5894,-2.6617,-2.7034,-2.7357,-2.76,-2.7331,-2.7382,-2.76,-2.76,-2.76,-2.7645,-2.8094,-2.8667,-2.9307,-2.9532,-2.9968,-3.0612,-3.1271,-3.1511,-3.1511,-3.1511,-3.1511,-3.1511,-3.1511,-3.1511,-3.1511,-3.1511,-3.1511,-3.1511,-3.1511,-3.1511,-3.1511,-3.1511,-3.1839,-3.2153,-3.2153,-3.2497,-3.2826,-3.2826,-3.3021,-3.3155,-3.3155,-3.2976,-3.2826,-3.2826,-3.2826,-3.2826,-3.2826,-3.2826,-3.2826,-3.2826,-3.2826,-3.2826,-3.2826,-3.2826,-3.2826,-3.2826,-3.2826,-3.2632,-3.2168,-3.2153,-3.1944,-3.1511,-3.1511,-3.138,-3.1087,-2.9981,-2.9286,-2.8971,-2.7855,-2.8117,-2.1493,-2.1493,0.0,-2.0338,-1.9861,0.0,-1.7965,0.0,0.0,0.0,0.0,0.0,0.0,0.0,0.0,-1.5731,-1.4947,-1.4104,0.0,-1.2897,0.0,0.0,0.0,0.0,0.0,0.0,-1.5141,-1.5932,-1.5462,0.0,0.0,0.0,-1.9179,-1.9352,-2.131,-2.2146,-2.1697,-2.2932,-2.4057,-2.4963,-2.56,-2.6257,-2.6986,-2.7405,-2.76,-2.76,-2.76,-2.76,-2.76,-2.76,-2.76,-2.766,-2.8323,-2.9011,-2.9636,-2.9846,-3.0313,-3.0913,-3.1346,-3.1511,-3.1511,-3.1511,-3.1511,-3.1511,-3.1511,-3.1511,-3.1511,-3.1511,-3.1511,-3.1555,-3.1795,-3.1854,-3.1914,-3.2138,-3.2557,-3.2856,-3.2856,-3.32,-3.3499,-3.3499,-3.3679,-3.3874,-3.3874,-3.4038,-3.4053,-3.3559,-3.3499,-3.3499,-3.3499,-3.3499,-3.3499,-3.3499,-3.3499,-3.3362,-3.3022,-3.2679,-3.2474,-3.2474,-3.2474,-3.2268,-3.1847,-3.2172,-3.1981,-3.1206,-3.1306,-3.1069,-3.0418,-2.9162,-2.8395,-2.8084,-2.7007,-2.7061]},{"header":{"parameterUnit":"m.s-1","parameterCategory":1,"la1":30.6,"la2":29.2853,"lo1":-89.7004,"lo2":-87.6739,"dy":0.0162,"dx":0.0183,"nx":112,"ny":82,"refTime":"2025-04-17T12:00:00:Z","depth":0,"parameterNumber":3,"parameterNumberName":"V-component_of_WINDS"},"data":[0.0,0.0,0.0,0.0,0.0,0.0,0.0,0.0,0.0,0.0,0.0,0.0,0.0,0.0,0.0,0.0,0.0,0.0,0.0,0.0,0.0,0.0,0.0,0.0,0.0,0.0,0.0,0.0,0.0,0.0,0.0,0.0,0.0,0.0,0.0,0.0,0.0,0.0,0.0,0.0,0.0,0.0,0.0,0.0,0.0,0.0,0.0,0.0,0.0,0.0,0.0,0.0,0.0,0.0,0.0,0.0,0.0,0.0,0.0,0.0,0.0,0.0,0.0,0.0,0.0,0.0,0.0,0.0,0.0,0.0,0.0,0.0,0.0,0.0,0.0,0.0,0.0,0.0,0.0,0.0,0.0,0.0,0.0,0.0,0.0,0.0,0.0,0.0,0.0,0.0,1.0306,1.0737,1.1683,1.2198,1.1976,1.2184,1.1771,1.0485,0.0,0.0,0.0,0.0,0.0,0.0,0.0,0.0,0.0,0.0,0.0,0.0,0.0,0.0,0.0,0.0,0.0,0.0,0.0,0.0,0.0,0.0,0.0,0.0,0.0,0.0,0.0,0.0,0.0,0.0,0.0,0.0,0.0,0.0,0.0,0.0,0.0,0.0,0.0,0.0,0.0,0.0,0.0,0.0,0.0,0.0,0.0,0.0,0.0,0.0,0.0,0.0,0.0,0.0,0.0,0.0,0.0,0.0,0.0,0.0,0.0,0.0,0.0,0.0,0.0,0.0,0.0,0.0,0.0,0.0,0.0,0.0,0.0,0.0,0.0,0.0,0.0,0.0,0.0,0.0,0.0,0.0,0.0,0.0,0.0,0.0,0.0,0.0,0.0,0.0,0.0,0.0,0.0,0.0,0.0,0.0,0.0,0.0,0.0,0.0,0.0,0.0,0.0,0.0,1.0885,1.2292,1.2599,1.2685,1.2651,1.1669,1.0871,1.0437,0.0,0.0,0.0,0.0,0.0,0.0,0.0,0.0,0.0,0.0,0.0,0.0,0.0,0.0,0.0,0.0,0.0,0.0,0.0,0.0,0.0,0.0,0.0,0.0,0.0,0.0,0.0,0.0,0.0,0.0,0.0,0.0,0.0,0.0,0.0,0.0,0.0,0.0,0.0,0.0,0.0,0.0,0.0,0.0,0.0,0.0,0.0,0.0,0.0,0.0,0.0,0.0,0.0,0.0,0.0,0.0,0.0,0.0,0.0,0.0,0.0,0.0,0.0,0.0,0.0,0.0,0.0,0.0,0.0,0.0,0.0,0.0,0.0,0.0,0.0,0.0,0.0,0.0,0.0,0.0,0.0,0.0,0.0,0.0,0.0,0.0,0.0,0.0,0.0,0.0,0.0,0.0,0.0,0.0,0.0,0.0,0.0,0.0,0.0,0.0,0.0,0.0,0.0,1.0728,1.1427,1.267,1.2801,1.2801,1.2801,1.1895,1.1075,1.0445,1.0519,0.0,0.0,0.0,0.0,0.0,0.0,0.0,0.0,0.0,0.0,0.0,0.0,0.0,0.0,0.0,0.0,0.0,0.0,0.0,0.0,0.0,0.0,0.0,0.0,0.0,0.0,0.0,0.0,0.0,0.0,0.0,0.0,0.0,0.0,0.0,0.0,0.0,0.0,0.0,0.0,0.0,0.0,0.0,0.0,0.0,0.0,0.0,0.0,0.0,0.0,0.0,0.0,0.0,0.0,0.0,0.0,0.0,0.0,0.0,0.0,0.0,0.0,0.0,0.0,0.0,0.0,0.0,0.0,0.0,0.0,0.0,0.0,0.0,0.0,0.0,0.0,0.0,0.0,0.0,0.0,0.0,0.0,0.0,0.0,0.0,0.0,0.0,0.0,0.0,0.0,0.0,0.0,0.0,0.0,0.0,0.0,0.0,0.0,0.0,0.0,0.0,0.0,1.1637,1.2307,1.3184,1.3268,1.3208,1.3044,1.228,1.1394,1.046,1.0256,0.0,0.0,0.0,0.0,0.0,0.0,0.0,0.0,0.0,0.0,0.0,0.0,0.0,0.0,0.0,0.0,0.0,0.0,0.0,0.0,0.0,0.0,0.0,0.0,0.0,0.0,0.0,0.0,0.0,0.0,0.0,0.0,0.0,0.0,0.0,0.0,0.0,0.0,0.0,0.0,0.0,0.0,0.0,0.0,0.0,0.0,0.0,0.0,0.0,0.0,0.0,0.0,0.0,0.0,0.0,0.0,0.0,0.0,0.0,0.0,0.0,0.0,0.0,0.0,0.0,0.0,0.0,0.0,0.0,0.0,0.0,0.0,0.0,0.0,0.0,0.0,0.0,0.0,0.0,0.0,0.0,0.0,0.0,0.0,0.0,0.0,0.0,0.0,0.0,0.0,0.0,0.0,0.0,0.0,0.0,0.0,0.0,0.0,0.0,0.0,0.0,0.0,1.2695,1.3895,1.4586,1.4661,1.4408,1.3782,1.2538,1.1394,1.046,0.9811,0.0,0.0,0.0,0.0,0.0,0.0,0.0,0.0,0.0,0.0,0.0,0.0,0.0,0.0,0.0,0.0,0.0,0.0,0.0,0.0,0.0,0.0,0.0,0.0,0.0,0.0,0.0,0.0,0.0,0.0,0.0,0.0,0.0,0.0,0.0,0.0,0.0,0.0,0.0,0.0,0.0,0.0,0.0,0.0,0.0,0.0,0.0,0.0,0.0,0.0,0.0,0.0,0.0,0.0,0.0,0.0,0.0,0.0,0.0,0.0,0.0,0.0,0.0,0.0,0.0,0.0,0.0,0.0,0.0,0.0,0.0,0.0,0.0,0.0,0.0,0.0,0.0,0.0,0.0,0.0,0.0,0.0,0.0,0.0,0.0,0.0,0.0,0.0,0.0,0.0,0.0,0.0,0.0,0.0,0.0,0.0,0.0,0.0,0.0,0.0,0.0,0.0,1.2473,1.3736,0.0,1.4811,1.4528,1.3857,1.2942,1.1835,1.0492,0.0,0.0,0.0,0.0,0.0,0.0,0.0,0.0,0.0,0.0,0.0,0.0,0.0,0.0,0.0,0.0,0.0,0.0,0.0,0.0,0.0,0.0,0.0,0.0,0.0,0.0,0.0,0.0,0.0,0.0,0.0,0.0,0.0,0.0,0.0,0.0,0.0,0.0,0.0,0.0,0.0,0.0,0.0,0.0,0.0,0.0,0.0,0.0,0.0,0.0,0.0,0.0,0.0,0.0,0.0,0.0,0.0,0.0,0.0,0.0,0.0,0.0,0.0,0.0,0.0,0.0,0.0,0.0,0.0,0.0,0.0,0.0,0.0,0.0,0.0,0.0,0.0,0.0,0.0,0.0,0.0,0.0,0.0,0.0,0.0,0.0,0.0,0.0,0.0,0.0,0.0,0.0,0.0,0.0,0.0,0.0,0.0,0.0,0.0,0.0,0.0,0.0,1.1256,1.2532,1.3779,0.0,1.511,1.4766,1.3872,1.3193,1.2102,1.0415,0.0,0.0,0.0,0.0,0.0,0.0,0.0,0.0,0.0,0.0,0.0,0.0,0.0,0.0,0.0,0.0,0.0,0.0,0.0,0.0,0.0,0.0,0.0,0.0,0.0,0.0,0.0,0.0,0.0,0.0,0.0,0.0,0.0,0.0,0.0,0.0,0.0,0.0,0.0,0.0,0.0,0.0,0.0,0.0,0.0,0.0,0.0,0.0,0.0,0.0,0.0,0.0,0.0,0.0,0.0,0.0,0.0,0.0,0.0,0.0,0.0,0.0,0.0,0.0,0.0,0.0,0.0,0.0,0.0,0.0,0.0,0.0,0.0,0.0,0.0,0.0,0.0,0.0,0.0,0.0,0.0,0.0,0.0,0.0,0.0,0.0,0.0,0.0,0.0,0.0,0.0,0.0,0.0,0.0,0.0,0.0,0.0,0.0,0.0,0.0,0.0,0.0,1.1918,1.3093,1.4318,1.5664,1.5799,1.526,1.3902,1.3193,1.2037,0.0,0.0,0.0,0.0,0.0,0.0,0.0,0.0,0.0,0.0,0.0,0.0,0.0,0.0,0.0,0.0,0.0,0.0,0.0,0.0,0.0,0.0,0.0,0.0,0.0,0.0,0.0,0.0,0.0,0.0,0.0,0.0,0.0,0.0,0.0,0.0,0.0,0.0,0.0,0.0,0.0,0.0,0.0,0.0,0.0,0.0,0.0,0.0,0.0,0.0,0.0,0.0,0.0,0.0,0.0,0.0,0.0,0.0,0.0,0.0,0.0,0.0,0.0,0.0,0.0,0.0,0.0,0.0,0.0,0.0,0.0,0.0,0.0,0.0,0.0,0.0,0.0,0.0,0.0,0.0,0.0,0.0,0.0,0.0,0.0,0.0,0.0,0.0,0.0,0.0,0.0,0.0,0.0,0.0,0.0,0.0,0.0,0.0,0.0,0.0,0.0,0.0,0.0,1.1725,1.3011,1.4318,1.5664,1.5799,1.526,1.3902,1.363,1.2528,1.0248,0.0,0.0,0.0,0.0,0.0,0.0,0.0,0.0,0.0,0.0,0.0,0.0,0.0,0.0,0.0,0.0,0.0,0.0,0.0,0.0,0.0,0.0,0.0,0.0,0.0,0.0,0.0,0.0,0.0,0.0,0.0,0.0,0.0,0.0,0.0,0.0,0.0,0.0,0.0,0.0,0.0,0.0,0.0,0.0,0.0,0.0,0.0,0.0,0.0,0.0,0.0,0.0,0.0,0.0,0.0,0.0,0.0,0.0,0.0,0.0,0.0,0.0,0.0,0.0,0.0,0.0,0.0,0.0,0.0,0.0,0.0,0.0,0.0,0.0,0.0,0.0,0.0,0.0,0.0,0.0,0.0,0.0,0.0,0.0,0.0,0.0,0.0,0.0,0.0,0.0,0.0,0.0,0.0,0.0,0.0,0.0,0.0,0.0,0.0,0.0,0.0,0.0,1.164,1.296,1.4318,1.5664,1.5799,1.5379,1.4288,1.3947,1.2812,1.0519,0.0,0.0,0.0,0.0,0.0,0.0,0.0,0.0,0.0,0.0,0.0,0.0,0.0,0.0,0.0,0.0,0.0,0.0,0.0,0.0,0.0,0.0,0.0,0.0,0.0,0.0,0.0,0.0,0.0,0.0,0.0,0.0,0.0,0.0,0.0,0.0,0.0,0.0,0.0,0.0,0.0,0.0,0.0,0.0,0.0,0.0,0.0,0.0,0.0,0.0,0.0,0.0,0.0,0.0,0.0,0.0,0.0,0.0,0.0,0.0,0.0,0.0,0.0,0.0,0.0,0.0,0.0,0.0,0.0,0.0,0.0,0.0,0.0,0.0,0.0,0.0,0.0,0.0,0.0,0.0,0.0,0.0,0.0,0.0,0.0,0.0,0.0,0.0,0.0,0.0,0.0,0.0,0.0,0.0,0.0,0.0,0.0,0.0,0.0,0.0,0.0,0.0,1.164,1.302,1.4378,1.5664,1.5799,1.5529,1.4871,1.4199,1.2975,1.1032,0.0,0.0,0.0,0.0,0.0,0.0,0.0,0.0,0.0,0.0,0.0,0.0,0.0,0.0,0.0,0.0,0.0,0.0,0.0,0.0,0.0,0.0,0.0,0.0,0.0,0.0,0.0,0.0,0.0,0.0,0.0,0.0,0.0,0.0,0.0,0.0,0.0,0.0,0.0,0.0,0.0,0.0,0.0,0.0,0.0,0.0,0.0,0.0,0.0,0.0,0.0,0.0,0.0,0.0,0.0,0.0,0.0,0.0,0.0,0.0,1.1427,0.0,0.0,0.0,0.0,0.0,0.0,0.0,0.0,0.0,0.0,0.0,0.0,0.0,0.0,0.0,0.0,0.0,0.0,0.0,0.0,0.0,0.0,0.0,0.0,0.0,0.0,0.0,0.0,0.0,0.0,0.0,0.0,0.0,0.0,0.0,0.0,0.0,0.0,0.0,0.0,0.0,1.17,1.3421,1.4901,1.5709,1.5799,1.5529,1.4871,1.4199,1.3181,1.1685,1.0557,0.0,0.0,0.0,0.0,0.0,0.0,0.0,0.0,0.0,0.0,0.0,0.0,0.0,0.0,0.0,0.0,0.0,0.0,0.0,0.0,0.0,0.0,0.0,0.0,0.0,0.0,0.0,0.0,0.0,0.0,0.0,0.0,0.0,0.0,0.0,0.0,0.0,0.0,0.0,0.0,0.0,0.0,0.0,0.0,0.0,0.0,0.0,0.0,0.0,0.0,0.0,0.0,0.0,0.0,0.0,0.0,0.0,0.0,0.0,0.0,1.2189,0.0,0.0,0.0,0.0,0.0,0.0,0.0,0.0,0.0,0.0,0.0,0.0,0.0,0.0,0.0,0.0,0.0,0.0,0.0,0.0,0.0,0.0,0.0,0.0,0.0,0.0,0.0,0.0,0.0,0.0,0.0,0.0,0.0,0.0,0.0,0.0,0.0,0.0,0.0,0.0,1.216,1.3568,1.4813,1.5695,1.5595,1.5403,1.5291,1.4676,1.3705,1.237,1.1366,0.0,0.0,0.0,0.0,0.0,0.0,0.0,0.0,0.0,0.0,0.0,0.0,0.0,0.0,0.0,0.0,0.0,0.0,0.0,0.0,0.0,0.0,0.0,0.0,0.0,0.0,0.0,0.0,0.0,0.0,0.0,0.0,0.0,0.0,0.0,0.0,0.0,0.0,0.0,0.0,0.0,0.0,0.0,0.0,0.0,0.0,0.0,0.0,0.0,0.0,0.0,0.0,0.0,1.4542,1.4871,1.5816,1.4813,1.4731,1.5304,1.4352,1.4028,1.4104,1.3164,0.0,0.0,0.0,0.0,0.0,0.0,0.0,0.0,0.0,0.0,0.0,0.0,0.0,0.0,0.0,0.0,0.0,0.0,0.0,0.0,0.0,0.0,0.0,0.0,1.3861,1.3239,0.0,0.0,0.0,0.0,0.0,0.0,0.0,0.0,0.0,0.0,0.0,0.0,1.2819,1.3805,1.476,1.5695,1.5448,1.5389,1.577,1.5185,1.4287,1.3044,1.2235,1.0797,0.0,0.0,0.0,0.0,0.0,0.0,0.0,0.0,0.0,0.0,0.0,0.0,0.0,0.0,0.0,0.0,0.0,0.0,0.0,0.0,0.0,0.0,0.0,0.0,0.0,0.0,0.0,0.0,0.0,0.0,0.0,0.0,0.9522,1.0073,0.0,0.0,0.0,0.0,0.0,0.0,0.0,0.0,0.0,0.0,0.0,0.0,0.0,1.3481,1.4701,1.5277,1.5668,1.5856,1.627,1.6338,1.6062,1.5892,1.618,1.6854,1.7135,0.0,1.4861,1.4703,0.0,0.0,0.0,0.0,0.0,0.0,0.0,0.0,0.0,0.0,0.0,0.0,0.0,0.0,0.0,0.0,0.0,0.0,0.0,0.0,0.0,0.0,1.6256,1.5811,1.53,1.4886,0.0,1.2814,1.103,1.0634,1.0431,0.0,0.0,0.0,0.0,0.0,0.0,0.0,1.3558,1.4785,1.5636,1.5769,1.5741,1.5741,1.5784,1.5185,1.4468,1.372,1.2493,1.1386,1.0458,0.9452,0.0,0.0,0.0,0.0,0.0,0.0,0.0,0.0,0.0,0.0,0.0,0.0,0.0,0.0,0.0,0.0,0.0,0.0,0.0,0.0,0.0,0.0,0.0,0.0,0.0,0.0,0.0,0.0,0.0,0.9359,0.9787,1.007,1.0415,1.0384,0.0,0.0,0.0,0.0,0.0,0.0,0.0,0.0,0.0,1.4199,1.4299,1.4919,1.6163,1.6477,1.6802,1.7174,1.7441,1.7436,1.721,1.6917,1.6915,1.7196,1.715,1.6805,1.6314,1.6471,1.5931,1.4979,0.0,0.0,0.0,0.0,1.4051,1.4564,1.5046,1.5356,0.0,1.5154,0.0,0.0,0.0,0.0,0.0,0.0,0.0,0.0,0.0,0.0,1.6484,1.6589,1.6277,1.6004,1.6209,1.4876,1.323,0.0,1.1908,1.1654,1.0306,0.0,0.0,0.0,0.0,1.3374,1.3998,1.4987,1.5602,1.5538,1.532,1.5147,1.5087,1.5008,1.4687,1.4015,1.3312,1.2452,1.1405,1.0458,0.9494,0.0,0.0,0.0,0.0,0.0,0.0,0.0,0.0,0.0,0.0,0.0,0.0,0.0,0.0,0.0,0.0,0.0,0.0,0.0,0.0,0.0,0.0,0.0,0.0,0.0,0.0,0.0,0.0,1.0167,1.0707,1.0877,1.1595,1.1706,0.0,0.0,0.0,0.0,0.0,0.0,1.3528,1.3835,1.4463,1.5456,1.5506,1.6123,1.7372,1.7223,1.7542,1.8331,1.8187,1.8119,1.8103,1.7718,1.7518,1.7518,1.7251,1.7381,1.7718,1.7448,1.6926,1.6208,1.555,1.528,1.5288,1.54,1.5738,1.623,1.6884,1.7301,1.7461,1.6908,0.0,1.6697,1.5247,0.0,0.0,0.0,0.0,1.5008,1.6021,1.6346,1.6542,1.7033,1.6823,1.6579,1.6882,1.6316,1.5233,0.0,1.3452,1.3201,1.1499,0.0,0.0,0.0,0.0,1.4076,1.4692,1.5287,1.5626,1.552,1.5119,1.4816,1.4715,1.4852,1.4667,1.3998,1.3806,1.3174,1.1948,1.1258,1.0426,0.9398,0.0,0.0,0.0,0.0,0.0,0.0,0.0,0.0,0.0,0.0,0.0,0.0,0.0,0.0,0.0,0.0,0.0,0.0,0.0,0.0,0.0,0.0,0.0,0.0,0.0,0.0,0.0,0.0,0.0,1.3528,1.4751,0.0,0.0,0.0,0.0,1.3168,1.4287,1.5032,1.5077,1.5756,1.6173,1.6245,1.6378,1.6982,1.8117,1.7584,1.784,1.8942,1.8434,1.8185,1.8187,1.8163,1.814,1.8187,1.8659,1.8874,1.8788,1.7073,1.664,1.6982,1.6304,1.604,1.6054,1.6045,1.6473,1.7033,1.7073,1.7105,1.7306,1.8394,1.8259,1.7639,1.7518,1.6755,0.0,0.0,1.641,1.6954,1.7042,1.7127,1.7253,1.728,1.6891,1.6514,1.6536,1.6489,1.6166,0.0,1.4828,1.4491,1.4073,0.0,1.3881,1.4849,1.5063,1.5332,1.5936,1.6041,1.6082,1.6059,1.5589,1.5267,1.5257,1.4816,1.4239,1.3572,1.3531,1.3109,1.2213,1.1547,1.1034,1.0708,0.9488,0.0,0.0,0.0,0.0,0.0,0.0,0.0,0.0,0.0,0.0,0.0,0.0,0.0,0.0,0.0,0.0,0.0,0.0,0.0,0.0,0.0,0.0,0.0,0.0,0.0,0.0,0.0,0.0,1.4051,1.516,0.0,1.3905,1.4308,1.4634,1.4501,1.5133,1.5639,1.5891,1.6602,1.6999,1.6999,1.7402,1.7794,1.8191,1.7986,1.8076,1.8484,1.828,1.8213,1.8204,1.8204,1.8204,1.8204,1.8403,1.8484,1.8446,1.7788,1.783,1.831,1.8054,1.7975,1.7911,1.7575,1.8044,1.8747,1.8057,1.8007,1.8267,1.8358,1.82,1.7959,1.7959,1.766,1.7362,1.7362,1.729,1.7237,1.7237,1.7023,1.6795,1.6795,1.6637,1.65,1.65,1.65,1.6397,1.6096,1.5665,1.5145,1.4507,1.4451,1.4541,1.4717,1.5188,1.5601,1.5795,1.6144,1.6235,1.588,1.566,1.5283,1.4592,1.4593,1.4389,1.38,1.3274,1.2844,1.2537,1.1714,1.1034,1.0554,1.0273,0.9599,0.0,0.0,0.0,0.0,0.0,0.0,0.0,0.0,0.0,0.0,0.0,0.0,0.0,0.0,0.0,0.0,0.0,0.0,0.0,0.0,0.0,0.0,0.0,0.0,0.0,0.0,1.5338,1.4902,1.5965,1.6233,1.5036,1.5217,1.5504,1.5634,1.6023,1.6384,1.6651,1.7305,1.7664,1.7664,1.8016,1.8292,1.8456,1.8292,1.8392,1.8744,1.8568,1.8568,1.8744,1.8744,1.8744,1.8744,1.8744,1.8744,1.8744,1.8744,1.8949,1.9221,1.8882,1.8727,1.8681,1.8333,1.8647,1.9171,1.845,1.8513,1.887,1.852,1.8522,1.8673,1.8673,1.8542,1.8398,1.8398,1.7887,1.7333,1.7333,1.6927,1.65,1.65,1.65,1.65,1.65,1.65,1.65,1.65,1.6199,1.5792,1.5261,1.5316,1.5371,1.5203,1.5633,1.5969,1.5969,1.6274,1.635,1.6007,1.5806,1.5349,1.4437,1.4446,1.4245,1.3704,1.2988,1.2556,1.2469,1.1801,1.1155,1.0583,1.0522,0.9923,0.872,0.0,0.0,0.0,0.0,0.0,0.0,0.0,0.0,0.0,0.0,0.0,0.0,0.0,0.0,0.0,0.0,0.0,0.0,0.0,0.0,0.0,0.0,0.0,1.4054,1.5693,1.6708,1.6172,1.7273,1.7629,1.6441,1.6907,1.7081,1.6581,1.7087,1.7423,1.7423,1.7928,1.8229,1.8229,1.8242,1.8505,1.902,1.8518,1.8781,1.9798,1.9271,1.9284,1.9798,1.9798,1.9811,1.9823,1.9823,1.9836,1.9849,1.9836,1.9823,1.9723,1.8668,1.8254,1.8254,1.8254,1.8254,1.8254,1.8242,1.8556,1.8992,1.8979,1.9338,1.976,1.976,1.9382,1.8966,1.8966,1.8225,1.7423,1.7423,1.6986,1.655,1.6525,1.6525,1.6525,1.65,1.65,1.65,1.65,1.65,1.65,1.65,1.65,1.65,1.65,1.65,0.0,1.65,1.65,1.65,1.65,1.6045,1.5512,1.4959,1.4425,1.3871,1.3261,1.2689,1.2269,1.2022,1.1804,1.1442,1.0938,1.0255,0.9418,0.8442,0.0,0.0,0.0,0.0,0.0,0.0,0.0,0.0,0.0,0.0,0.0,0.0,0.0,0.0,0.0,0.0,0.0,0.0,0.0,0.0,0.0,1.4629,1.5394,1.5056,1.6182,1.6867,1.6434,1.7066,1.7418,1.7135,1.7257,1.7479,1.7702,1.789,1.7978,1.7978,1.8481,1.8782,1.8782,1.9171,1.9434,1.9585,1.9434,1.951,1.9798,1.966,1.966,1.9798,1.9798,2.0037,2.0453,2.0453,2.0679,2.0991,2.0616,2.0453,2.0377,1.9635,1.9359,1.9359,1.9359,1.9359,1.9309,1.8907,1.8867,1.8937,1.8554,1.8508,1.8647,1.8647,1.8531,1.8427,1.8427,1.8208,1.7978,1.7978,1.7865,1.7639,1.7237,1.7149,1.7024,1.6588,1.65,1.65,1.65,1.65,1.65,1.65,1.65,1.65,1.65,1.65,0.0,1.65,1.65,1.65,1.65,1.6362,1.607,1.5537,1.4984,1.445,1.3896,1.2571,1.1961,1.2279,1.1684,1.1374,1.1484,1.0439,0.977,0.0,0.0,0.0,0.0,0.0,0.0,0.0,0.0,0.0,0.0,0.0,0.0,0.0,0.0,0.0,0.0,0.0,0.0,0.0,0.0,0.0,0.0,1.5491,1.6201,1.6224,1.7015,1.7394,1.6923,1.7348,1.7696,1.7735,1.7727,1.7852,1.8179,1.8417,1.8531,1.8531,1.9033,1.9334,1.9334,1.9648,1.9911,2.0162,2.0189,2.0275,2.0514,2.0514,2.0514,2.0514,2.0514,2.069,0.0,2.1043,2.1219,2.1496,2.1169,2.1043,0.0,0.0,0.0,0.0,0.0,1.9798,1.9761,1.9434,1.9334,1.9271,1.8982,1.8882,1.8882,1.8882,1.8882,1.8882,1.8882,1.8719,1.8531,1.8531,1.838,1.8129,1.7802,1.7574,1.731,1.6948,1.6685,1.65,1.65,1.65,0.0,1.65,1.65,1.65,1.65,1.65,1.65,1.65,1.65,1.65,1.65,1.65,1.6274,1.5743,1.5211,0.0,0.0,0.0,1.2026,1.2214,1.1677,0.0,0.0,0.0,0.0,0.0,0.0,0.0,0.0,0.9058,0.921,0.0,0.0,0.0,0.0,0.0,0.0,0.0,0.0,0.0,0.0,0.0,0.0,0.0,0.0,0.0,0.0,1.6062,1.6672,1.7393,1.7952,1.8085,1.7544,1.7903,1.8229,1.8268,1.8292,1.8329,1.838,1.882,1.9121,1.9183,0.0,0.0,0.0,0.0,2.0238,2.0779,2.0779,2.1031,2.1493,2.1493,2.1493,2.1493,2.1493,2.1518,2.1581,2.1581,2.1619,2.1669,2.1606,2.1543,2.1393,2.0388,1.9949,1.9899,1.9899,1.9861,1.9798,1.9798,0.0,0.0,1.9798,1.9798,1.9798,1.9798,1.9798,1.9798,1.9798,1.9472,1.9096,1.9096,1.8732,1.838,1.8304,1.7928,1.7561,1.7436,1.6974,1.6575,1.65,1.65,1.65,1.65,1.65,1.65,1.65,1.65,1.65,1.65,1.65,1.65,1.65,0.0,0.0,1.5831,1.5299,1.479,1.4299,1.3224,1.2456,1.2147,1.1854,1.1936,1.248,1.1901,1.1712,1.1954,1.1954,1.1993,1.2006,1.0619,1.0528,0.0,0.0,0.0,0.0,0.0,0.0,0.0,0.0,0.0,0.0,0.0,0.0,0.0,0.0,0.0,1.6663,1.7038,1.7387,1.7976,1.8513,1.8663,1.8103,1.8141,1.838,1.8795,1.8845,1.902,1.9459,1.9597,1.9861,2.0352,2.0465,2.0729,2.1154,2.1154,2.1217,2.133,2.1358,2.1408,2.1493,0.0,0.0,2.1493,2.1493,2.1732,2.2159,2.2159,2.2397,2.2757,2.2305,2.1895,2.1496,2.1242,2.0918,2.0528,2.0528,2.0226,1.9798,1.9798,1.9798,1.9798,1.9798,1.9798,1.9798,1.9798,1.9798,0.0,1.9798,1.9736,1.966,1.966,1.9572,1.9384,1.8945,1.877,1.8444,1.7599,1.7322,1.7074,1.6588,1.65,1.65,1.65,1.65,1.65,1.65,1.65,1.65,1.65,1.65,1.65,1.65,1.65,1.645,1.635,1.5856,1.5512,1.5399,1.4356,1.3536,1.2986,1.2495,1.2288,1.2418,1.1878,1.1633,1.168,1.168,1.1893,1.231,1.1793,1.1675,0.0,0.0,0.0,0.0,0.0,0.0,0.0,0.0,0.0,0.0,0.0,1.4938,1.5992,0.0,1.6606,1.7564,1.7761,1.799,1.8519,1.8832,1.8907,1.8619,1.8844,1.9108,1.9359,1.9673,1.9962,2.0239,2.0489,2.0778,2.1081,2.1106,2.1232,2.1481,2.1493,2.1619,2.1895,2.1895,2.2046,2.2309,2.2309,2.2309,2.2309,2.2309,2.246,2.2694,2.2694,2.2844,2.3083,2.2807,2.2531,2.2309,2.2309,2.1807,2.1106,2.1106,2.0918,2.0639,2.0639,2.0639,2.0602,2.0352,2.0264,2.0175,1.9886,1.9798,1.9798,1.9798,1.9798,1.9798,1.9798,1.9798,1.9736,1.9447,1.9196,1.8857,1.8329,1.7765,1.7322,1.7011,1.6722,1.65,1.65,1.65,1.65,1.65,1.65,1.65,1.65,1.65,1.65,1.65,1.65,1.65,1.65,1.6019,1.558,1.5324,1.4802,1.4356,1.4061,1.3785,1.3647,1.3647,1.3111,1.2973,1.325,1.299,1.3124,1.3652,1.3505,1.3313,0.0,0.0,0.0,0.0,0.0,0.0,0.0,1.3155,1.3599,1.5274,1.5708,1.6104,1.7188,1.7389,1.7608,1.8239,1.8367,1.8531,1.907,1.9158,1.9158,1.9158,1.9547,1.9849,1.9962,2.0415,2.0729,2.0842,2.127,2.1543,2.1644,2.1644,2.1694,2.1807,2.1807,2.202,2.2443,2.2472,2.2669,2.3108,2.3108,2.3108,2.3108,2.3108,2.3108,2.3108,2.3108,2.3108,2.3108,2.3108,2.3108,2.3108,2.3108,2.2556,2.1794,2.1681,2.1581,2.1493,2.1493,2.1493,2.1446,2.0993,2.0855,2.0767,2.0275,2.0062,1.9962,1.9962,1.9886,1.9798,1.9798,1.9798,1.9798,1.9798,1.9459,1.9121,1.902,1.8329,1.7662,1.7448,1.6999,1.6647,1.6513,1.65,1.65,1.65,1.65,1.65,1.65,1.65,1.65,1.65,1.65,1.65,1.65,1.6107,1.5668,1.5236,1.511,1.5047,1.5047,1.4947,1.4896,1.4896,1.4475,1.4462,1.4896,1.4462,1.4475,1.4896,1.4896,1.4676,1.3118,1.3071,1.3195,1.3253,1.3584,1.4266,0.0,1.5845,1.5967,1.6948,1.7519,1.79,1.8063,1.8086,1.8264,1.8807,1.8907,1.9096,1.9648,1.971,1.971,1.971,1.9761,1.9999,2.0541,2.0654,2.0893,2.1355,2.1455,2.1707,2.2196,2.2221,2.2447,2.2907,2.292,2.2945,2.3007,2.3007,2.3045,2.3108,2.3108,2.3108,2.3108,2.3108,2.3108,2.3108,2.3108,2.3108,2.3108,2.3108,2.3108,2.3108,2.3108,2.3032,2.2857,2.2397,2.1907,2.1493,2.1493,2.1493,2.1481,2.1446,2.1393,2.1408,2.1317,2.0981,2.0591,2.0591,2.02,1.9798,1.9798,1.9798,1.9798,1.9798,1.9761,1.9585,1.9108,1.8907,1.8531,1.7564,1.736,1.7124,1.6588,1.65,1.65,1.65,1.65,1.65,1.65,1.65,1.65,1.65,1.65,1.65,1.65,1.6437,1.6375,1.6312,1.5869,1.5605,1.5605,1.5148,1.4896,1.4896,1.4833,1.4833,1.4896,1.484,1.4833,1.4896,1.4896,1.4878,1.5533,1.507,1.4577,1.4744,1.5165,1.5723,1.6351,1.6672,1.7046,1.7743,1.8025,1.8295,1.8605,1.8657,1.8832,0.0,1.9761,2.0088,2.0302,2.0327,2.0327,2.0327,2.0012,2.0024,2.0629,2.0981,2.1408,2.1933,2.2259,2.2518,2.2744,2.2757,2.2869,2.3095,2.3108,2.3108,2.3108,2.3108,2.3108,2.3108,2.3108,2.3108,2.3108,2.3108,2.3108,2.3108,2.3108,2.3108,2.3108,2.3108,2.3108,2.3108,2.3108,2.3108,2.3083,2.2844,2.2606,2.2447,2.2447,2.2447,2.2397,2.2071,2.197,2.1907,2.1581,2.1358,2.1106,2.0779,2.0515,2.0251,1.9886,1.9798,1.9798,1.9798,1.9798,1.9748,1.9497,1.9221,1.877,1.8016,1.7601,1.72,1.66,1.65,1.65,1.65,1.65,1.65,1.65,1.65,1.65,1.65,1.65,1.65,1.65,1.65,1.65,1.65,1.6287,1.617,1.617,1.5957,1.5831,1.5831,1.5517,1.5525,1.5831,1.5525,1.5537,1.5831,1.5831,1.5831,1.6609,1.6341,1.6007,1.5939,1.6459,1.6964,1.6964,1.7313,1.7765,1.8317,1.8406,1.8569,1.9121,1.9221,1.9384,1.9949,2.0415,2.0742,2.0893,2.0792,2.0691,2.0691,2.0189,2.0087,2.0842,2.1282,2.1782,2.2456,2.2882,2.3108,2.3108,2.3108,2.3108,2.3108,2.3108,2.3108,2.3108,2.3108,2.3183,2.3346,2.3346,2.3346,2.3333,2.3183,2.3108,2.3108,2.3108,2.3108,2.3108,2.3108,2.3108,2.3108,2.3108,2.3108,2.3108,2.3108,2.3108,2.3108,2.3108,2.3108,2.3045,2.2644,2.2506,2.2443,2.2071,2.1832,2.1631,2.1257,2.093,2.0591,2.015,1.9924,1.9798,1.9798,1.9798,1.9798,1.9798,1.9484,1.9058,1.8506,1.799,1.7426,1.6861,1.66,1.65,1.65,1.65,1.65,1.65,1.65,1.65,1.65,1.65,1.65,1.65,1.65,1.65,1.65,1.65,1.65,1.65,1.65,1.65,1.65,1.612,1.612,1.65,1.612,1.6132,1.65,1.65,1.65,1.5243,1.6124,1.7197,1.6622,1.7325,1.8154,1.8154,1.8166,1.8342,1.887,1.8983,1.9133,1.9685,1.9773,1.9962,2.0566,2.0679,2.088,2.1393,2.1031,2.0691,2.0691,2.0189,2.0238,0.0,2.1481,2.1945,2.2995,2.3095,2.3108,2.3108,2.3108,2.3108,2.3108,2.3108,2.3108,2.3108,2.3108,2.3384,2.3966,2.3966,2.3966,2.3954,2.3358,2.3108,2.3108,2.3108,2.3108,2.3108,2.3108,2.3108,2.3108,2.3108,2.3108,2.3108,2.3108,2.3108,2.3108,2.3108,2.3108,2.3108,2.3083,2.3083,2.3083,2.3058,2.2681,2.2255,2.2272,2.1493,2.0691,2.0666,2.0251,1.9798,1.9798,1.9798,1.9798,1.9798,1.9798,1.9623,1.9083,1.8531,1.8003,1.7473,1.6886,1.65,1.65,1.65,1.65,1.65,1.65,1.65,1.65,1.65,1.65,1.65,1.65,1.65,1.65,1.65,1.65,1.65,1.65,1.65,1.65,1.6475,1.6475,1.65,1.6475,1.6475,1.65,1.65,1.65,1.6355,1.6672,1.6948,1.7501,1.8168,1.8719,1.8719,1.902,1.9309,1.9497,1.9246,1.9058,1.9233,1.9259,1.9434,1.9999,2.0754,2.1405,2.1958,2.1882,2.1619,2.1282,2.1041,0.0,0.0,0.0,0.0,2.302,2.3108,2.3108,2.3108,2.3108,2.3283,2.369,2.3703,2.386,2.4211,2.4224,2.4324,2.4544,2.4544,2.4356,2.3991,2.3803,2.3471,2.3108,2.3108,2.3108,2.3108,2.3108,2.3108,2.3108,2.3108,2.3108,2.3108,2.3108,2.3108,2.3108,2.3108,2.3108,2.3108,2.3108,2.3108,2.3108,2.3108,2.297,2.2757,2.2393,2.2046,2.1594,2.088,2.0541,2.0302,1.9899,1.9798,1.9798,1.9798,1.9798,1.9648,1.9108,1.8857,1.8556,1.8028,1.7765,1.7513,1.7149,1.676,1.65,1.65,1.65,1.65,1.65,1.65,1.65,1.65,1.65,1.65,1.65,1.65,1.65,1.65,1.65,1.65,1.65,1.65,1.65,1.65,1.65,1.65,1.65,1.65,1.65,1.7109,1.74,1.7566,1.8293,1.8882,1.9284,1.9284,1.956,1.9748,1.956,1.9233,1.8945,1.8744,1.8707,1.9008,1.9962,2.0754,2.1559,2.2443,2.2406,2.2184,2.1832,2.1606,2.1568,0.0,0.0,0.0,2.3032,2.3108,2.3195,2.3396,2.3409,2.3703,2.428,2.4293,2.4456,2.4788,2.4788,2.4888,2.5096,2.5096,2.4921,2.4569,2.4381,2.4061,2.3697,2.3496,2.3409,2.3396,2.3195,2.3108,2.3108,2.3108,2.3108,2.3108,2.3108,2.3108,2.3108,2.3108,2.3108,2.3108,2.3108,2.3108,2.3108,2.3108,2.3108,2.3032,2.2681,2.246,2.2146,2.1443,2.0993,2.0591,2.02,1.9949,1.9798,1.9798,1.9798,1.971,1.9346,1.9133,1.8895,1.8555,1.8342,1.8078,1.7727,1.7187,1.6748,1.6525,1.65,1.65,1.65,1.65,1.65,1.65,1.65,1.65,1.65,1.65,1.65,1.65,1.65,1.65,1.65,1.65,1.65,1.65,1.65,1.65,1.65,1.65,1.65,1.7461,1.8229,1.9008,1.9033,1.9409,1.9798,1.9798,1.9786,1.9623,1.9108,1.8958,1.8757,0.0,0.0,1.8744,2.039,2.0691,2.1307,2.2882,2.2656,2.2347,0.0,0.0,0.0,0.0,0.0,0.0,2.3145,0.0,2.3396,2.3966,2.4029,2.4293,2.4813,2.4825,2.4838,2.4876,2.4876,2.5146,2.5636,2.5636,2.5624,2.5573,2.5084,2.4813,2.4763,2.4268,2.4042,2.4004,2.3409,2.3195,2.3195,2.3195,2.317,2.3158,2.3183,2.3158,2.3108,2.3145,2.3133,2.3108,2.3108,2.3108,2.3108,2.3108,2.3108,2.3108,2.3108,2.2732,2.2347,2.2322,2.1531,2.0767,2.0704,2.0264,1.9836,1.9811,1.9798,1.9798,1.9798,1.9384,1.9045,1.9045,1.8606,1.8242,1.8242,1.7777,1.7212,1.6613,1.6513,1.65,1.65,1.65,1.65,1.65,1.65,1.65,1.65,1.65,1.65,1.65,1.65,1.65,1.65,1.65,1.65,1.65,1.65,1.65,1.65,1.65,1.65,1.8243,1.8795,1.9096,1.951,1.971,1.9798,1.9798,1.9497,1.9171,1.9033,1.8356,1.7765,1.7614,1.7928,1.8606,1.9823,2.0727,0.0,2.2932,2.2982,0.0,2.2359,0.0,2.2744,2.2882,2.3283,0.0,0.0,2.4017,2.3841,2.3991,2.4393,2.4858,2.5385,2.5398,2.5598,2.6072,2.6084,2.6147,2.6273,2.6273,2.6047,2.5586,2.546,2.5197,2.4775,2.4669,2.4587,2.4562,2.4424,2.4362,2.4362,2.4362,2.4111,2.3828,2.4211,2.3835,2.3158,2.3597,2.3471,2.3108,2.3108,2.3108,2.3108,2.3108,2.3108,2.3108,2.3108,2.3007,2.2794,2.2393,2.2108,2.1681,2.0893,2.0578,2.0352,1.9899,1.9798,1.9798,1.9798,1.9698,1.961,1.961,1.9146,1.8795,1.8795,1.8342,1.779,1.7237,1.6785,1.65,1.65,1.65,1.65,1.65,1.65,1.65,1.65,1.65,1.65,1.65,1.65,1.65,1.65,1.65,1.65,1.65,1.65,1.65,1.65,1.65,1.65,1.902,1.9547,1.9823,2.0138,2.0175,2.0049,1.9572,1.9208,1.887,1.8405,1.7815,1.7322,1.7049,1.7463,1.8204,1.9284,0.0,0.0,2.2594,2.2945,2.3083,0.0,2.3326,0.0,2.3822,2.4136,2.4494,0.0,2.4531,2.4456,2.4682,2.4996,2.541,2.5996,2.5975,2.6172,2.6499,2.6499,2.6499,2.6499,2.6499,2.6323,2.5975,2.5975,2.5812,2.5523,0.0,2.5159,2.5146,2.4888,2.4788,2.4788,2.4788,2.4632,2.4368,2.4431,2.4054,2.3496,2.359,2.3371,2.3108,2.3108,2.3108,2.3108,2.3108,2.3108,2.3108,2.3108,2.3108,2.3032,2.2732,2.2498,2.2096,2.1257,2.0867,2.0528,1.9924,1.9798,1.9798,1.9798,1.9798,1.9798,1.9798,1.956,1.9334,1.9334,1.8882,1.8455,1.8141,1.74,1.6898,1.6898,1.6651,1.65,1.65,1.65,1.65,1.65,1.65,1.65,1.65,1.65,1.65,1.65,1.65,1.65,1.65,1.65,1.65,1.65,1.65,1.65,1.9773,2.0365,2.0779,2.0717,2.0691,2.0402,1.9259,1.8945,1.8607,1.7624,1.7348,1.7112,1.6588,1.6986,1.7739,1.882,0.0,2.0993,2.2146,2.2694,2.3233,2.3916,2.4004,2.4243,2.4838,2.4888,2.4926,2.5034,2.5046,2.5197,2.5573,2.5674,2.5971,2.6474,2.6499,2.6499,2.6499,2.6499,2.6499,2.6499,2.6499,2.6499,2.6499,2.6499,2.6499,2.6461,2.5971,0.0,2.5674,2.5222,2.5046,2.5046,2.5046,2.4996,2.4838,2.4469,2.423,2.4042,2.3509,2.3283,2.3208,2.3133,2.3108,2.3108,2.3108,2.3108,2.3108,2.3108,2.3108,2.3108,2.3108,2.2744,2.2284,2.1732,2.1257,2.0754,2.015,1.9974,1.9899,1.9823,1.9798,1.9798,1.9798,1.9798,1.9798,1.9798,1.9384,1.9108,1.9108,1.8179,1.7511,1.7511,1.6974,1.6613,1.6613,1.6538,1.65,1.65,1.65,1.65,1.65,1.65,1.65,1.65,1.65,1.65,1.65,1.65,1.65,1.65,1.65,1.65,2.039,2.0955,2.1257,2.0805,2.0691,2.0402,1.9259,1.8657,1.8166,1.7536,1.6999,1.6613,1.6513,1.6986,1.7739,1.882,1.9547,2.0501,2.2083,2.2397,2.2836,0.0,2.4004,2.4381,2.5372,2.546,0.0,0.0,0.0,2.6034,2.5611,2.6084,2.6386,2.6499,2.6499,2.6499,2.6499,2.6499,2.6499,2.6499,2.6499,2.6499,2.6499,2.6499,2.6499,2.6487,2.6386,0.0,2.6336,2.6248,2.621,2.621,2.621,2.5921,2.5511,2.5933,2.546,2.4637,2.4525,2.4199,2.3766,2.3258,2.3108,2.3108,2.3108,2.3108,2.3108,2.3108,2.3108,2.3108,2.3108,2.3032,2.2832,2.2297,2.2096,2.187,2.1317,2.0867,2.0402,1.9899,1.9798,1.9798,1.9798,1.9798,1.9798,1.9798,1.9723,1.966,1.966,1.8731,1.8066,1.8066,1.7564,1.7237,1.7237,1.6798,1.65,1.65,1.65,1.65,1.65,1.65,1.65,1.65,1.65,1.65,1.65,1.65,1.65,1.65,1.65,1.65,2.0968,2.1493,2.1782,2.1257,2.0905,2.0327,1.892,1.8179,1.7614,1.7049,1.671,1.65,1.65,1.6986,1.7574,1.8078,1.8832,1.9874,2.1255,2.1707,2.2523,2.4217,2.4431,2.4858,2.5971,2.6084,2.6197,0.0,0.0,2.6373,2.6097,2.6348,2.6499,2.6499,2.6499,2.6499,2.6499,2.6499,2.6499,2.6499,2.6499,2.6499,2.6499,2.6499,2.6499,2.6499,2.6499,0.0,2.6499,2.6499,2.6499,2.6499,2.6499,2.6323,2.6084,2.6047,2.5674,2.5146,2.4594,2.4217,2.3904,2.3296,2.3108,2.3108,2.3108,2.3108,2.3108,2.3108,2.3108,2.3108,2.3108,2.3108,2.2957,2.2447,2.2096,2.1807,2.1543,2.1081,2.0603,2.0327,2.0012,1.9798,1.9798,1.9798,1.9798,1.9798,1.9798,1.9798,1.9798,1.9359,1.8932,1.8656,1.8141,1.7815,1.7815,1.73,1.6974,1.6974,1.6663,1.65,1.65,1.65,1.65,1.65,1.65,1.65,1.65,1.65,1.65,1.65,1.65,1.65,2.1333,2.1895,2.2184,2.1631,2.1106,2.0264,1.8581,1.7777,1.7234,1.6613,1.65,1.65,1.65,1.6886,1.726,1.7385,1.8204,1.9271,2.0515,2.1169,2.2322,2.4525,2.4788,0.0,2.6386,2.6499,0.0,0.0,0.0,0.0,2.6499,2.6499,2.6499,2.6499,2.6499,2.6499,2.6499,2.6499,2.6499,2.6499,2.6499,2.6499,2.6499,2.6499,2.6499,2.6499,2.6499,0.0,0.0,2.6499,2.6499,2.6499,2.6499,2.6499,2.6436,2.5984,2.5699,2.546,2.4506,2.4104,2.3904,2.3296,2.3108,2.3108,2.3108,2.3108,2.3108,2.3108,2.3108,2.3108,2.3108,2.3108,2.2995,2.2556,2.2159,2.1807,2.1694,2.1358,2.1018,2.0893,2.0402,1.9987,1.9987,1.9886,1.9798,1.9798,1.9798,1.9798,1.9798,1.9798,1.9648,1.9208,1.8682,1.838,1.838,1.7877,1.7574,1.7574,1.7137,1.6801,1.671,1.6697,1.6626,1.65,1.65,1.65,1.65,1.65,1.65,1.65,1.65,1.65,2.1192,2.1895,2.2184,2.1631,2.1106,2.0264,1.8581,1.7777,1.7234,1.6613,1.65,1.65,1.65,1.6538,1.6773,1.7322,1.789,1.8844,2.0465,2.1169,2.2322,2.4525,0.0,0.0,2.6386,2.6499,0.0,0.0,0.0,0.0,2.6499,2.6499,2.6499,2.6499,2.6499,2.6499,2.6499,2.6499,2.6499,2.6499,2.6499,2.6499,2.6499,2.6499,2.6499,2.6499,2.6499,0.0,0.0,2.6499,2.6499,2.6499,2.6499,2.6499,2.6487,2.6436,2.6084,2.5511,2.4946,2.4418,2.3904,2.3296,2.3108,2.3108,2.3108,2.3108,2.3108,2.3108,2.3108,2.3108,2.3108,2.3108,2.3095,2.3045,2.2995,2.2819,2.2347,2.2196,2.202,2.1506,2.0993,2.0616,2.0616,2.015,1.9798,1.9798,1.9798,1.9798,1.9798,1.9798,1.9786,1.9736,1.9233,1.8933,1.8933,1.8418,1.8129,1.8129,1.8078,1.7827,1.7348,1.7322,1.7049,1.65,1.65,1.65,1.65,1.65,1.65,1.65,1.65,1.65,2.0805,2.1393,2.1681,2.1157,2.0326,1.9422,1.843,1.7501,1.6798,1.655,1.65,1.65,1.65,1.65,1.6575,1.6823,1.7049,1.7652,1.8995,1.966,2.0953,2.3471,2.4117,0.0,0.0,0.0,0.0,0.0,0.0,0.0,2.6499,2.6499,2.6499,2.6499,2.6499,2.6499,2.6499,2.6499,2.6499,2.6499,2.6499,2.6499,2.6499,2.6499,2.6499,2.6499,2.6499,0.0,0.0,2.6499,2.6499,2.6499,2.6499,2.6499,2.6499,2.6499,2.6135,2.5523,2.5008,2.4456,2.3904,2.3296,2.3108,2.3108,2.3108,2.3108,2.3108,2.3108,2.3108,2.3108,2.3108,2.3108,2.3108,2.3108,2.3108,2.3045,2.2832,2.2518,2.2246,2.202,2.1543,2.1182,2.1182,2.0717,2.0352,2.0352,2.0024,1.9798,1.9798,1.9798,1.9798,1.9798,1.9623,1.9497,1.9497,1.8983,1.8669,1.8669,1.8392,1.8103,1.789,1.7877,1.7614,1.7049,1.7036,1.6861,1.65,1.65,1.65,1.65,1.65,1.65,2.0239,2.0842,2.1182,2.0792,1.9836,1.8857,1.8329,1.7325,1.65,1.65,1.65,1.65,1.65,1.65,1.65,1.65,1.6638,1.7162,1.8268,1.8895,2.0136,2.2569,0.0,2.4155,0.0,0.0,0.0,0.0,0.0,0.0,2.6499,2.6499,2.6499,2.6499,2.6499,2.6499,2.6499,2.6499,2.6499,2.6499,2.6499,2.6499,2.6499,2.6499,2.6499,2.6499,2.6499,0.0,0.0,2.6499,2.6499,2.6499,2.6499,2.6499,2.6499,2.6499,2.6135,2.5523,2.5008,2.4456,2.3904,2.3296,2.3108,2.3108,2.3108,2.3108,2.3108,2.3108,2.3108,2.3108,2.3108,2.3108,2.3108,2.3108,2.3108,2.3108,2.3108,2.2794,2.2531,2.2531,2.2108,2.1732,2.1732,2.1307,2.0943,2.0943,2.0453,2.0062,2.0062,1.9911,1.9798,1.9798,1.9798,1.9798,1.9798,1.9434,1.9233,1.9233,1.8894,1.8606,1.8455,1.8455,1.8191,1.7662,1.7626,1.7426,1.6989,1.6989,1.6989,1.6989,1.6989,1.6989,1.9522,2.0264,2.0704,2.0691,1.9836,1.8857,1.8329,1.7325,1.65,1.65,1.65,1.65,1.65,1.65,1.65,1.65,1.6999,1.7765,1.8845,1.9434,2.0426,0.0,0.0,2.2987,2.4669,0.0,0.0,0.0,0.0,0.0,2.6499,2.6499,2.6499,2.6499,2.6499,2.6499,2.6499,2.6499,2.6499,2.6499,2.6499,2.6499,2.6499,2.6499,2.6499,0.0,0.0,0.0,0.0,2.6499,2.6499,2.6499,2.6499,2.6499,2.6499,2.6499,2.6135,2.5523,2.5008,2.4456,2.3904,2.3296,2.3108,2.3108,2.3108,2.3108,2.3108,2.3108,2.3108,2.3108,2.3108,2.3108,2.3108,2.3108,2.3108,2.3108,2.3108,2.3095,2.3095,2.3095,2.2656,2.2297,2.2297,2.1845,2.1481,2.1481,2.1031,2.0679,2.0679,2.0189,1.9798,1.9798,1.9798,1.9798,1.9798,1.9798,1.9798,1.9798,1.9786,1.956,1.9008,1.8995,1.8732,1.8204,1.8191,1.8191,1.8191,1.8191,1.8191,1.8191,1.8191,1.8191,1.8518,1.8844,1.8982,1.8982,1.8442,1.7852,1.7677,1.7061,1.65,1.65,1.65,1.65,1.65,1.65,1.6647,1.7049,1.7285,1.7662,0.0,0.0,0.0,2.2108,2.3991,2.5393,0.0,0.0,0.0,0.0,0.0,0.0,2.6499,2.6499,2.6499,2.6499,2.6499,2.6499,2.6499,2.6499,2.6499,2.6499,2.6499,2.6499,2.6499,2.6499,2.6499,0.0,0.0,0.0,0.0,2.6499,2.6499,2.6499,2.6499,2.6499,2.6499,2.6499,2.5896,2.5046,2.485,2.4173,2.3346,2.3158,2.3108,2.3108,2.3108,2.3108,2.3108,2.3108,2.3108,2.3108,2.3108,2.3108,2.3108,2.3108,2.3108,2.3108,2.3108,2.3108,2.3108,2.3108,2.2957,2.2844,2.2844,2.2393,2.2046,2.2046,2.1581,2.1257,2.1257,2.0767,2.0415,2.0415,2.0037,1.9798,1.9798,1.9798,1.9798,1.9798,1.9798,1.9723,1.956,1.956,1.9284,1.8757,1.8744,1.8556,1.8204,1.8204,1.8204,1.8204,1.8204,1.8204,1.7626,1.8053,1.8204,1.8204,1.779,1.741,1.741,1.6936,1.65,1.65,1.65,1.65,1.65,1.65,1.6613,1.6999,1.7049,1.7325,0.0,0.0,0.0,2.2083,0.0,0.0,0.0,0.0,0.0,0.0,0.0,0.0,2.6499,2.6499,2.6499,2.6499,2.6499,2.6499,2.6499,2.6499,2.6499,2.6499,2.6499,2.6499,2.6499,2.6499,2.6499,0.0,0.0,0.0,0.0,2.6499,2.6499,2.6499,2.6499,2.6361,2.6172,2.6172,2.5573,2.4763,2.4582,2.4023,2.3396,2.317,2.3108,2.3108,2.3108,2.3108,2.3108,2.3108,2.3108,2.3108,2.3108,2.3108,2.3108,2.3108,2.3108,2.3108,2.3108,2.3108,2.3108,2.3108,2.3108,2.3108,2.3108,2.2819,2.2594,2.2594,2.2159,2.1794,2.1794,2.1345,2.1006,2.1006,2.0679,2.0351,2.015,1.9924,1.9798,1.9798,1.9798,1.9798,1.9798,1.9798,1.9648,1.9309,1.9296,1.9145,1.8807,1.8807,1.8807,1.8807,1.8807,1.8807,0.0,1.7599,1.7965,1.8012,1.7637,1.7285,1.7285,1.6873,0.0,1.65,1.65,1.65,1.65,1.65,1.6513,1.655,1.6588,1.6989,0.0,1.8845,0.0,0.0,2.391,0.0,0.0,0.0,0.0,0.0,0.0,0.0,2.6499,2.6499,2.6499,2.6499,2.6499,2.6499,2.6499,2.6499,2.6499,2.6499,2.6499,2.6499,2.6499,2.6499,2.6499,0.0,0.0,0.0,0.0,2.6499,2.6499,2.6499,2.6449,2.6097,2.5586,2.5548,2.5209,2.4662,2.418,2.3966,2.3853,2.3283,2.3108,2.3108,2.3108,2.3108,2.3108,2.3108,2.3108,2.3108,2.3108,2.3108,2.3108,2.3108,2.3108,2.3108,2.3108,2.3108,2.3108,2.3108,2.3108,2.3108,2.3108,2.3108,2.3108,2.3108,2.2669,2.2372,2.2372,2.1895,2.1543,2.1543,2.1506,2.1307,2.0792,2.02,1.9849,1.9798,1.9798,1.9798,1.9798,1.9798,1.9798,1.9798,1.9798,1.9798,1.9798,1.9798,1.9798,1.9798,1.9798,1.9798,1.5807,0.0,1.5757,1.6053,1.6123,1.6095,0.0,1.6308,1.65,1.65,1.65,1.65,1.65,1.65,1.6638,1.7099,1.7539,1.8053,1.8719,0.0,0.0,2.4036,2.5322,0.0,0.0,0.0,0.0,0.0,0.0,2.6499,2.6499,2.6499,2.6499,2.6499,2.6499,2.6499,2.6499,2.6499,2.6499,2.6499,2.6499,2.6499,2.6499,2.6499,2.6499,0.0,0.0,0.0,2.6499,2.6499,2.6499,2.6449,2.5975,2.5711,2.5548,2.5146,2.4657,2.4167,2.4042,2.3703,2.3283,2.3145,2.3108,2.3108,2.3108,2.3108,2.3108,2.3108,2.3108,2.3108,2.3108,2.3108,2.3108,2.3108,2.3108,2.3108,2.3108,2.3108,2.3108,2.3108,2.3108,2.3108,2.3108,2.3108,2.3108,2.3108,2.2995,2.2907,2.2907,2.2431,2.2121,2.2121,2.1744,2.1443,2.1333,2.0817,2.0302,1.9823,1.9798,1.9798,1.9798,1.9798,1.9798,1.9798,1.9798,1.9798,1.9798,1.9798,1.9798,1.9798,1.9798,1.9798,1.5011,1.5294,1.5601,1.582,1.5793,1.5756,1.6019,1.6107,1.6187,1.645,1.65,1.65,1.65,1.65,1.671,1.731,1.7626,0.0,0.0,0.0,2.3822,2.4687,0.0,0.0,0.0,0.0,0.0,0.0,0.0,2.6499,2.6499,2.6499,2.6499,2.6499,2.6499,2.6499,2.6499,2.6499,2.6499,2.6499,2.6499,2.6499,2.6499,2.6499,2.6499,0.0,0.0,0.0,2.6499,2.6499,2.6499,2.6436,2.5858,2.5448,2.5172,2.4644,2.4061,2.3602,2.3602,2.3358,2.3108,2.3108,2.3108,2.3108,2.3108,2.3108,2.3108,2.3108,2.3108,2.3108,2.3108,2.3108,2.3108,2.3108,2.3108,2.3108,2.3108,2.3108,2.3108,2.3108,2.3108,2.3108,2.3108,2.3108,2.3108,2.3108,2.3108,2.3108,2.3108,2.2844,2.2656,2.2656,2.2422,2.2133,2.1882,2.1594,2.1066,2.025,2.02,2.0075,1.9811,1.9798,1.9798,1.9798,1.9798,1.9798,1.9798,1.9798,1.9798,1.9798,1.9798,1.9798,1.4644,1.5425,1.6251,1.6101,1.5876,1.5819,1.6262,1.6095,1.5957,1.64,1.65,1.65,1.65,1.6584,1.6835,1.7436,0.0,0.0,2.0767,2.2749,2.423,2.4838,0.0,0.0,0.0,0.0,0.0,0.0,0.0,2.6499,2.6499,2.6499,2.6499,2.6499,2.6499,2.6499,2.6499,2.6499,2.6499,2.6499,2.6499,2.6499,2.6499,2.6499,2.6499,2.6499,0.0,0.0,2.6499,2.6499,2.6499,2.6424,2.5737,2.5209,2.4713,2.4104,2.3521,2.3108,2.3108,2.3108,2.3108,2.3108,2.3108,2.3108,2.3108,2.3108,2.3108,2.3108,2.3108,2.3108,2.3108,2.3108,2.3108,2.3108,2.3108,2.3108,2.3108,2.3108,2.3108,2.3108,2.3108,2.3108,2.3108,2.3108,2.3108,2.3108,2.3108,2.3108,2.3108,2.3108,2.3108,2.3108,2.3108,2.292,2.2443,2.2406,2.1995,2.1006,2.0867,2.0566,1.9962,1.9936,1.9886,1.9798,1.9798,1.9798,1.9798,1.9798,1.9798,1.9798,1.9798,1.9798,1.5254,1.565,1.5946,1.5144,1.5325,1.5718,1.5806,1.612,1.64,1.6475,1.65,1.65,1.65,1.6923,1.7438,0.0,0.0,2.0805,0.0,0.0,2.4368,0.0,0.0,0.0,0.0,0.0,0.0,0.0,0.0,2.6499,2.6499,2.6499,2.6499,2.6499,2.6499,2.6499,2.6499,2.6499,2.6499,2.6499,2.6499,2.6499,2.6499,2.6499,2.6499,2.6499,0.0,2.6499,2.6499,2.6499,2.6499,2.6386,2.5335,2.4863,2.4662,2.3622,2.3183,2.3108,2.3108,2.3108,2.3108,2.3108,2.3108,2.3108,2.3108,2.3108,2.3108,2.3108,2.3108,2.3108,2.3108,2.3108,2.3108,2.3108,2.3108,2.3108,2.3108,2.3108,2.3108,2.3108,2.3108,2.3108,2.3108,2.3108,2.3108,2.3108,2.3108,2.3108,2.3108,2.3108,2.3108,2.3108,2.3108,2.307,2.2982,2.2982,2.2706,2.2096,2.1619,2.1144,2.0578,2.0566,2.0327,1.9811,1.9798,1.9798,1.9798,1.9798,1.9798,1.9798,1.9798,1.9798,1.5309,1.5643,1.5942,1.529,1.5428,1.5768,1.607,1.6107,1.6158,1.6437,1.65,1.6588,1.6923,0.0,1.7775,1.8882,0.0,2.182,2.2556,0.0,0.0,0.0,0.0,0.0,0.0,0.0,0.0,0.0,0.0,0.0,2.6499,2.6499,2.6499,2.6499,2.6499,2.6499,2.6499,2.6499,2.6499,2.6499,2.6499,2.6499,2.6499,2.6499,2.6499,2.6499,0.0,2.6499,2.6499,2.6499,2.6499,2.6386,2.5259,2.4788,2.465,2.3521,2.3108,2.3108,2.3108,2.3108,2.3108,2.3108,2.3108,2.3108,2.3108,2.3108,2.317,2.3484,2.3346,2.3108,2.3108,2.3108,2.3108,2.3108,2.3108,2.3108,2.3108,2.3108,2.3108,2.3108,2.3108,2.3108,2.3108,2.3108,2.3108,2.3108,2.3108,2.3108,2.3108,2.3108,2.3108,2.3108,2.3108,2.3108,2.3108,2.3108,2.2869,2.2347,2.1794,2.1408,2.1144,2.1131,2.088,2.0302,2.0302,2.0138,1.9798,1.9798,1.9798,1.9798,1.9798,1.9798,1.5615,1.5795,1.6032,1.5755,1.5793,1.6032,1.6584,1.6396,1.6245,1.6798,1.6889,1.7027,1.7488,1.7913,0.0,1.9974,2.1493,2.2548,0.0,0.0,0.0,0.0,0.0,0.0,0.0,0.0,0.0,0.0,0.0,0.0,2.6487,2.6361,2.6348,2.6499,2.6361,2.6361,2.6499,2.6361,2.6361,2.6499,2.6499,2.6499,2.6499,2.6499,2.6499,2.6499,2.6499,2.6499,2.6499,2.6499,2.6499,2.6399,2.5385,2.4888,2.4687,2.3822,2.3496,2.3496,2.3496,2.3421,2.3333,2.3459,2.3321,2.3133,2.3271,2.3308,2.3396,2.3879,2.3766,2.3471,2.3333,2.3308,2.3271,2.3133,2.3108,2.3108,2.3108,2.3108,2.3108,2.3108,2.3108,2.3108,2.3108,2.3108,2.3108,2.3108,2.3108,2.3108,2.3108,2.3108,2.3108,2.3108,2.3108,2.3108,2.3108,2.3108,2.292,2.2506,2.2108,2.182,2.1681,2.1681,2.1458,2.0893,2.088,2.0666,2.02,2.02,2.0125,1.9999,1.9999,1.9936,1.6752,1.6453,1.6109,1.6218,1.633,1.6609,1.7187,1.731,1.7413,1.7978,1.8091,1.8091,1.8141,1.9422,2.0666,2.1295,2.2293,0.0,0.0,0.0,0.0,0.0,0.0,0.0,0.0,0.0,0.0,0.0,0.0,0.0,2.6461,2.5984,2.59,2.6474,2.5971,2.5912,2.6487,2.5925,2.5959,2.6499,2.6499,2.6499,2.6499,2.6499,2.6499,2.6499,2.6499,2.6499,2.6499,2.6499,2.6499,2.6436,2.5774,2.5247,2.4775,2.47,2.4675,2.4675,2.4675,2.4368,2.4017,2.4531,2.396,2.3208,2.3778,2.3941,2.3941,2.3991,2.4343,2.455,2.4067,2.3941,2.3803,2.3233,2.3108,2.3108,2.3108,2.3108,2.3108,2.3108,2.3108,2.3108,2.3108,2.3108,2.3108,2.3108,2.3108,2.3108,2.3108,2.3108,2.3108,2.3108,2.3108,2.3108,2.3108,2.3108,2.3083,2.3045,2.3007,2.2757,2.2272,2.2246,2.1995,2.1443,2.143,2.1405,2.1368,2.1368,2.1131,2.0629,2.0629,2.0339,1.6657,1.6451,1.619,1.6587,1.6586,1.6651,1.725,1.7674,1.8053,1.8581,1.8694,1.8694,1.8694,0.0,2.127,2.1455,2.2393,0.0,0.0,0.0,0.0,0.0,0.0,0.0,0.0,0.0,0.0,0.0,0.0,0.0,2.5423,2.5234,2.5222,2.5435,2.5222,2.5222,2.5435,2.5548,2.5548,2.5448,2.6172,2.6499,2.6499,2.6499,2.6499,2.6499,2.6499,2.6499,2.6499,2.6499,2.6499,2.6436,2.5858,2.5272,2.4788,2.4788,2.4788,2.4788,2.4788,2.4682,2.4544,2.4725,2.4499,2.4199,2.4443,2.4506,2.4582,2.4908,2.5134,2.5172,2.4657,2.4506,2.4424,2.4199,2.4148,2.4061,2.374,2.3665,2.3534,2.317,2.3108,2.3108,2.3108,2.3108,2.3108,2.3108,2.3108,2.3108,2.3108,2.3108,2.3108,2.3108,2.3108,2.3108,2.3108,2.3108,2.3108,2.3108,2.3108,2.3007,2.2807,2.2794,2.2543,2.2008,2.1995,2.1832,2.1493,2.1493,2.1408,2.1207,2.1207,2.1094,1.6641,1.6582,1.6459,1.6659,1.687,1.7142,1.7559,1.8066,1.8668,1.9397,1.9547,1.9547,1.9547,0.0,0.0,0.0,0.0,0.0,0.0,0.0,0.0,0.0,0.0,0.0,0.0,0.0,0.0,0.0,0.0,0.0,0.0,2.4625,2.4644,2.4775,2.4657,2.4612,2.4788,2.5008,2.5008,2.48,2.5586,2.5971,2.5971,2.5971,2.6072,2.6223,2.6223,2.6323,2.6474,2.6298,2.6122,2.5946,2.5686,2.5385,2.5096,2.5272,2.5335,2.5335,2.5335,2.5222,2.5096,2.5272,2.5109,2.4825,2.4988,2.5059,2.5146,2.5498,2.5724,2.5787,2.5435,2.5209,2.4988,2.4825,2.4788,2.4637,2.4117,2.4004,2.3879,2.3446,2.3233,2.3158,2.3346,2.3233,2.3108,2.3108,2.3108,2.3108,2.3108,2.3108,2.3108,2.3108,2.3108,2.3108,2.3108,2.3108,2.3108,2.3108,2.3108,2.3108,2.3108,2.3108,2.2932,2.2543,2.2543,2.2355,2.2008,2.2008,2.192,2.1744,2.1744,2.1656,1.689,1.6992,1.6968,1.6441,1.7256,1.8205,1.8219,1.8619,1.9334,2.0478,2.0717,2.0704,2.0704,2.1157,0.0,2.1493,0.0,0.0,0.0,0.0,0.0,0.0,0.0,0.0,0.0,0.0,0.0,0.0,0.0,0.0,0.0,2.4293,2.4243,2.4763,2.428,2.4255,2.4763,2.4268,2.4268,2.4775,2.4775,2.4788,2.4788,2.4788,2.5109,2.5586,2.5586,2.5912,2.6436,2.5824,2.5285,2.4838,2.5385,2.5586,2.5661,2.6273,2.6487,2.6487,2.6499,2.6122,2.5699,2.6311,2.5724,2.4933,2.5448,2.5598,2.5598,2.5598,2.6047,2.6499,2.6499,2.6072,2.5473,2.4926,2.4813,2.4682,2.413,2.4017,2.4017,2.4004,2.354,2.3308,2.3904,2.3496,2.3108,2.3108,2.3108,2.3108,2.3108,2.3108,2.3108,2.3108,2.3108,2.3108,2.3108,2.3108,2.3108,2.3108,2.3108,2.3108,2.3108,2.3108,2.3108,2.3108,2.3108,2.3108,2.3108,2.3108,2.2832,2.2322,2.2322,2.202,1.676,1.6585,1.6542,1.72,1.7496,1.792,1.9055,1.9787,2.0515,2.1594,2.1832,2.1707,2.1345,2.1694,0.0,0.0,0.0,0.0,0.0,0.0,0.0,0.0,0.0,0.0,0.0,0.0,0.0,0.0,0.0,0.0,0.0,2.3446,2.3434,2.3597,2.3446,2.3434,2.3597,2.3879,2.3879,2.3609,2.401,2.4443,2.4788,2.4788,2.4876,2.5059,2.5059,2.5146,2.5297,2.5121,2.4926,2.4813,2.4996,2.5059,2.5109,2.5649,2.585,2.5946,2.6348,2.6386,2.6273,2.6436,2.6273,2.6034,2.6185,2.6235,2.6235,2.6235,2.6361,2.6499,2.6499,2.6361,2.6197,2.6047,2.6009,2.5845,2.5247,2.5121,2.5008,2.4657,2.4412,2.4349,2.4512,2.4117,2.374,2.374,2.3358,2.3108,2.3108,2.3108,2.3108,2.3108,2.3108,2.3108,2.3108,2.3108,2.3108,2.3108,2.3108,2.3108,2.3108,2.3108,2.3108,2.3108,2.3108,2.3108,2.3108,2.3108,2.302,2.2857,2.2857,2.2782,1.6789,1.6881,1.7016,1.7522,1.7837,1.84,1.982,2.0601,2.1333,2.241,2.2443,2.2209,2.1882,2.2083,0.0,0.0,0.0,0.0,0.0,0.0,0.0,0.0,0.0,0.0,0.0,0.0,0.0,0.0,0.0,0.0,0.0,2.3108,2.3108,2.3108,2.3108,2.3108,2.3108,2.3446,2.3446,2.3108,2.3459,2.3797,2.4123,2.4123,2.4249,2.4474,2.472,2.4662,2.4494,2.4494,2.4324,2.4148,2.4374,2.4494,2.4582,2.5322,2.5598,2.5686,2.6298,2.6499,2.6499,2.6499,2.6499,2.6499,2.6499,2.6499,2.6499,2.6499,2.6499,2.6499,2.6499,2.6499,2.6499,2.6499,2.6499,2.6336,2.5724,2.5598,2.5498,2.5197,2.4958,2.4863,2.5096,2.4682,2.4255,2.4029,2.3471,2.3108,2.3108,2.3108,2.3108,2.3108,2.3108,2.3108,2.3108,2.3108,2.3108,2.3108,2.3108,2.3108,2.3108,2.3108,2.3108,2.3108,2.3108,2.3108,2.3108,2.3108,2.3108,2.3108,2.3108,2.3108,1.683,1.7493,1.7929,1.7555,1.8277,1.9367,2.0458,2.1081,2.1732,2.2807,0.0,2.2355,2.2355,2.2355,2.2355,0.0,0.0,0.0,0.0,0.0,0.0,0.0,0.0,0.0,0.0,0.0,0.0,0.0,0.0,0.0,0.0,2.3108,2.3108,2.3108,2.3108,2.3108,2.3108,2.3108,2.3108,2.3108,2.3108,2.3108,2.3108,2.3108,2.3396,2.3954,2.4412,2.4381,2.3916,2.3916,2.3572,2.3158,2.3715,2.3916,2.4054,2.5134,2.5523,2.5611,2.6273,2.6499,2.6499,2.6499,2.6499,2.6499,2.6499,2.6499,2.6499,2.6499,2.6499,2.6499,2.6499,2.6499,2.6499,2.6499,2.6499,2.6348,2.5787,2.5674,2.5674,2.5674,2.5297,2.5121,2.5598,2.5197,2.4587,2.4017,2.3446,2.3108,2.3108,2.3108,2.3108,2.3108,2.3108,2.3108,2.3108,2.3108,2.3108,2.3108,2.3108,2.3108,2.3108,2.3108,2.3108,2.3108,2.3108,2.3108,2.3108,2.3108,2.3108,2.3108,2.3108,2.3108,1.6303,1.677,1.7412,1.7765,1.8761,1.9813,2.0529,2.0779,2.1182,2.2259,2.2706,2.2932,2.2932,2.2932,0.0,0.0,0.0,0.0,0.0,0.0,0.0,0.0,0.0,0.0,0.0,0.0,0.0,0.0,0.0,0.0,2.3108,2.3108,2.3108,2.3108,2.3108,2.3108,2.3108,2.3108,2.3108,0.0,2.3108,2.3108,2.3108,2.3108,2.317,2.3296,2.3421,2.3396,2.3296,2.3296,2.3221,2.3108,2.3246,2.3296,2.3434,2.4569,2.4983,2.5134,2.6147,2.6499,2.6499,2.6499,2.6499,2.6499,2.6499,2.6499,2.6499,2.6499,2.6499,2.6499,2.6499,2.6499,2.6499,2.6499,2.6499,2.6461,2.6336,2.6311,2.6311,2.6311,2.6223,2.6172,2.6285,2.5473,2.4449,2.3446,2.3183,2.3108,2.3108,2.3108,2.3108,2.3108,2.3108,2.3108,2.3108,2.3108,2.3108,2.3108,2.3108,2.3108,2.3108,2.3108,2.3108,2.3108,2.3108,2.3108,2.3108,2.3108,2.3108,2.3108,2.3108,2.3108,1.6304,1.6962,1.7644,1.8305,1.9396,2.0284,2.0266,2.049,2.0855,2.1405,2.197,2.2393,2.2656,0.0,0.0,0.0,0.0,0.0,0.0,0.0,0.0,0.0,0.0,0.0,0.0,0.0,0.0,0.0,0.0,2.3108,2.3108,2.3108,2.3108,2.3108,2.3108,2.3108,2.3108,2.3108,2.3108,2.3108,2.3108,2.3108,2.3108,2.3108,2.3108,2.3108,2.3108,2.3108,2.3108,2.3108,2.3108,2.3108,2.3108,2.3108,2.3246,2.4374,2.4788,2.4938,2.6109,2.6499,2.6499,2.6499,2.6499,2.6499,2.6499,2.6499,2.6499,2.6499,2.6499,2.6499,2.6499,2.6499,2.6499,2.6499,2.6499,2.6499,2.6499,2.6499,2.6499,2.6499,2.6499,2.6499,2.6499,2.5749,2.4996,2.4406,2.4073,2.391,2.391,2.391,2.391,2.391,2.3672,2.3521,2.3521,2.3258,2.3108,2.3108,2.3108,2.3108,2.3108,2.3108,2.3108,2.3108,2.3108,2.3108,2.3108,2.3108,2.3108,2.3108,2.3108,2.3108,1.6099,1.7067,1.7955,1.8786,1.9824,2.0504,2.008,2.0267,2.0567,2.07,2.1138,2.1656,0.0,0.0,0.0,0.0,0.0,0.0,0.0,0.0,0.0,0.0,0.0,0.0,0.0,0.0,0.0,0.0,0.0,2.3108,2.3108,2.3108,2.3108,2.3108,2.3108,2.3108,2.3108,2.3108,2.3108,2.3108,2.3108,2.3108,2.3108,2.3108,2.3108,2.3108,2.3108,2.3108,2.3108,2.3108,2.3108,2.3108,2.3108,2.3108,2.3246,2.4374,2.4788,2.4938,2.6109,2.6499,2.6499,2.6499,2.6499,2.6499,2.6499,2.6499,2.6499,2.6499,2.6499,2.6499,2.6499,2.6499,2.6499,2.6499,2.6499,2.6499,2.6499,2.6499,2.6499,2.6499,2.6499,2.6461,2.6361,2.5912,2.5561,2.5473,2.5096,2.4788,2.4788,2.4788,2.4788,2.4788,2.4406,2.4142,2.4142,2.3672,2.3358,2.3258,2.3258,2.3208,2.3108,2.3108,2.3108,2.3108,2.3108,2.3108,2.3108,2.3108,2.3108,2.3108,2.3108,2.3108,1.4457,1.5717,1.7425,1.8689,1.9465,2.0068,0.0,0.0,2.0066,0.0,2.1181,2.1656,0.0,0.0,0.0,0.0,0.0,0.0,0.0,0.0,0.0,0.0,0.0,0.0,0.0,0.0,0.0,0.0,2.3108,2.3108,2.3108,2.3108,2.3108,2.3108,2.3108,2.3108,2.3108,2.3108,2.3108,2.3108,2.3108,2.3108,2.3108,2.3108,2.3108,2.3108,2.3108,2.3108,2.3108,2.3108,2.3108,2.3108,2.3108,2.3108,2.3246,2.4374,2.4788,2.4938,2.6109,2.6499,2.6499,2.6499,2.6499,2.6499,2.6499,2.6499,2.6499,2.6499,2.6499,2.6499,2.6499,2.6499,2.6499,2.6499,2.6499,2.6499,2.6499,2.6499,2.6499,2.6499,2.6499,2.6336,2.5799,2.5649,2.5435,2.4996,2.4838,2.4788,2.4788,2.4788,2.4788,2.4788,2.4725,2.4675,2.4675,2.4612,2.4362,2.3916,2.3891,2.3665,2.312,2.3108,2.3108,2.3108,2.3108,2.3108,2.3108,2.3108,2.3108,2.3108,2.3108,2.3108,1.5183,1.6982,1.8646,1.9232,2.0136,2.0855,2.0813,2.0823,2.0855,2.082,2.0964,0.0,0.0,0.0,0.0,0.0,0.0,0.0,0.0,0.0,0.0,0.0,0.0,0.0,0.0,0.0,0.0,0.0,2.2819,2.2644,2.2644,2.2644,2.2644,2.2644,2.2945,2.3108,2.3108,2.3108,2.3108,2.3108,2.3108,2.3108,2.3108,2.3108,2.3108,2.3108,2.3108,2.3108,2.3108,2.3108,2.3108,2.3108,2.3108,2.3308,2.3684,2.4487,2.5008,2.5372,2.6223,2.6499,2.6499,2.6499,2.6499,2.6499,2.6499,2.6499,2.6499,2.6499,2.6499,2.6499,2.6499,2.6499,2.6499,2.6499,2.6499,2.6499,2.6499,2.6499,2.6499,2.6499,2.6499,2.6411,2.616,2.6109,2.6034,2.5808,2.5737,2.5737,2.5737,2.5737,2.5737,2.5737,2.5448,2.5259,2.5259,2.4983,2.4687,2.4469,2.4456,2.4205,2.364,2.3584,2.3434,2.3108,2.3108,2.3108,2.3108,2.3108,2.3108,2.3108,2.3108,2.3108,1.577,1.758,1.8835,1.9344,2.0345,2.1105,0.0,0.0,2.1348,0.0,0.0,0.0,0.0,0.0,0.0,0.0,0.0,0.0,0.0,0.0,0.0,0.0,0.0,0.0,0.0,0.0,0.0,0.0,2.2443,2.2246,2.2108,2.2108,2.2108,2.2108,2.2606,2.2895,2.2895,2.3032,2.3108,2.3108,2.3108,2.3108,2.3108,2.3108,2.3108,2.3108,2.3108,2.3108,2.3108,2.3108,2.3108,2.3108,2.3108,2.3371,2.3866,2.4537,2.5059,2.5498,2.6248,2.6499,2.6499,2.6499,2.6499,2.6499,2.6499,2.6499,2.6499,2.6499,2.6499,2.6499,2.6499,2.6499,2.6499,2.6499,2.6499,2.6499,2.6499,2.6499,2.6499,2.6499,2.6499,2.6499,2.6499,2.6499,2.6499,2.6499,2.6499,2.6499,2.6499,2.6499,2.6499,2.6499,2.6109,2.5812,2.5812,2.546,2.5172,2.4988,2.4988,2.477,2.423,2.4205,2.4004,2.3547,2.3534,2.3396,2.3108,2.3108,2.3108,2.3108,2.3108,2.3108,1.5124,1.5918,1.6471,1.8374,1.9318,1.9953,0.0,0.0,0.0,0.0,0.0,0.0,0.0,0.0,0.0,0.0,0.0,0.0,0.0,0.0,0.0,0.0,0.0,0.0,0.0,0.0,0.0,0.0,2.2033,2.2083,2.1556,2.1531,2.1531,2.1531,2.2071,2.2347,2.2347,2.2844,2.3108,2.3108,2.3108,2.3108,2.3108,2.3108,2.3108,2.3108,2.3108,2.3108,2.3108,2.3108,2.3108,2.3108,2.3108,2.312,2.3283,2.4387,2.4813,2.5008,2.6122,2.6499,2.6499,2.6499,2.6499,2.6499,2.6499,2.6499,2.6499,2.6499,2.6499,2.6499,2.6499,2.6499,2.6499,2.6499,2.6499,2.6499,2.6499,2.6499,2.6499,2.6499,2.6499,2.6499,2.6499,2.6499,2.6499,2.6499,2.6499,2.6499,2.6499,2.6499,2.6499,2.6499,2.6461,2.6449,2.6449,2.6424,2.6172,2.5586,2.5548,2.5322,2.4763,2.475,2.4725,2.47,2.47,2.4173,2.3108,2.3108,2.3108,2.3108,2.3108,2.3108,1.4259,1.5441,1.6546,1.7274,1.8596,1.9748,2.0003,2.0728,2.1389,2.1388,0.0,0.0,0.0,0.0,0.0,0.0,0.0,0.0,0.0,0.0,0.0,0.0,0.0,0.0,0.0,0.0,0.0,0.0,0.0,2.1194,2.0993,2.0993,2.0993,2.0993,2.1493,2.1945,2.2309,2.2832,2.3108,2.3108,2.3108,2.3108,2.3108,2.3108,2.3108,2.3108,2.3108,2.3108,2.3108,2.3108,2.3108,2.3108,2.3108,2.3333,2.3778,2.4512,2.5034,2.5423,2.6223,2.6499,2.6499,2.6499,2.6499,2.6499,2.6499,2.6499,2.6499,2.6499,2.6499,2.6499,2.6499,2.6499,2.6499,2.6499,2.6499,2.6499,2.6499,2.6499,2.6499,2.6499,2.6499,2.6499,2.6499,2.6499,2.6499,2.6499,2.6499,2.6499,2.6499,2.6499,2.6499,2.6499,2.6499,2.6499,2.6499,2.6499,2.6411,2.6197,2.6185,2.5933,2.5335,2.5322,2.5159,2.48,2.4788,2.4412,2.369,2.369,2.3471,2.3108,2.3108,2.3108,1.3466,1.4739,1.6159,0.0,1.7713,1.8867,1.9558,0.0,2.103,0.0,0.0,0.0,0.0,0.0,0.0,0.0,0.0,0.0,0.0,0.0,0.0,0.0,0.0,0.0,0.0,0.0,0.0,0.0,0.0,0.0,2.0415,2.0402,2.049,2.0679,2.1043,2.1568,2.2297,2.2644,2.292,2.3108,2.3108,2.3108,2.3108,2.3108,2.3108,2.3108,2.3108,2.3108,2.3108,2.3108,2.3108,2.3108,2.3108,2.3333,2.3778,2.4343,2.4883,2.541,2.6009,2.6336,2.6499,2.6499,2.6499,2.6499,2.6499,2.6499,2.6499,2.6499,2.6499,2.6499,2.6499,2.6499,2.6499,2.6499,2.6499,2.6499,2.6499,2.6499,2.6499,2.6499,2.6499,2.6499,2.6499,2.6499,2.6499,2.6499,2.6499,2.6499,2.6499,2.6499,2.6499,2.6499,2.6499,2.6499,2.6499,2.6499,2.6499,2.6499,2.6499,2.6323,2.5933,2.5887,2.5724,2.5385,2.5372,2.5096,2.4531,2.4356,2.4048,2.3672,2.3672,2.3672,0.0,0.0,0.0,0.0,0.0,0.0,1.9181,0.0,1.9664,0.0,0.0,0.0,0.0,0.0,0.0,0.0,0.0,0.0,0.0,0.0,0.0,0.0,0.0,0.0,0.0,0.0,0.0,0.0,2.0352,2.0427,1.9823,1.9798,2.0062,2.0641,2.0679,2.1207,2.2246,2.2297,2.2556,2.3083,2.3095,2.3108,2.3108,2.3108,2.3108,2.3108,2.3108,2.3108,2.3108,2.3108,2.3108,2.3108,2.3108,2.3108,2.3183,2.3803,2.4356,2.4863,2.5435,2.6021,2.6499,2.6499,2.6499,2.6499,2.6499,2.6499,2.6499,2.6499,2.6499,2.6499,2.6499,2.6499,2.6499,2.6499,2.6499,2.6499,2.6499,2.6499,2.6499,2.6499,2.6499,2.6499,2.6499,2.6499,2.6499,2.6499,2.6499,2.6499,2.6499,2.6499,2.6499,2.6499,2.6499,2.6499,2.6499,2.6499,2.6499,2.6499,2.6499,2.6499,2.6499,2.6499,2.6499,2.6499,2.6499,2.6223,2.5624,2.5096,2.4813,2.4788,2.4788,2.4788,1.366,0.0,0.0,0.0,0.0,0.0,0.0,0.0,0.0,0.0,0.0,0.0,0.0,0.0,0.0,0.0,0.0,0.0,0.0,0.0,0.0,0.0,0.0,0.0,0.0,0.0,0.0,0.0,1.9949,1.9974,1.9811,1.9798,1.9874,2.0037,2.0478,2.0842,2.1144,2.192,2.2355,2.2518,2.2907,2.3108,2.3108,2.3108,2.3108,2.3108,2.3108,2.3108,2.3108,2.3108,2.3108,2.3108,2.3108,2.3108,2.3221,2.4199,2.4662,2.4926,2.59,2.6361,2.6499,2.6499,2.6499,2.6499,2.6499,2.6499,2.6499,2.6499,2.6499,2.6499,2.6499,2.6499,2.6499,2.6499,2.6499,2.6499,2.6499,2.6499,2.6499,2.6499,2.6499,2.6499,2.6499,2.6499,2.6499,2.6499,2.6499,2.6499,2.6499,2.6499,2.6499,2.6499,2.6499,2.6499,2.6499,2.6499,2.6499,2.6499,2.6499,2.6499,2.6499,2.6499,2.6499,2.6499,2.6499,2.6411,2.6248,2.5649,2.5197,2.4788,2.4788,2.4788,1.4468,1.5186,1.6084,0.0,0.0,0.0,1.7833,1.7908,0.0,0.0,0.0,0.0,0.0,0.0,0.0,0.0,0.0,0.0,0.0,0.0,0.0,0.0,0.0,0.0,0.0,2.0358,2.022,2.022,1.9952,1.9798,1.9798,1.9798,1.9798,1.9798,2.0125,2.0453,2.0691,2.1333,2.1857,2.2309,2.2606,2.2882,2.3108,2.3108,2.3108,2.3108,2.3108,2.3108,2.3108,2.3108,2.3108,2.3108,2.3108,2.3108,2.3208,2.4111,2.4619,2.4946,2.5799,2.6298,2.6499,2.6499,2.6499,2.6499,2.6499,2.6499,2.6499,2.6499,2.6499,2.6499,2.6499,2.6499,2.6499,2.6499,2.6499,2.6499,2.6499,2.6499,2.6499,2.6499,2.6499,2.6499,2.6499,2.6499,2.6499,2.6499,2.6499,2.6499,2.6499,2.6499,2.6499,2.6499,2.6499,2.6499,2.6499,2.6499,2.6499,2.6499,2.6499,2.6499,2.6499,2.6499,2.6499,2.6499,2.6499,2.6499,2.6499,2.616,2.5799,2.5498,2.5498,2.5498,1.5426,1.595,1.6801,0.0,0.0,0.0,1.8194,1.8072,1.7953,0.0,0.0,0.0,0.0,0.0,0.0,0.0,0.0,0.0,0.0,0.0,0.0,0.0,0.0,0.0,2.1697,2.121,2.087,2.0795,2.0182,1.9798,1.9798,1.9798,1.9798,1.9798,1.9798,2.0049,2.0591,2.0666,2.1182,2.2133,2.2246,2.2543,2.3007,2.3083,2.3108,2.3108,2.3108,2.3108,2.3108,2.3108,2.3108,2.3108,2.3108,2.3108,2.3183,2.3853,2.4406,2.4876,2.5485,2.6059,2.6499,2.6499,2.6499,2.6499,2.6499,2.6499,2.6499,2.6499,2.6499,2.6499,2.6499,2.6499,2.6499,2.6499,2.6499,2.6499,2.6499,2.6499,2.6499,2.6499,2.6499,2.6499,2.6499,2.6499,2.6499,2.6499,2.6499,2.6499,2.6499,2.6499,2.6499,2.6499,2.6499,2.6499,2.6499,2.6499,2.6499,2.6499,2.6499,2.6499,2.6499,2.6499,2.6499,2.6499,2.6499,2.6499,2.6499,2.6499,2.6499,2.6499,2.6499,2.6499,0.0,0.0,0.0,0.0,0.0,0.0,1.7818,1.7369,1.713,0.0,0.0,0.0,0.0,0.0,0.0,0.0,0.0,0.0,0.0,0.0,0.0,0.0,0.0,0.0,2.1744,2.1592,2.1318,2.0845,2.0182,1.9798,1.9798,1.9798,1.9798,1.9798,1.9798,1.9861,1.9962,2.0465,2.0805,2.1018,2.1882,2.2343,2.2456,2.2895,2.3108,2.3108,2.3108,2.3108,2.3108,2.3108,2.3108,2.3108,2.3108,2.3108,2.3233,2.4249,2.47,2.4958,2.5984,2.6399,2.6499,2.6499,2.6499,2.6499,2.6499,2.6499,2.6499,2.6499,2.6499,2.6499,2.6499,2.6499,2.6499,2.6499,2.6499,2.6499,2.6499,2.6499,2.6499,2.6499,2.6499,2.6499,2.6499,2.6499,2.6499,2.6499,2.6499,2.6499,2.6499,2.6499,2.6499,2.6499,2.6499,2.6499,2.6499,2.6499,2.6499,2.6499,2.6499,2.6499,2.6499,2.6499,2.6499,2.6499,2.6499,2.6499,2.6499,2.6499,2.6499,2.6499,2.6499,2.6499,0.0,0.0,0.0,1.8281,0.0,0.0,0.0,1.7684,1.7473,1.8493,1.7908,0.0,0.0,0.0,0.0,0.0,0.0,0.0,0.0,0.0,0.0,0.0,0.0,0.0,2.1744,2.1693,2.1569,2.128,2.0928,2.062,2.0321,2.0295,2.0156,1.9798,1.9798,1.9798,1.9798,2.0087,2.0402,2.0704,2.1506,2.2046,2.2334,2.2857,2.3108,2.3108,2.3108,2.3108,2.3108,2.3108,2.3108,2.3108,2.3108,2.3108,2.3246,2.4374,2.4788,2.4938,2.6109,2.6499,2.6499,2.6499,2.6499,2.6499,2.6499,2.6499,2.6499,2.6499,2.6499,2.6499,2.6499,2.6499,2.6499,2.6499,2.6499,2.6499,2.6499,2.6499,2.6499,2.6499,2.6499,2.6499,2.6499,2.6499,2.6499,2.6499,2.6499,2.6499,2.6499,2.6499,2.6499,2.6499,2.6499,2.6499,2.6499,2.6499,2.6499,2.6499,2.6499,2.6499,2.6499,2.6499,2.6499,2.6499,2.6499,2.6499,2.6499,2.6499,2.6499,2.6499,2.6499,2.6499,0.0,0.0,0.0,0.0,0.0,1.9031,0.0,0.0,0.0,1.9106,0.0,0.0,0.0,0.0,0.0,0.0,0.0,0.0,0.0,0.0,0.0,0.0,0.0,0.0,0.0,2.1476,2.1323,2.1356,2.1342,2.1081,2.0476,2.0668,2.0497,1.9824,1.9798,1.9798,1.9798,1.9798,2.0037,2.0528,2.1207,2.1719,2.2171,2.2972,2.3258,2.3108,2.3245,2.3245,2.3108,2.3108,2.3108,2.3108,2.3108,2.3108,2.3246,2.4374,2.4788,2.4938,2.6109,2.6499,2.6499,2.6499,2.6499,2.6499,2.6499,2.6499,2.6499,2.6499,2.6499,2.6499,2.6499,2.6499,2.6499,2.6499,2.6499,2.6499,2.6499,2.6499,2.6499,2.6499,2.6499,2.6499,2.6499,2.6499,2.6499,2.6499,2.6499,2.6499,2.6499,2.6499,2.6499,2.6499,2.6499,2.6499,2.6499,2.6499,2.6499,2.6499,2.6499,2.6499,2.6499,2.6499,2.6499,2.6499,2.6499,2.6499,2.6499,2.6499,2.6499,2.6499,2.6499,2.6499,0.0,0.0,0.0,0.0,2.0034,0.0,0.0,0.0,1.8446,1.8012,0.0,0.0,0.0,0.0,0.0,0.0,0.0,0.0,0.0,0.0,0.0,0.0,0.0,0.0,0.0,2.0624,1.9976,2.0111,2.0048,1.9789,1.9231,2.0212,2.0497,1.9824,1.9798,1.9798,1.9798,1.9798,1.9836,1.9911,2.0978,2.1518,2.1647,2.3376,2.3767,2.3125,2.3855,2.3767,2.3108,2.3108,2.3108,2.3108,2.3108,2.3108,2.3246,2.4374,2.4788,2.4938,2.6109,2.6499,2.6499,2.6499,2.6499,2.6499,2.6499,2.6499,2.6499,2.6499,2.6499,2.6499,2.6499,2.6499,2.6499,2.6499,2.6499,2.6499,2.6499,2.6499,2.6499,2.6499,2.6499,2.6499,2.6499,2.6499,2.6499,2.6499,2.6499,2.6499,2.6499,2.6499,2.6499,2.6499,2.6499,2.6499,2.6499,2.6499,2.6499,2.6499,2.6499,2.6499,2.6499,2.6499,2.6499,2.6499,2.6499,2.6499,2.6499,2.6499,2.6499,2.6499,2.6499,2.6499,0.0,0.0,0.0,0.0,0.0,0.0,1.9495,0.0,1.8732,0.0,0.0,0.0,0.0,0.0,0.0,0.0,0.0,0.0,0.0,0.0,0.0,0.0,0.0,0.0,0.0,0.0,0.0,0.0,2.0558,2.0232,2.005,2.0519,2.0681,2.0396,2.0003,2.0003,2.0371,2.0003,1.9798,1.9811,2.0953,2.1493,2.1546,2.2974,2.3424,2.3138,2.3454,2.3424,2.3108,2.3108,2.3108,2.3108,2.3108,2.3108,2.3246,2.4374,2.4788,2.4938,2.6109,2.6499,2.6499,2.6499,2.6499,2.6499,2.6499,2.6499,2.6499,2.6499,2.6499,2.6499,2.6499,2.6499,2.6499,2.6499,2.6499,2.6499,2.6499,2.6499,2.6499,2.6499,2.6499,2.6499,2.6499,2.6499,2.6499,2.6499,2.6499,2.6499,2.6499,2.6499,2.6499,2.6499,2.6499,2.6499,2.6499,2.6499,2.6499,2.6499,2.6499,2.6499,2.6499,2.6499,2.6499,2.6499,2.6499,2.6499,2.6499,2.6973,2.7196,2.7196,2.6714,2.6499,2.1964,0.0,0.0,0.0,0.0,0.0,0.0,0.0,0.0,0.0,0.0,0.0,0.0,0.0,0.0,0.0,0.0,1.7579,0.0,0.0,0.0,0.0,0.0,0.0,0.0,0.0,0.0,0.0,0.0,2.0191,2.0274,2.0616,2.0793,2.0812,2.0143,2.0131,2.0795,2.0131,1.9874,2.0049,2.1029,2.1568,2.1744,2.2904,2.3305,2.3108,2.3335,2.3305,2.3108,2.3108,2.3108,2.3108,2.3108,2.3195,2.3459,2.4424,2.4876,2.5172,2.6172,2.6499,2.6499,2.6499,2.6499,2.6499,2.6499,2.6499,2.6499,2.6499,2.6499,2.6499,2.6499,2.6499,2.6499,2.6499,2.6499,2.6499,2.6499,2.6499,2.6499,2.6499,2.6612,2.6713,2.6713,2.66,2.6499,2.6499,2.6499,2.6499,2.6499,2.6499,2.6499,2.6499,2.6499,2.6499,2.6499,2.6499,2.6499,2.6499,2.6499,2.6499,2.6499,2.6499,2.6499,2.6499,2.6499,2.6624,2.685,2.7417,2.7835,2.8051,2.7451,2.7074,0.0,0.0,0.0,2.1036,0.0,0.0,0.0,0.0,2.0468,0.0,0.0,0.0,0.0,0.0,0.0,1.7818,0.0,0.0,0.0,0.0,0.0,0.0,0.0,0.0,0.0,0.0,0.0,0.0,0.0,0.0,1.8948,2.0139,2.0786,2.079,2.0148,2.0131,2.0795,2.0131,2.0087,2.0679,2.1245,2.1769,2.2338,2.3641,2.3826,2.3125,2.3914,2.3826,2.3108,2.3108,2.3108,2.3108,2.3108,2.3446,2.4042,2.4607,2.5146,2.5649,2.6285,2.6499,2.6499,2.6499,2.6499,2.6499,2.6499,2.6499,2.6499,2.6499,2.6499,2.6499,2.6499,2.6499,2.6499,2.6499,2.6499,2.6499,2.6499,2.6499,2.6499,2.6499,2.6927,2.7256,2.7256,2.6851,2.6499,2.6499,2.6499,2.6499,2.6499,2.6499,2.6499,2.6499,2.6499,2.6499,2.6499,2.6499,2.6499,2.6499,2.6499,2.6499,2.6499,2.6499,2.6499,2.6499,2.6499,2.6871,2.767,2.7703,2.8149,2.8971,2.8939,2.846,0.0,0.0,2.4298,2.2951,0.0,0.0,0.0,0.0,0.0,0.0,0.0,0.0,0.0,0.0,1.8627,1.8386,1.7624,0.0,0.0,0.0,0.0,0.0,0.0,0.0,0.0,0.0,0.0,0.0,1.8718,0.0,0.0,2.0246,2.0954,2.1379,2.0794,2.0758,2.139,2.1202,2.0991,2.0731,2.2084,2.2609,2.2334,2.3141,2.3365,2.3108,2.3395,2.3335,2.3108,2.3108,2.3108,2.3145,2.3521,2.4054,2.4537,2.4725,2.5146,2.5686,2.6298,2.6499,2.6499,2.6499,2.6499,2.6499,2.6499,2.6499,2.6499,2.6499,2.6499,2.6499,2.6499,2.6499,2.6499,2.6499,2.6776,2.704,2.704,2.7329,2.7544,2.7544,2.7708,2.7821,2.7821,2.767,2.7544,2.7544,2.7544,2.7544,2.7544,2.7544,2.7544,2.7544,2.7544,2.7544,2.7544,2.7544,2.7544,2.7544,2.7544,2.7381,2.7052,2.704,2.6864,2.6499,2.6499,2.6624,2.6905,2.8019,2.8716,2.9034,3.0133,2.9889,2.5615,2.5615,0.0,2.4238,2.367,0.0,2.141,0.0,0.0,0.0,0.0,0.0,0.0,0.0,0.0,1.8747,1.7773,1.6772,0.0,1.5439,0.0,0.0,0.0,0.0,0.0,0.0,1.8044,1.8986,1.8386,0.0,0.0,0.0,2.1023,2.1682,2.131,2.1293,2.1697,2.1715,2.1472,2.0993,2.2352,2.2875,2.2594,2.2945,2.3108,2.3108,2.3108,2.3108,2.3108,2.3108,2.3108,2.3158,2.3766,2.4343,2.4813,2.4988,2.5435,2.5996,2.6361,2.6499,2.6499,2.6499,2.6499,2.6499,2.6499,2.6499,2.6499,2.6499,2.6499,2.6537,2.6738,2.6788,2.6839,2.7027,2.7318,2.757,2.757,2.7858,2.8109,2.8109,2.826,2.8361,2.8361,2.8561,2.8574,2.816,2.8109,2.8109,2.8109,2.8109,2.8109,2.8109,2.8109,2.8243,2.8579,2.8912,2.9112,2.9112,2.9112,2.8991,2.8612,2.8276,2.8109,2.8098,2.7515,2.7548,2.818,2.9035,2.9597,2.9919,3.0999,3.0925]}]]